<?xml version="1.0" encoding="UTF-8" standalone="no" ?>
<gpx xmlns="http://www.topografix.com/GPX/1/1" xmlns:xsi="http://www.w3.org/2001/XMLSchema-instance" xsi:schemaLocation="http://www.topografix.com/GPX/1/1 http://www.topografix.com/GPX/1/1/gpx.xsd" version="1.1" creator="VisuGPX - https://www.visugpx.com">
  <metadata>
    <name>Prapoutel</name>
    <desc><![CDATA[
]]></desc>
  </metadata>
  <trk>
    <name><![CDATA[Prapoutel_1]]></name>
    <extensions>
      <line xmlns="http://www.topografix.com/GPX/gpx_style/0/2">
        <color>0000FF</color>
        <width>4</width>
      </line>
    </extensions>
    <trkseg>
      <trkpt lat="45.25695" lon="5.99634">
        <ele>1326.4510498047</ele>
        <time>2017-11-29T07:35:12Z</time>
      </trkpt>
      <trkpt lat="45.25695" lon="5.99628">
        <ele>1328.4510498047</ele>
        <time>2017-11-29T07:35:55Z</time>
      </trkpt>
      <trkpt lat="45.25694" lon="5.99621">
        <ele>1325.4510498047</ele>
        <time>2017-11-29T07:36:03Z</time>
      </trkpt>
      <trkpt lat="45.25693" lon="5.99613">
        <ele>1327.4510498047</ele>
        <time>2017-11-29T07:36:06Z</time>
      </trkpt>
      <trkpt lat="45.25693" lon="5.99606">
        <ele>1327.4510498047</ele>
        <time>2017-11-29T07:36:10Z</time>
      </trkpt>
      <trkpt lat="45.2569" lon="5.99598">
        <ele>1322.4510498047</ele>
        <time>2017-11-29T07:36:16Z</time>
      </trkpt>
      <trkpt lat="45.25686" lon="5.99596">
        <ele>1322.4510498047</ele>
        <time>2017-11-29T07:36:23Z</time>
      </trkpt>
      <trkpt lat="45.25684" lon="5.9959">
        <ele>1328.4510498047</ele>
        <time>2017-11-29T07:36:33Z</time>
      </trkpt>
      <trkpt lat="45.2568" lon="5.99584">
        <ele>1328.4510498047</ele>
        <time>2017-11-29T07:36:43Z</time>
      </trkpt>
      <trkpt lat="45.25673" lon="5.99591">
        <ele>1327.4510498047</ele>
        <time>2017-11-29T07:36:56Z</time>
      </trkpt>
      <trkpt lat="45.25668" lon="5.99591">
        <ele>1327.4510498047</ele>
        <time>2017-11-29T07:37:12Z</time>
      </trkpt>
      <trkpt lat="45.25664" lon="5.99586">
        <ele>1328.4510498047</ele>
        <time>2017-11-29T07:37:19Z</time>
      </trkpt>
      <trkpt lat="45.25659" lon="5.99585">
        <ele>1330.4510498047</ele>
        <time>2017-11-29T07:37:24Z</time>
      </trkpt>
      <trkpt lat="45.25656" lon="5.9959">
        <ele>1330.4510498047</ele>
        <time>2017-11-29T07:37:32Z</time>
      </trkpt>
      <trkpt lat="45.25656" lon="5.99596">
        <ele>1331.4510498047</ele>
        <time>2017-11-29T07:37:36Z</time>
      </trkpt>
      <trkpt lat="45.25659" lon="5.99604">
        <ele>1335.4510498047</ele>
        <time>2017-11-29T07:37:42Z</time>
      </trkpt>
      <trkpt lat="45.2566" lon="5.99611">
        <ele>1335.4510498047</ele>
        <time>2017-11-29T07:37:48Z</time>
      </trkpt>
      <trkpt lat="45.2566" lon="5.99619">
        <ele>1336.4510498047</ele>
        <time>2017-11-29T07:37:53Z</time>
      </trkpt>
      <trkpt lat="45.25662" lon="5.99625">
        <ele>1335.4510498047</ele>
        <time>2017-11-29T07:37:56Z</time>
      </trkpt>
      <trkpt lat="45.25665" lon="5.99633">
        <ele>1336.4510498047</ele>
        <time>2017-11-29T07:38:02Z</time>
      </trkpt>
      <trkpt lat="45.25662" lon="5.99639">
        <ele>1339.4510498047</ele>
        <time>2017-11-29T07:38:06Z</time>
      </trkpt>
      <trkpt lat="45.25664" lon="5.99647">
        <ele>1338.4510498047</ele>
        <time>2017-11-29T07:38:12Z</time>
      </trkpt>
      <trkpt lat="45.25663" lon="5.99653">
        <ele>1340.4510498047</ele>
        <time>2017-11-29T07:38:17Z</time>
      </trkpt>
      <trkpt lat="45.25663" lon="5.9966">
        <ele>1338.4510498047</ele>
        <time>2017-11-29T07:38:21Z</time>
      </trkpt>
      <trkpt lat="45.25663" lon="5.99668">
        <ele>1338.4510498047</ele>
        <time>2017-11-29T07:38:25Z</time>
      </trkpt>
      <trkpt lat="45.25663" lon="5.99676">
        <ele>1340.4510498047</ele>
        <time>2017-11-29T07:38:30Z</time>
      </trkpt>
      <trkpt lat="45.2566" lon="5.99681">
        <ele>1341.4510498047</ele>
        <time>2017-11-29T07:38:34Z</time>
      </trkpt>
      <trkpt lat="45.25655" lon="5.99684">
        <ele>1342.4510498047</ele>
        <time>2017-11-29T07:38:39Z</time>
      </trkpt>
      <trkpt lat="45.25651" lon="5.99687">
        <ele>1343.4510498047</ele>
        <time>2017-11-29T07:38:42Z</time>
      </trkpt>
      <trkpt lat="45.25646" lon="5.99689">
        <ele>1343.4510498047</ele>
        <time>2017-11-29T07:38:46Z</time>
      </trkpt>
      <trkpt lat="45.25642" lon="5.99695">
        <ele>1343.4510498047</ele>
        <time>2017-11-29T07:38:51Z</time>
      </trkpt>
      <trkpt lat="45.2564" lon="5.99702">
        <ele>1343.4510498047</ele>
        <time>2017-11-29T07:38:56Z</time>
      </trkpt>
      <trkpt lat="45.25638" lon="5.99707">
        <ele>1343.4510498047</ele>
        <time>2017-11-29T07:38:59Z</time>
      </trkpt>
      <trkpt lat="45.25638" lon="5.99714">
        <ele>1342.4510498047</ele>
        <time>2017-11-29T07:39:04Z</time>
      </trkpt>
      <trkpt lat="45.25638" lon="5.99721">
        <ele>1344.4510498047</ele>
        <time>2017-11-29T07:39:08Z</time>
      </trkpt>
      <trkpt lat="45.25636" lon="5.99727">
        <ele>1344.4510498047</ele>
        <time>2017-11-29T07:39:12Z</time>
      </trkpt>
      <trkpt lat="45.25635" lon="5.99734">
        <ele>1347.4510498047</ele>
        <time>2017-11-29T07:39:16Z</time>
      </trkpt>
      <trkpt lat="45.25635" lon="5.99742">
        <ele>1348.4510498047</ele>
        <time>2017-11-29T07:39:21Z</time>
      </trkpt>
      <trkpt lat="45.25633" lon="5.99748">
        <ele>1349.4510498047</ele>
        <time>2017-11-29T07:39:25Z</time>
      </trkpt>
      <trkpt lat="45.25632" lon="5.99754">
        <ele>1348.4510498047</ele>
        <time>2017-11-29T07:39:29Z</time>
      </trkpt>
      <trkpt lat="45.25631" lon="5.99762">
        <ele>1350.4510498047</ele>
        <time>2017-11-29T07:39:34Z</time>
      </trkpt>
      <trkpt lat="45.2563" lon="5.9977">
        <ele>1351.4510498047</ele>
        <time>2017-11-29T07:39:39Z</time>
      </trkpt>
      <trkpt lat="45.2563" lon="5.99776">
        <ele>1349.4510498047</ele>
        <time>2017-11-29T07:39:45Z</time>
      </trkpt>
      <trkpt lat="45.2563" lon="5.99783">
        <ele>1352.4510498047</ele>
        <time>2017-11-29T07:39:50Z</time>
      </trkpt>
      <trkpt lat="45.2563" lon="5.99789">
        <ele>1355.4510498047</ele>
        <time>2017-11-29T07:39:54Z</time>
      </trkpt>
      <trkpt lat="45.2563" lon="5.99797">
        <ele>1356.4510498047</ele>
        <time>2017-11-29T07:39:58Z</time>
      </trkpt>
      <trkpt lat="45.25628" lon="5.99804">
        <ele>1357.4510498047</ele>
        <time>2017-11-29T07:40:02Z</time>
      </trkpt>
      <trkpt lat="45.25625" lon="5.9981">
        <ele>1356.4510498047</ele>
        <time>2017-11-29T07:40:05Z</time>
      </trkpt>
      <trkpt lat="45.25622" lon="5.99816">
        <ele>1353.4510498047</ele>
        <time>2017-11-29T07:40:13Z</time>
      </trkpt>
      <trkpt lat="45.25621" lon="5.99822">
        <ele>1354.4510498047</ele>
        <time>2017-11-29T07:40:18Z</time>
      </trkpt>
      <trkpt lat="45.25618" lon="5.99827">
        <ele>1355.4510498047</ele>
        <time>2017-11-29T07:40:21Z</time>
      </trkpt>
      <trkpt lat="45.25614" lon="5.99832">
        <ele>1357.4510498047</ele>
        <time>2017-11-29T07:40:25Z</time>
      </trkpt>
      <trkpt lat="45.2561" lon="5.99835">
        <ele>1358.4510498047</ele>
        <time>2017-11-29T07:40:29Z</time>
      </trkpt>
      <trkpt lat="45.25606" lon="5.9984">
        <ele>1359.4510498047</ele>
        <time>2017-11-29T07:40:33Z</time>
      </trkpt>
      <trkpt lat="45.25602" lon="5.99844">
        <ele>1360.4510498047</ele>
        <time>2017-11-29T07:40:37Z</time>
      </trkpt>
      <trkpt lat="45.25601" lon="5.99851">
        <ele>1362.4510498047</ele>
        <time>2017-11-29T07:40:43Z</time>
      </trkpt>
      <trkpt lat="45.25602" lon="5.99857">
        <ele>1365.4510498047</ele>
        <time>2017-11-29T07:40:48Z</time>
      </trkpt>
      <trkpt lat="45.256" lon="5.99864">
        <ele>1366.4510498047</ele>
        <time>2017-11-29T07:40:53Z</time>
      </trkpt>
      <trkpt lat="45.256" lon="5.99871">
        <ele>1368.4510498047</ele>
        <time>2017-11-29T07:40:58Z</time>
      </trkpt>
      <trkpt lat="45.256" lon="5.99878">
        <ele>1368.4510498047</ele>
        <time>2017-11-29T07:41:11Z</time>
      </trkpt>
      <trkpt lat="45.25599" lon="5.99885">
        <ele>1371.4510498047</ele>
        <time>2017-11-29T07:41:15Z</time>
      </trkpt>
      <trkpt lat="45.25599" lon="5.99893">
        <ele>1373.4510498047</ele>
        <time>2017-11-29T07:41:20Z</time>
      </trkpt>
      <trkpt lat="45.25598" lon="5.99899">
        <ele>1375.4510498047</ele>
        <time>2017-11-29T07:41:24Z</time>
      </trkpt>
      <trkpt lat="45.25598" lon="5.99906">
        <ele>1373.4510498047</ele>
        <time>2017-11-29T07:41:35Z</time>
      </trkpt>
      <trkpt lat="45.25597" lon="5.99912">
        <ele>1373.4510498047</ele>
        <time>2017-11-29T07:41:42Z</time>
      </trkpt>
      <trkpt lat="45.25595" lon="5.99919">
        <ele>1370.4510498047</ele>
        <time>2017-11-29T07:41:48Z</time>
      </trkpt>
      <trkpt lat="45.25594" lon="5.99927">
        <ele>1370.4510498047</ele>
        <time>2017-11-29T07:41:54Z</time>
      </trkpt>
      <trkpt lat="45.25594" lon="5.99935">
        <ele>1371.4510498047</ele>
        <time>2017-11-29T07:41:58Z</time>
      </trkpt>
      <trkpt lat="45.25593" lon="5.99942">
        <ele>1371.4510498047</ele>
        <time>2017-11-29T07:42:03Z</time>
      </trkpt>
      <trkpt lat="45.25593" lon="5.99949">
        <ele>1376.4510498047</ele>
        <time>2017-11-29T07:42:09Z</time>
      </trkpt>
      <trkpt lat="45.25593" lon="5.99956">
        <ele>1377.4510498047</ele>
        <time>2017-11-29T07:42:13Z</time>
      </trkpt>
      <trkpt lat="45.25592" lon="5.99962">
        <ele>1381.4510498047</ele>
        <time>2017-11-29T07:42:21Z</time>
      </trkpt>
      <trkpt lat="45.25593" lon="5.99969">
        <ele>1382.4510498047</ele>
        <time>2017-11-29T07:42:25Z</time>
      </trkpt>
      <trkpt lat="45.25591" lon="5.99978">
        <ele>1383.4510498047</ele>
        <time>2017-11-29T07:42:32Z</time>
      </trkpt>
      <trkpt lat="45.25589" lon="5.99984">
        <ele>1383.4510498047</ele>
        <time>2017-11-29T07:42:37Z</time>
      </trkpt>
      <trkpt lat="45.2559" lon="5.99991">
        <ele>1386.4510498047</ele>
        <time>2017-11-29T07:42:41Z</time>
      </trkpt>
      <trkpt lat="45.25588" lon="5.99997">
        <ele>1386.4510498047</ele>
        <time>2017-11-29T07:42:46Z</time>
      </trkpt>
      <trkpt lat="45.2559" lon="6.00003">
        <ele>1391.4510498047</ele>
        <time>2017-11-29T07:44:41Z</time>
      </trkpt>
      <trkpt lat="45.2559" lon="6.0001">
        <ele>1392.4510498047</ele>
        <time>2017-11-29T07:44:45Z</time>
      </trkpt>
      <trkpt lat="45.25588" lon="6.00015">
        <ele>1390.4510498047</ele>
        <time>2017-11-29T07:44:50Z</time>
      </trkpt>
      <trkpt lat="45.25587" lon="6.00022">
        <ele>1391.4510498047</ele>
        <time>2017-11-29T07:44:54Z</time>
      </trkpt>
      <trkpt lat="45.25588" lon="6.00029">
        <ele>1396.4510498047</ele>
        <time>2017-11-29T07:44:59Z</time>
      </trkpt>
      <trkpt lat="45.25588" lon="6.00035">
        <ele>1395.4510498047</ele>
        <time>2017-11-29T07:45:03Z</time>
      </trkpt>
      <trkpt lat="45.25587" lon="6.00043">
        <ele>1394.4510498047</ele>
        <time>2017-11-29T07:45:12Z</time>
      </trkpt>
      <trkpt lat="45.25591" lon="6.00049">
        <ele>1400.4510498047</ele>
        <time>2017-11-29T07:45:17Z</time>
      </trkpt>
      <trkpt lat="45.2559" lon="6.00057">
        <ele>1400.4510498047</ele>
        <time>2017-11-29T07:45:22Z</time>
      </trkpt>
      <trkpt lat="45.25588" lon="6.00063">
        <ele>1402.4510498047</ele>
        <time>2017-11-29T07:45:26Z</time>
      </trkpt>
      <trkpt lat="45.25586" lon="6.00071">
        <ele>1401.4510498047</ele>
        <time>2017-11-29T07:45:30Z</time>
      </trkpt>
      <trkpt lat="45.25586" lon="6.00077">
        <ele>1401.4510498047</ele>
        <time>2017-11-29T07:45:35Z</time>
      </trkpt>
      <trkpt lat="45.25583" lon="6.00085">
        <ele>1402.4510498047</ele>
        <time>2017-11-29T07:45:39Z</time>
      </trkpt>
      <trkpt lat="45.2558" lon="6.00091">
        <ele>1403.4510498047</ele>
        <time>2017-11-29T07:45:45Z</time>
      </trkpt>
      <trkpt lat="45.25578" lon="6.00099">
        <ele>1398.4510498047</ele>
        <time>2017-11-29T07:45:52Z</time>
      </trkpt>
      <trkpt lat="45.25576" lon="6.00105">
        <ele>1399.4510498047</ele>
        <time>2017-11-29T07:45:56Z</time>
      </trkpt>
      <trkpt lat="45.25573" lon="6.00111">
        <ele>1400.4510498047</ele>
        <time>2017-11-29T07:46:02Z</time>
      </trkpt>
      <trkpt lat="45.25572" lon="6.00118">
        <ele>1397.4510498047</ele>
        <time>2017-11-29T07:46:10Z</time>
      </trkpt>
      <trkpt lat="45.25568" lon="6.00127">
        <ele>1397.4510498047</ele>
        <time>2017-11-29T07:46:14Z</time>
      </trkpt>
      <trkpt lat="45.25566" lon="6.00134">
        <ele>1399.4510498047</ele>
        <time>2017-11-29T07:46:18Z</time>
      </trkpt>
      <trkpt lat="45.25566" lon="6.00141">
        <ele>1403.4510498047</ele>
        <time>2017-11-29T07:46:22Z</time>
      </trkpt>
      <trkpt lat="45.25565" lon="6.00148">
        <ele>1404.4510498047</ele>
        <time>2017-11-29T07:46:26Z</time>
      </trkpt>
      <trkpt lat="45.25563" lon="6.00155">
        <ele>1402.4510498047</ele>
        <time>2017-11-29T07:46:32Z</time>
      </trkpt>
      <trkpt lat="45.25561" lon="6.00162">
        <ele>1404.4510498047</ele>
        <time>2017-11-29T07:46:39Z</time>
      </trkpt>
      <trkpt lat="45.25561" lon="6.00168">
        <ele>1408.4510498047</ele>
        <time>2017-11-29T07:46:45Z</time>
      </trkpt>
      <trkpt lat="45.25558" lon="6.00173">
        <ele>1407.4510498047</ele>
        <time>2017-11-29T07:46:49Z</time>
      </trkpt>
      <trkpt lat="45.25555" lon="6.00178">
        <ele>1408.4510498047</ele>
        <time>2017-11-29T07:46:53Z</time>
      </trkpt>
      <trkpt lat="45.25554" lon="6.00186">
        <ele>1408.4510498047</ele>
        <time>2017-11-29T07:46:58Z</time>
      </trkpt>
      <trkpt lat="45.25553" lon="6.00193">
        <ele>1407.4510498047</ele>
        <time>2017-11-29T07:47:04Z</time>
      </trkpt>
      <trkpt lat="45.25551" lon="6.00199">
        <ele>1408.4510498047</ele>
        <time>2017-11-29T07:47:08Z</time>
      </trkpt>
      <trkpt lat="45.25548" lon="6.00205">
        <ele>1406.4510498047</ele>
        <time>2017-11-29T07:47:12Z</time>
      </trkpt>
      <trkpt lat="45.25547" lon="6.00211">
        <ele>1406.4510498047</ele>
        <time>2017-11-29T07:47:17Z</time>
      </trkpt>
      <trkpt lat="45.25543" lon="6.00215">
        <ele>1407.4510498047</ele>
        <time>2017-11-29T07:47:21Z</time>
      </trkpt>
      <trkpt lat="45.25541" lon="6.00222">
        <ele>1409.4510498047</ele>
        <time>2017-11-29T07:47:25Z</time>
      </trkpt>
      <trkpt lat="45.25539" lon="6.00227">
        <ele>1413.4510498047</ele>
        <time>2017-11-29T07:47:31Z</time>
      </trkpt>
      <trkpt lat="45.25536" lon="6.00233">
        <ele>1410.4510498047</ele>
        <time>2017-11-29T07:47:35Z</time>
      </trkpt>
      <trkpt lat="45.25533" lon="6.00239">
        <ele>1411.4510498047</ele>
        <time>2017-11-29T07:47:39Z</time>
      </trkpt>
      <trkpt lat="45.2553" lon="6.00245">
        <ele>1410.4510498047</ele>
        <time>2017-11-29T07:47:45Z</time>
      </trkpt>
      <trkpt lat="45.25529" lon="6.00253">
        <ele>1415.4510498047</ele>
        <time>2017-11-29T07:47:51Z</time>
      </trkpt>
      <trkpt lat="45.25526" lon="6.0026">
        <ele>1416.4510498047</ele>
        <time>2017-11-29T07:47:56Z</time>
      </trkpt>
      <trkpt lat="45.25524" lon="6.00265">
        <ele>1415.4510498047</ele>
        <time>2017-11-29T07:48:00Z</time>
      </trkpt>
      <trkpt lat="45.25522" lon="6.00272">
        <ele>1419.4510498047</ele>
        <time>2017-11-29T07:48:05Z</time>
      </trkpt>
      <trkpt lat="45.2552" lon="6.00279">
        <ele>1420.4510498047</ele>
        <time>2017-11-29T07:48:09Z</time>
      </trkpt>
      <trkpt lat="45.25517" lon="6.00285">
        <ele>1425.4510498047</ele>
        <time>2017-11-29T07:48:14Z</time>
      </trkpt>
      <trkpt lat="45.25515" lon="6.00292">
        <ele>1428.4510498047</ele>
        <time>2017-11-29T07:48:19Z</time>
      </trkpt>
      <trkpt lat="45.25512" lon="6.00298">
        <ele>1426.4510498047</ele>
        <time>2017-11-29T07:48:24Z</time>
      </trkpt>
      <trkpt lat="45.25511" lon="6.00304">
        <ele>1426.4510498047</ele>
        <time>2017-11-29T07:48:31Z</time>
      </trkpt>
      <trkpt lat="45.25511" lon="6.00311">
        <ele>1431.4510498047</ele>
        <time>2017-11-29T07:48:36Z</time>
      </trkpt>
      <trkpt lat="45.2551" lon="6.00318">
        <ele>1432.4510498047</ele>
        <time>2017-11-29T07:48:39Z</time>
      </trkpt>
      <trkpt lat="45.25511" lon="6.00324">
        <ele>1433.4510498047</ele>
        <time>2017-11-29T07:48:43Z</time>
      </trkpt>
      <trkpt lat="45.25509" lon="6.00331">
        <ele>1434.4510498047</ele>
        <time>2017-11-29T07:48:48Z</time>
      </trkpt>
      <trkpt lat="45.25508" lon="6.00339">
        <ele>1435.4510498047</ele>
        <time>2017-11-29T07:48:54Z</time>
      </trkpt>
      <trkpt lat="45.25506" lon="6.00348">
        <ele>1436.4510498047</ele>
        <time>2017-11-29T07:48:59Z</time>
      </trkpt>
      <trkpt lat="45.25505" lon="6.00355">
        <ele>1437.4510498047</ele>
        <time>2017-11-29T07:49:06Z</time>
      </trkpt>
      <trkpt lat="45.25505" lon="6.00361">
        <ele>1439.4520263672</ele>
        <time>2017-11-29T07:49:12Z</time>
      </trkpt>
      <trkpt lat="45.25501" lon="6.00366">
        <ele>1437.4520263672</ele>
        <time>2017-11-29T07:49:17Z</time>
      </trkpt>
      <trkpt lat="45.25499" lon="6.00372">
        <ele>1437.4520263672</ele>
        <time>2017-11-29T07:49:21Z</time>
      </trkpt>
      <trkpt lat="45.25499" lon="6.00379">
        <ele>1439.4520263672</ele>
        <time>2017-11-29T07:49:25Z</time>
      </trkpt>
      <trkpt lat="45.25496" lon="6.00386">
        <ele>1440.4520263672</ele>
        <time>2017-11-29T07:49:29Z</time>
      </trkpt>
      <trkpt lat="45.25495" lon="6.00393">
        <ele>1442.4520263672</ele>
        <time>2017-11-29T07:49:36Z</time>
      </trkpt>
      <trkpt lat="45.25492" lon="6.00398">
        <ele>1443.4520263672</ele>
        <time>2017-11-29T07:49:42Z</time>
      </trkpt>
      <trkpt lat="45.25486" lon="6.00421">
        <ele>1444.4520263672</ele>
        <time>2017-11-29T07:50:01Z</time>
      </trkpt>
      <trkpt lat="45.25486" lon="6.00431">
        <ele>1449.4520263672</ele>
        <time>2017-11-29T07:50:05Z</time>
      </trkpt>
      <trkpt lat="45.25485" lon="6.00437">
        <ele>1453.4520263672</ele>
        <time>2017-11-29T07:50:08Z</time>
      </trkpt>
      <trkpt lat="45.25484" lon="6.00444">
        <ele>1458.4520263672</ele>
        <time>2017-11-29T07:50:13Z</time>
      </trkpt>
      <trkpt lat="45.2548" lon="6.00448">
        <ele>1450.4520263672</ele>
        <time>2017-11-29T07:50:20Z</time>
      </trkpt>
      <trkpt lat="45.25477" lon="6.00453">
        <ele>1447.4520263672</ele>
        <time>2017-11-29T07:50:25Z</time>
      </trkpt>
      <trkpt lat="45.25475" lon="6.00459">
        <ele>1450.4520263672</ele>
        <time>2017-11-29T07:50:30Z</time>
      </trkpt>
      <trkpt lat="45.25472" lon="6.00465">
        <ele>1450.4520263672</ele>
        <time>2017-11-29T07:50:35Z</time>
      </trkpt>
      <trkpt lat="45.2547" lon="6.00472">
        <ele>1451.4520263672</ele>
        <time>2017-11-29T07:50:40Z</time>
      </trkpt>
      <trkpt lat="45.25468" lon="6.00479">
        <ele>1453.4520263672</ele>
        <time>2017-11-29T07:50:46Z</time>
      </trkpt>
      <trkpt lat="45.25465" lon="6.00484">
        <ele>1454.4520263672</ele>
        <time>2017-11-29T07:50:50Z</time>
      </trkpt>
      <trkpt lat="45.25462" lon="6.00491">
        <ele>1454.4520263672</ele>
        <time>2017-11-29T07:50:55Z</time>
      </trkpt>
      <trkpt lat="45.25459" lon="6.00497">
        <ele>1455.4520263672</ele>
        <time>2017-11-29T07:51:00Z</time>
      </trkpt>
      <trkpt lat="45.25455" lon="6.00503">
        <ele>1456.4520263672</ele>
        <time>2017-11-29T07:51:04Z</time>
      </trkpt>
      <trkpt lat="45.25452" lon="6.00508">
        <ele>1456.4520263672</ele>
        <time>2017-11-29T07:51:09Z</time>
      </trkpt>
      <trkpt lat="45.25448" lon="6.00513">
        <ele>1457.4520263672</ele>
        <time>2017-11-29T07:51:13Z</time>
      </trkpt>
      <trkpt lat="45.25444" lon="6.00518">
        <ele>1457.4520263672</ele>
        <time>2017-11-29T07:51:17Z</time>
      </trkpt>
      <trkpt lat="45.25441" lon="6.00523">
        <ele>1459.4520263672</ele>
        <time>2017-11-29T07:51:21Z</time>
      </trkpt>
      <trkpt lat="45.25438" lon="6.00529">
        <ele>1459.4520263672</ele>
        <time>2017-11-29T07:51:25Z</time>
      </trkpt>
      <trkpt lat="45.25434" lon="6.00534">
        <ele>1460.4520263672</ele>
        <time>2017-11-29T07:51:34Z</time>
      </trkpt>
      <trkpt lat="45.25429" lon="6.00539">
        <ele>1460.4520263672</ele>
        <time>2017-11-29T07:51:39Z</time>
      </trkpt>
      <trkpt lat="45.25426" lon="6.00544">
        <ele>1461.4520263672</ele>
        <time>2017-11-29T07:51:43Z</time>
      </trkpt>
      <trkpt lat="45.25422" lon="6.00548">
        <ele>1461.4520263672</ele>
        <time>2017-11-29T07:51:47Z</time>
      </trkpt>
      <trkpt lat="45.25419" lon="6.00554">
        <ele>1462.4520263672</ele>
        <time>2017-11-29T07:51:51Z</time>
      </trkpt>
      <trkpt lat="45.25415" lon="6.00558">
        <ele>1462.4520263672</ele>
        <time>2017-11-29T07:51:55Z</time>
      </trkpt>
      <trkpt lat="45.2541" lon="6.00561">
        <ele>1461.4520263672</ele>
        <time>2017-11-29T07:51:59Z</time>
      </trkpt>
      <trkpt lat="45.25407" lon="6.00566">
        <ele>1461.4520263672</ele>
        <time>2017-11-29T07:52:03Z</time>
      </trkpt>
      <trkpt lat="45.25403" lon="6.00571">
        <ele>1464.4520263672</ele>
        <time>2017-11-29T07:52:07Z</time>
      </trkpt>
      <trkpt lat="45.25399" lon="6.00574">
        <ele>1464.4520263672</ele>
        <time>2017-11-29T07:52:10Z</time>
      </trkpt>
      <trkpt lat="45.25395" lon="6.00579">
        <ele>1465.4520263672</ele>
        <time>2017-11-29T07:52:14Z</time>
      </trkpt>
      <trkpt lat="45.25392" lon="6.00584">
        <ele>1464.4520263672</ele>
        <time>2017-11-29T07:52:18Z</time>
      </trkpt>
      <trkpt lat="45.25386" lon="6.00587">
        <ele>1463.4520263672</ele>
        <time>2017-11-29T07:52:22Z</time>
      </trkpt>
      <trkpt lat="45.25382" lon="6.00593">
        <ele>1465.4520263672</ele>
        <time>2017-11-29T07:52:26Z</time>
      </trkpt>
      <trkpt lat="45.25378" lon="6.00598">
        <ele>1464.4520263672</ele>
        <time>2017-11-29T07:52:30Z</time>
      </trkpt>
      <trkpt lat="45.25374" lon="6.00602">
        <ele>1465.4520263672</ele>
        <time>2017-11-29T07:52:34Z</time>
      </trkpt>
      <trkpt lat="45.25371" lon="6.00607">
        <ele>1465.4520263672</ele>
        <time>2017-11-29T07:52:38Z</time>
      </trkpt>
      <trkpt lat="45.25365" lon="6.00612">
        <ele>1465.4520263672</ele>
        <time>2017-11-29T07:52:43Z</time>
      </trkpt>
      <trkpt lat="45.25362" lon="6.00617">
        <ele>1468.4520263672</ele>
        <time>2017-11-29T07:52:48Z</time>
      </trkpt>
      <trkpt lat="45.25356" lon="6.0062">
        <ele>1467.4520263672</ele>
        <time>2017-11-29T07:52:52Z</time>
      </trkpt>
      <trkpt lat="45.25353" lon="6.00624">
        <ele>1470.4520263672</ele>
        <time>2017-11-29T07:52:56Z</time>
      </trkpt>
      <trkpt lat="45.2535" lon="6.0063">
        <ele>1473.4520263672</ele>
        <time>2017-11-29T07:53:00Z</time>
      </trkpt>
      <trkpt lat="45.25345" lon="6.00634">
        <ele>1474.4520263672</ele>
        <time>2017-11-29T07:53:04Z</time>
      </trkpt>
      <trkpt lat="45.2534" lon="6.00637">
        <ele>1474.4520263672</ele>
        <time>2017-11-29T07:53:08Z</time>
      </trkpt>
      <trkpt lat="45.25337" lon="6.00642">
        <ele>1475.4520263672</ele>
        <time>2017-11-29T07:53:12Z</time>
      </trkpt>
      <trkpt lat="45.25332" lon="6.00646">
        <ele>1474.4520263672</ele>
        <time>2017-11-29T07:53:15Z</time>
      </trkpt>
      <trkpt lat="45.25329" lon="6.0065">
        <ele>1474.4520263672</ele>
        <time>2017-11-29T07:53:19Z</time>
      </trkpt>
      <trkpt lat="45.25324" lon="6.00657">
        <ele>1475.4520263672</ele>
        <time>2017-11-29T07:53:23Z</time>
      </trkpt>
      <trkpt lat="45.2532" lon="6.00662">
        <ele>1476.4520263672</ele>
        <time>2017-11-29T07:53:28Z</time>
      </trkpt>
      <trkpt lat="45.25315" lon="6.00665">
        <ele>1475.4520263672</ele>
        <time>2017-11-29T07:53:32Z</time>
      </trkpt>
      <trkpt lat="45.25311" lon="6.00669">
        <ele>1476.4520263672</ele>
        <time>2017-11-29T07:53:37Z</time>
      </trkpt>
      <trkpt lat="45.25305" lon="6.00671">
        <ele>1474.4520263672</ele>
        <time>2017-11-29T07:53:41Z</time>
      </trkpt>
      <trkpt lat="45.25302" lon="6.00677">
        <ele>1475.4520263672</ele>
        <time>2017-11-29T07:53:45Z</time>
      </trkpt>
      <trkpt lat="45.25298" lon="6.00681">
        <ele>1475.4520263672</ele>
        <time>2017-11-29T07:53:49Z</time>
      </trkpt>
      <trkpt lat="45.25293" lon="6.00684">
        <ele>1476.4520263672</ele>
        <time>2017-11-29T07:53:53Z</time>
      </trkpt>
      <trkpt lat="45.25289" lon="6.00691">
        <ele>1478.4520263672</ele>
        <time>2017-11-29T07:53:57Z</time>
      </trkpt>
      <trkpt lat="45.25284" lon="6.00694">
        <ele>1476.4520263672</ele>
        <time>2017-11-29T07:54:02Z</time>
      </trkpt>
      <trkpt lat="45.2528" lon="6.00699">
        <ele>1476.4520263672</ele>
        <time>2017-11-29T07:54:07Z</time>
      </trkpt>
      <trkpt lat="45.25276" lon="6.00704">
        <ele>1476.4520263672</ele>
        <time>2017-11-29T07:54:12Z</time>
      </trkpt>
      <trkpt lat="45.25272" lon="6.00709">
        <ele>1477.4520263672</ele>
        <time>2017-11-29T07:54:17Z</time>
      </trkpt>
      <trkpt lat="45.25269" lon="6.00714">
        <ele>1477.4520263672</ele>
        <time>2017-11-29T07:54:21Z</time>
      </trkpt>
      <trkpt lat="45.25267" lon="6.00721">
        <ele>1480.4520263672</ele>
        <time>2017-11-29T07:54:25Z</time>
      </trkpt>
      <trkpt lat="45.25266" lon="6.00728">
        <ele>1480.4520263672</ele>
        <time>2017-11-29T07:54:29Z</time>
      </trkpt>
      <trkpt lat="45.25262" lon="6.00733">
        <ele>1481.4520263672</ele>
        <time>2017-11-29T07:54:34Z</time>
      </trkpt>
      <trkpt lat="45.25258" lon="6.00736">
        <ele>1481.4520263672</ele>
        <time>2017-11-29T07:54:38Z</time>
      </trkpt>
      <trkpt lat="45.25253" lon="6.00741">
        <ele>1481.4520263672</ele>
        <time>2017-11-29T07:54:43Z</time>
      </trkpt>
      <trkpt lat="45.25246" lon="6.00753">
        <ele>1481.4520263672</ele>
        <time>2017-11-29T07:54:53Z</time>
      </trkpt>
      <trkpt lat="45.25242" lon="6.00759">
        <ele>1480.4520263672</ele>
        <time>2017-11-29T07:54:58Z</time>
      </trkpt>
      <trkpt lat="45.2524" lon="6.00766">
        <ele>1479.4520263672</ele>
        <time>2017-11-29T07:55:03Z</time>
      </trkpt>
      <trkpt lat="45.25238" lon="6.00772">
        <ele>1477.4520263672</ele>
        <time>2017-11-29T07:55:06Z</time>
      </trkpt>
      <trkpt lat="45.25237" lon="6.00779">
        <ele>1477.4520263672</ele>
        <time>2017-11-29T07:55:10Z</time>
      </trkpt>
      <trkpt lat="45.25234" lon="6.00785">
        <ele>1478.4520263672</ele>
        <time>2017-11-29T07:55:14Z</time>
      </trkpt>
      <trkpt lat="45.25232" lon="6.00791">
        <ele>1478.4520263672</ele>
        <time>2017-11-29T07:55:19Z</time>
      </trkpt>
      <trkpt lat="45.25229" lon="6.00796">
        <ele>1476.4520263672</ele>
        <time>2017-11-29T07:55:32Z</time>
      </trkpt>
      <trkpt lat="45.25227" lon="6.00802">
        <ele>1478.4520263672</ele>
        <time>2017-11-29T07:55:36Z</time>
      </trkpt>
      <trkpt lat="45.25225" lon="6.00808">
        <ele>1475.4520263672</ele>
        <time>2017-11-29T07:55:39Z</time>
      </trkpt>
      <trkpt lat="45.25222" lon="6.00814">
        <ele>1476.4520263672</ele>
        <time>2017-11-29T07:55:44Z</time>
      </trkpt>
      <trkpt lat="45.25218" lon="6.00818">
        <ele>1476.4520263672</ele>
        <time>2017-11-29T07:55:48Z</time>
      </trkpt>
      <trkpt lat="45.25216" lon="6.00824">
        <ele>1477.4520263672</ele>
        <time>2017-11-29T07:55:53Z</time>
      </trkpt>
      <trkpt lat="45.25212" lon="6.0083">
        <ele>1477.4520263672</ele>
        <time>2017-11-29T07:55:57Z</time>
      </trkpt>
      <trkpt lat="45.2521" lon="6.00836">
        <ele>1478.4520263672</ele>
        <time>2017-11-29T07:56:02Z</time>
      </trkpt>
      <trkpt lat="45.25206" lon="6.00841">
        <ele>1478.4520263672</ele>
        <time>2017-11-29T07:56:07Z</time>
      </trkpt>
      <trkpt lat="45.25203" lon="6.00846">
        <ele>1479.4520263672</ele>
        <time>2017-11-29T07:56:11Z</time>
      </trkpt>
      <trkpt lat="45.252" lon="6.00851">
        <ele>1481.4520263672</ele>
        <time>2017-11-29T07:56:15Z</time>
      </trkpt>
      <trkpt lat="45.25197" lon="6.00857">
        <ele>1482.4520263672</ele>
        <time>2017-11-29T07:56:20Z</time>
      </trkpt>
      <trkpt lat="45.25194" lon="6.00862">
        <ele>1484.4520263672</ele>
        <time>2017-11-29T07:56:24Z</time>
      </trkpt>
      <trkpt lat="45.25191" lon="6.00867">
        <ele>1485.4520263672</ele>
        <time>2017-11-29T07:56:29Z</time>
      </trkpt>
      <trkpt lat="45.25188" lon="6.00873">
        <ele>1483.4520263672</ele>
        <time>2017-11-29T07:56:35Z</time>
      </trkpt>
      <trkpt lat="45.25184" lon="6.00878">
        <ele>1486.4520263672</ele>
        <time>2017-11-29T07:56:40Z</time>
      </trkpt>
      <trkpt lat="45.2518" lon="6.00885">
        <ele>1805.4520263672</ele>
        <time>2017-11-29T07:56:47Z</time>
      </trkpt>
      <trkpt lat="45.25177" lon="6.00891">
        <ele>1552.4520263672</ele>
        <time>2017-11-29T07:56:54Z</time>
      </trkpt>
      <trkpt lat="45.25175" lon="6.00897">
        <ele>1512.4520263672</ele>
        <time>2017-11-29T07:56:59Z</time>
      </trkpt>
      <trkpt lat="45.25172" lon="6.00902">
        <ele>1504.4520263672</ele>
        <time>2017-11-29T07:57:03Z</time>
      </trkpt>
      <trkpt lat="45.25169" lon="6.00909">
        <ele>1503.4520263672</ele>
        <time>2017-11-29T07:57:09Z</time>
      </trkpt>
      <trkpt lat="45.25166" lon="6.00915">
        <ele>1500.4520263672</ele>
        <time>2017-11-29T07:57:15Z</time>
      </trkpt>
      <trkpt lat="45.25164" lon="6.00921">
        <ele>1501.4520263672</ele>
        <time>2017-11-29T07:57:19Z</time>
      </trkpt>
      <trkpt lat="45.2516" lon="6.00925">
        <ele>1495.4520263672</ele>
        <time>2017-11-29T07:57:23Z</time>
      </trkpt>
      <trkpt lat="45.25156" lon="6.00931">
        <ele>1496.4520263672</ele>
        <time>2017-11-29T07:57:30Z</time>
      </trkpt>
      <trkpt lat="45.25155" lon="6.00938">
        <ele>1499.4520263672</ele>
        <time>2017-11-29T07:57:35Z</time>
      </trkpt>
      <trkpt lat="45.25154" lon="6.00944">
        <ele>1497.4520263672</ele>
        <time>2017-11-29T07:57:39Z</time>
      </trkpt>
      <trkpt lat="45.25153" lon="6.00951">
        <ele>1497.4520263672</ele>
        <time>2017-11-29T07:57:42Z</time>
      </trkpt>
      <trkpt lat="45.25152" lon="6.00959">
        <ele>1497.4520263672</ele>
        <time>2017-11-29T07:57:48Z</time>
      </trkpt>
      <trkpt lat="45.25152" lon="6.00965">
        <ele>1503.4520263672</ele>
        <time>2017-11-29T07:57:53Z</time>
      </trkpt>
      <trkpt lat="45.25151" lon="6.00974">
        <ele>1505.4520263672</ele>
        <time>2017-11-29T07:57:58Z</time>
      </trkpt>
      <trkpt lat="45.25149" lon="6.0098">
        <ele>1505.4520263672</ele>
        <time>2017-11-29T07:58:05Z</time>
      </trkpt>
      <trkpt lat="45.25146" lon="6.00988">
        <ele>1506.4520263672</ele>
        <time>2017-11-29T07:58:09Z</time>
      </trkpt>
      <trkpt lat="45.25144" lon="6.00995">
        <ele>1507.4520263672</ele>
        <time>2017-11-29T07:58:13Z</time>
      </trkpt>
      <trkpt lat="45.25143" lon="6.01002">
        <ele>1509.4520263672</ele>
        <time>2017-11-29T07:58:19Z</time>
      </trkpt>
      <trkpt lat="45.25141" lon="6.01009">
        <ele>1514.4520263672</ele>
        <time>2017-11-29T07:58:28Z</time>
      </trkpt>
      <trkpt lat="45.2514" lon="6.01016">
        <ele>1512.4520263672</ele>
        <time>2017-11-29T07:58:34Z</time>
      </trkpt>
      <trkpt lat="45.25144" lon="6.01019">
        <ele>1516.4520263672</ele>
        <time>2017-11-29T07:58:43Z</time>
      </trkpt>
      <trkpt lat="45.2514" lon="6.01024">
        <ele>1513.4520263672</ele>
        <time>2017-11-29T07:59:06Z</time>
      </trkpt>
      <trkpt lat="45.25138" lon="6.0103">
        <ele>1514.4520263672</ele>
        <time>2017-11-29T07:59:10Z</time>
      </trkpt>
      <trkpt lat="45.25137" lon="6.01038">
        <ele>1516.4520263672</ele>
        <time>2017-11-29T07:59:16Z</time>
      </trkpt>
      <trkpt lat="45.25133" lon="6.01044">
        <ele>1521.4520263672</ele>
        <time>2017-11-29T08:00:45Z</time>
      </trkpt>
      <trkpt lat="45.2513" lon="6.0105">
        <ele>1519.4520263672</ele>
        <time>2017-11-29T08:00:52Z</time>
      </trkpt>
      <trkpt lat="45.25129" lon="6.01057">
        <ele>1524.4520263672</ele>
        <time>2017-11-29T08:00:59Z</time>
      </trkpt>
      <trkpt lat="45.25127" lon="6.01064">
        <ele>1518.4520263672</ele>
        <time>2017-11-29T08:01:05Z</time>
      </trkpt>
      <trkpt lat="45.25124" lon="6.0107">
        <ele>1522.4520263672</ele>
        <time>2017-11-29T08:01:12Z</time>
      </trkpt>
      <trkpt lat="45.25121" lon="6.01074">
        <ele>1526.4520263672</ele>
        <time>2017-11-29T08:01:20Z</time>
      </trkpt>
      <trkpt lat="45.25117" lon="6.01078">
        <ele>1525.4520263672</ele>
        <time>2017-11-29T08:01:22Z</time>
      </trkpt>
      <trkpt lat="45.25112" lon="6.01075">
        <ele>1527.4520263672</ele>
        <time>2017-11-29T08:01:32Z</time>
      </trkpt>
      <trkpt lat="45.25107" lon="6.01076">
        <ele>1527.4520263672</ele>
        <time>2017-11-29T08:01:37Z</time>
      </trkpt>
      <trkpt lat="45.25102" lon="6.01075">
        <ele>1527.4520263672</ele>
        <time>2017-11-29T08:01:43Z</time>
      </trkpt>
      <trkpt lat="45.25097" lon="6.01073">
        <ele>1530.4520263672</ele>
        <time>2017-11-29T08:01:49Z</time>
      </trkpt>
      <trkpt lat="45.25093" lon="6.01072">
        <ele>1528.4520263672</ele>
        <time>2017-11-29T08:01:54Z</time>
      </trkpt>
      <trkpt lat="45.25088" lon="6.01074">
        <ele>1527.4520263672</ele>
        <time>2017-11-29T08:02:00Z</time>
      </trkpt>
      <trkpt lat="45.25083" lon="6.01077">
        <ele>1530.4520263672</ele>
        <time>2017-11-29T08:02:07Z</time>
      </trkpt>
      <trkpt lat="45.25082" lon="6.01084">
        <ele>1534.4520263672</ele>
        <time>2017-11-29T08:02:17Z</time>
      </trkpt>
      <trkpt lat="45.2508" lon="6.0109">
        <ele>1536.4520263672</ele>
        <time>2017-11-29T08:02:22Z</time>
      </trkpt>
      <trkpt lat="45.25077" lon="6.01095">
        <ele>1541.4520263672</ele>
        <time>2017-11-29T08:02:28Z</time>
      </trkpt>
      <trkpt lat="45.25074" lon="6.01101">
        <ele>1542.4520263672</ele>
        <time>2017-11-29T08:02:34Z</time>
      </trkpt>
      <trkpt lat="45.2507" lon="6.01105">
        <ele>1543.4520263672</ele>
        <time>2017-11-29T08:02:41Z</time>
      </trkpt>
      <trkpt lat="45.25068" lon="6.01112">
        <ele>1548.4520263672</ele>
        <time>2017-11-29T08:02:48Z</time>
      </trkpt>
      <trkpt lat="45.25064" lon="6.01118">
        <ele>1549.4520263672</ele>
        <time>2017-11-29T08:02:54Z</time>
      </trkpt>
      <trkpt lat="45.25061" lon="6.01122">
        <ele>1550.4520263672</ele>
        <time>2017-11-29T08:03:01Z</time>
      </trkpt>
      <trkpt lat="45.25058" lon="6.01128">
        <ele>1553.4520263672</ele>
        <time>2017-11-29T08:03:08Z</time>
      </trkpt>
      <trkpt lat="45.25054" lon="6.01133">
        <ele>1554.4520263672</ele>
        <time>2017-11-29T08:03:15Z</time>
      </trkpt>
      <trkpt lat="45.25049" lon="6.01135">
        <ele>1556.4520263672</ele>
        <time>2017-11-29T08:03:21Z</time>
      </trkpt>
      <trkpt lat="45.25043" lon="6.01135">
        <ele>1559.4520263672</ele>
        <time>2017-11-29T08:03:29Z</time>
      </trkpt>
      <trkpt lat="45.25038" lon="6.01134">
        <ele>1562.4520263672</ele>
        <time>2017-11-29T08:03:35Z</time>
      </trkpt>
      <trkpt lat="45.25033" lon="6.01136">
        <ele>1563.4520263672</ele>
        <time>2017-11-29T08:03:44Z</time>
      </trkpt>
      <trkpt lat="45.25028" lon="6.01136">
        <ele>1565.4520263672</ele>
        <time>2017-11-29T08:03:51Z</time>
      </trkpt>
      <trkpt lat="45.25023" lon="6.01135">
        <ele>1570.4520263672</ele>
        <time>2017-11-29T08:03:59Z</time>
      </trkpt>
      <trkpt lat="45.25019" lon="6.01136">
        <ele>1571.4520263672</ele>
        <time>2017-11-29T08:04:07Z</time>
      </trkpt>
      <trkpt lat="45.25014" lon="6.01135">
        <ele>1571.4520263672</ele>
        <time>2017-11-29T08:04:14Z</time>
      </trkpt>
      <trkpt lat="45.25009" lon="6.01135">
        <ele>1573.4520263672</ele>
        <time>2017-11-29T08:04:20Z</time>
      </trkpt>
      <trkpt lat="45.25004" lon="6.01136">
        <ele>1572.4520263672</ele>
        <time>2017-11-29T08:04:27Z</time>
      </trkpt>
      <trkpt lat="45.25" lon="6.01138">
        <ele>1573.4520263672</ele>
        <time>2017-11-29T08:04:32Z</time>
      </trkpt>
      <trkpt lat="45.24996" lon="6.01141">
        <ele>1574.4520263672</ele>
        <time>2017-11-29T08:04:38Z</time>
      </trkpt>
      <trkpt lat="45.2499" lon="6.01144">
        <ele>1574.4520263672</ele>
        <time>2017-11-29T08:04:46Z</time>
      </trkpt>
      <trkpt lat="45.24986" lon="6.01147">
        <ele>1577.4520263672</ele>
        <time>2017-11-29T08:04:53Z</time>
      </trkpt>
      <trkpt lat="45.24982" lon="6.01151">
        <ele>1579.4520263672</ele>
        <time>2017-11-29T08:05:01Z</time>
      </trkpt>
      <trkpt lat="45.2498" lon="6.01157">
        <ele>1582.4520263672</ele>
        <time>2017-11-29T08:05:09Z</time>
      </trkpt>
      <trkpt lat="45.24979" lon="6.01163">
        <ele>1584.4520263672</ele>
        <time>2017-11-29T08:05:15Z</time>
      </trkpt>
      <trkpt lat="45.24976" lon="6.01168">
        <ele>1584.4520263672</ele>
        <time>2017-11-29T08:05:24Z</time>
      </trkpt>
      <trkpt lat="45.24971" lon="6.01166">
        <ele>1584.4520263672</ele>
        <time>2017-11-29T08:05:32Z</time>
      </trkpt>
      <trkpt lat="45.24967" lon="6.01168">
        <ele>1585.4520263672</ele>
        <time>2017-11-29T08:05:42Z</time>
      </trkpt>
      <trkpt lat="45.24962" lon="6.0117">
        <ele>1587.4520263672</ele>
        <time>2017-11-29T08:05:51Z</time>
      </trkpt>
      <trkpt lat="45.24961" lon="6.01176">
        <ele>1588.4520263672</ele>
        <time>2017-11-29T08:06:00Z</time>
      </trkpt>
      <trkpt lat="45.2496" lon="6.01183">
        <ele>1590.4520263672</ele>
        <time>2017-11-29T08:06:07Z</time>
      </trkpt>
      <trkpt lat="45.2496" lon="6.01189">
        <ele>1594.4520263672</ele>
        <time>2017-11-29T08:06:16Z</time>
      </trkpt>
      <trkpt lat="45.2496" lon="6.01196">
        <ele>1598.4520263672</ele>
        <time>2017-11-29T08:06:23Z</time>
      </trkpt>
      <trkpt lat="45.24956" lon="6.012">
        <ele>1596.4520263672</ele>
        <time>2017-11-29T08:06:31Z</time>
      </trkpt>
      <trkpt lat="45.24951" lon="6.01203">
        <ele>1596.4520263672</ele>
        <time>2017-11-29T08:06:39Z</time>
      </trkpt>
      <trkpt lat="45.24951" lon="6.0121">
        <ele>1600.4520263672</ele>
        <time>2017-11-29T08:06:48Z</time>
      </trkpt>
      <trkpt lat="45.24953" lon="6.01216">
        <ele>1602.4520263672</ele>
        <time>2017-11-29T08:06:56Z</time>
      </trkpt>
      <trkpt lat="45.24954" lon="6.01222">
        <ele>1605.4520263672</ele>
        <time>2017-11-29T08:07:03Z</time>
      </trkpt>
      <trkpt lat="45.24955" lon="6.01229">
        <ele>1603.4520263672</ele>
        <time>2017-11-29T08:07:12Z</time>
      </trkpt>
      <trkpt lat="45.24952" lon="6.01234">
        <ele>1606.4520263672</ele>
        <time>2017-11-29T08:07:20Z</time>
      </trkpt>
      <trkpt lat="45.2495" lon="6.0124">
        <ele>1606.4520263672</ele>
        <time>2017-11-29T08:07:28Z</time>
      </trkpt>
      <trkpt lat="45.24953" lon="6.01246">
        <ele>1607.4520263672</ele>
        <time>2017-11-29T08:07:34Z</time>
      </trkpt>
      <trkpt lat="45.24954" lon="6.01252">
        <ele>1607.4520263672</ele>
        <time>2017-11-29T08:07:40Z</time>
      </trkpt>
      <trkpt lat="45.24957" lon="6.01258">
        <ele>1610.4520263672</ele>
        <time>2017-11-29T08:07:49Z</time>
      </trkpt>
      <trkpt lat="45.2496" lon="6.01263">
        <ele>1612.4520263672</ele>
        <time>2017-11-29T08:07:56Z</time>
      </trkpt>
      <trkpt lat="45.24963" lon="6.01268">
        <ele>1614.4520263672</ele>
        <time>2017-11-29T08:08:03Z</time>
      </trkpt>
      <trkpt lat="45.24967" lon="6.01273">
        <ele>1617.4520263672</ele>
        <time>2017-11-29T08:08:09Z</time>
      </trkpt>
      <trkpt lat="45.24969" lon="6.01279">
        <ele>1619.4520263672</ele>
        <time>2017-11-29T08:08:17Z</time>
      </trkpt>
      <trkpt lat="45.24971" lon="6.01287">
        <ele>1619.4520263672</ele>
        <time>2017-11-29T08:08:26Z</time>
      </trkpt>
      <trkpt lat="45.2497" lon="6.01295">
        <ele>1618.4520263672</ele>
        <time>2017-11-29T08:08:30Z</time>
      </trkpt>
      <trkpt lat="45.24967" lon="6.01301">
        <ele>1618.4520263672</ele>
        <time>2017-11-29T08:08:36Z</time>
      </trkpt>
      <trkpt lat="45.2497" lon="6.01308">
        <ele>1620.4520263672</ele>
        <time>2017-11-29T08:08:43Z</time>
      </trkpt>
      <trkpt lat="45.24971" lon="6.01315">
        <ele>1620.4520263672</ele>
        <time>2017-11-29T08:08:51Z</time>
      </trkpt>
      <trkpt lat="45.24976" lon="6.01319">
        <ele>1624.4520263672</ele>
        <time>2017-11-29T08:08:58Z</time>
      </trkpt>
      <trkpt lat="45.24979" lon="6.01324">
        <ele>1625.4520263672</ele>
        <time>2017-11-29T08:09:05Z</time>
      </trkpt>
      <trkpt lat="45.24982" lon="6.01329">
        <ele>1627.4520263672</ele>
        <time>2017-11-29T08:09:11Z</time>
      </trkpt>
      <trkpt lat="45.24987" lon="6.01333">
        <ele>1628.4520263672</ele>
        <time>2017-11-29T08:09:17Z</time>
      </trkpt>
      <trkpt lat="45.24989" lon="6.01339">
        <ele>1630.4520263672</ele>
        <time>2017-11-29T08:09:23Z</time>
      </trkpt>
      <trkpt lat="45.24992" lon="6.01345">
        <ele>1631.4520263672</ele>
        <time>2017-11-29T08:09:30Z</time>
      </trkpt>
      <trkpt lat="45.24997" lon="6.0135">
        <ele>1631.4520263672</ele>
        <time>2017-11-29T08:09:44Z</time>
      </trkpt>
      <trkpt lat="45.24999" lon="6.01357">
        <ele>1633.4520263672</ele>
        <time>2017-11-29T08:09:54Z</time>
      </trkpt>
      <trkpt lat="45.25002" lon="6.01361">
        <ele>1635.4520263672</ele>
        <time>2017-11-29T08:09:59Z</time>
      </trkpt>
      <trkpt lat="45.25005" lon="6.01368">
        <ele>1637.4520263672</ele>
        <time>2017-11-29T08:10:06Z</time>
      </trkpt>
      <trkpt lat="45.25008" lon="6.01374">
        <ele>1638.4520263672</ele>
        <time>2017-11-29T08:10:12Z</time>
      </trkpt>
      <trkpt lat="45.25009" lon="6.01381">
        <ele>1640.4520263672</ele>
        <time>2017-11-29T08:10:19Z</time>
      </trkpt>
      <trkpt lat="45.25011" lon="6.01386">
        <ele>1644.4520263672</ele>
        <time>2017-11-29T08:10:26Z</time>
      </trkpt>
      <trkpt lat="45.25013" lon="6.01392">
        <ele>1645.4520263672</ele>
        <time>2017-11-29T08:10:32Z</time>
      </trkpt>
      <trkpt lat="45.25015" lon="6.01399">
        <ele>1646.4520263672</ele>
        <time>2017-11-29T08:10:38Z</time>
      </trkpt>
      <trkpt lat="45.25017" lon="6.01406">
        <ele>1648.4520263672</ele>
        <time>2017-11-29T08:10:44Z</time>
      </trkpt>
      <trkpt lat="45.25019" lon="6.01412">
        <ele>1649.4520263672</ele>
        <time>2017-11-29T08:10:50Z</time>
      </trkpt>
      <trkpt lat="45.25022" lon="6.01418">
        <ele>1650.4520263672</ele>
        <time>2017-11-29T08:10:57Z</time>
      </trkpt>
      <trkpt lat="45.25024" lon="6.01425">
        <ele>1649.4520263672</ele>
        <time>2017-11-29T08:11:03Z</time>
      </trkpt>
      <trkpt lat="45.25026" lon="6.01431">
        <ele>1652.4520263672</ele>
        <time>2017-11-29T08:11:09Z</time>
      </trkpt>
      <trkpt lat="45.25028" lon="6.01437">
        <ele>1653.4520263672</ele>
        <time>2017-11-29T08:11:15Z</time>
      </trkpt>
      <trkpt lat="45.2503" lon="6.01443">
        <ele>1654.4520263672</ele>
        <time>2017-11-29T08:11:20Z</time>
      </trkpt>
      <trkpt lat="45.25031" lon="6.0145">
        <ele>1655.4520263672</ele>
        <time>2017-11-29T08:11:25Z</time>
      </trkpt>
      <trkpt lat="45.25032" lon="6.01456">
        <ele>1655.4520263672</ele>
        <time>2017-11-29T08:11:30Z</time>
      </trkpt>
      <trkpt lat="45.25036" lon="6.01462">
        <ele>1659.4520263672</ele>
        <time>2017-11-29T08:11:36Z</time>
      </trkpt>
      <trkpt lat="45.25038" lon="6.01468">
        <ele>1660.4520263672</ele>
        <time>2017-11-29T08:11:42Z</time>
      </trkpt>
      <trkpt lat="45.25041" lon="6.01473">
        <ele>1662.4520263672</ele>
        <time>2017-11-29T08:11:48Z</time>
      </trkpt>
      <trkpt lat="45.25042" lon="6.0148">
        <ele>1661.4520263672</ele>
        <time>2017-11-29T08:11:54Z</time>
      </trkpt>
      <trkpt lat="45.25045" lon="6.01485">
        <ele>1660.4520263672</ele>
        <time>2017-11-29T08:12:00Z</time>
      </trkpt>
      <trkpt lat="45.25048" lon="6.01491">
        <ele>1661.4520263672</ele>
        <time>2017-11-29T08:12:07Z</time>
      </trkpt>
      <trkpt lat="45.25051" lon="6.01496">
        <ele>1663.4520263672</ele>
        <time>2017-11-29T08:12:13Z</time>
      </trkpt>
      <trkpt lat="45.25052" lon="6.01502">
        <ele>1664.4520263672</ele>
        <time>2017-11-29T08:12:19Z</time>
      </trkpt>
      <trkpt lat="45.25055" lon="6.01508">
        <ele>1665.4520263672</ele>
        <time>2017-11-29T08:12:25Z</time>
      </trkpt>
      <trkpt lat="45.25057" lon="6.01514">
        <ele>1667.4520263672</ele>
        <time>2017-11-29T08:12:32Z</time>
      </trkpt>
      <trkpt lat="45.25058" lon="6.0152">
        <ele>1668.4520263672</ele>
        <time>2017-11-29T08:12:38Z</time>
      </trkpt>
      <trkpt lat="45.25059" lon="6.01527">
        <ele>1669.4520263672</ele>
        <time>2017-11-29T08:12:45Z</time>
      </trkpt>
      <trkpt lat="45.2506" lon="6.01534">
        <ele>1673.4520263672</ele>
        <time>2017-11-29T08:12:51Z</time>
      </trkpt>
      <trkpt lat="45.25061" lon="6.01541">
        <ele>1673.4520263672</ele>
        <time>2017-11-29T08:12:57Z</time>
      </trkpt>
      <trkpt lat="45.25061" lon="6.01548">
        <ele>1675.4520263672</ele>
        <time>2017-11-29T08:13:04Z</time>
      </trkpt>
      <trkpt lat="45.25061" lon="6.01555">
        <ele>1677.4520263672</ele>
        <time>2017-11-29T08:13:10Z</time>
      </trkpt>
      <trkpt lat="45.25062" lon="6.01561">
        <ele>1679.4520263672</ele>
        <time>2017-11-29T08:13:16Z</time>
      </trkpt>
      <trkpt lat="45.25062" lon="6.01569">
        <ele>1680.4520263672</ele>
        <time>2017-11-29T08:13:23Z</time>
      </trkpt>
      <trkpt lat="45.25062" lon="6.01575">
        <ele>1679.4520263672</ele>
        <time>2017-11-29T08:13:30Z</time>
      </trkpt>
      <trkpt lat="45.25064" lon="6.01582">
        <ele>1681.4520263672</ele>
        <time>2017-11-29T08:13:36Z</time>
      </trkpt>
      <trkpt lat="45.25065" lon="6.01589">
        <ele>1683.4520263672</ele>
        <time>2017-11-29T08:13:43Z</time>
      </trkpt>
      <trkpt lat="45.25066" lon="6.01596">
        <ele>1684.4520263672</ele>
        <time>2017-11-29T08:13:50Z</time>
      </trkpt>
      <trkpt lat="45.25067" lon="6.01604">
        <ele>1683.4520263672</ele>
        <time>2017-11-29T08:14:08Z</time>
      </trkpt>
      <trkpt lat="45.25068" lon="6.01612">
        <ele>1684.4520263672</ele>
        <time>2017-11-29T08:14:16Z</time>
      </trkpt>
      <trkpt lat="45.25069" lon="6.01618">
        <ele>1685.4520263672</ele>
        <time>2017-11-29T08:14:23Z</time>
      </trkpt>
      <trkpt lat="45.2507" lon="6.01625">
        <ele>1687.4520263672</ele>
        <time>2017-11-29T08:14:29Z</time>
      </trkpt>
      <trkpt lat="45.25072" lon="6.01631">
        <ele>1691.4520263672</ele>
        <time>2017-11-29T08:14:36Z</time>
      </trkpt>
      <trkpt lat="45.25074" lon="6.01638">
        <ele>1691.4520263672</ele>
        <time>2017-11-29T08:14:44Z</time>
      </trkpt>
      <trkpt lat="45.25076" lon="6.01645">
        <ele>1694.4520263672</ele>
        <time>2017-11-29T08:14:51Z</time>
      </trkpt>
      <trkpt lat="45.25078" lon="6.01651">
        <ele>1696.4520263672</ele>
        <time>2017-11-29T08:14:58Z</time>
      </trkpt>
      <trkpt lat="45.2508" lon="6.01657">
        <ele>1697.4520263672</ele>
        <time>2017-11-29T08:15:05Z</time>
      </trkpt>
      <trkpt lat="45.25081" lon="6.01664">
        <ele>1699.4520263672</ele>
        <time>2017-11-29T08:15:12Z</time>
      </trkpt>
      <trkpt lat="45.25082" lon="6.01671">
        <ele>1699.4520263672</ele>
        <time>2017-11-29T08:15:20Z</time>
      </trkpt>
      <trkpt lat="45.25085" lon="6.01677">
        <ele>1704.4520263672</ele>
        <time>2017-11-29T08:15:27Z</time>
      </trkpt>
      <trkpt lat="45.25088" lon="6.01682">
        <ele>1705.4520263672</ele>
        <time>2017-11-29T08:15:33Z</time>
      </trkpt>
      <trkpt lat="45.25093" lon="6.01684">
        <ele>1707.4530029297</ele>
        <time>2017-11-29T08:15:39Z</time>
      </trkpt>
      <trkpt lat="45.25096" lon="6.01688">
        <ele>1707.4530029297</ele>
        <time>2017-11-29T08:15:45Z</time>
      </trkpt>
      <trkpt lat="45.25101" lon="6.01692">
        <ele>1706.4530029297</ele>
        <time>2017-11-29T08:15:53Z</time>
      </trkpt>
      <trkpt lat="45.25105" lon="6.01698">
        <ele>1706.4530029297</ele>
        <time>2017-11-29T08:16:00Z</time>
      </trkpt>
      <trkpt lat="45.25109" lon="6.01701">
        <ele>1708.4530029297</ele>
        <time>2017-11-29T08:16:05Z</time>
      </trkpt>
      <trkpt lat="45.25112" lon="6.01706">
        <ele>1710.4530029297</ele>
        <time>2017-11-29T08:16:11Z</time>
      </trkpt>
      <trkpt lat="45.25114" lon="6.01712">
        <ele>1710.4530029297</ele>
        <time>2017-11-29T08:16:17Z</time>
      </trkpt>
      <trkpt lat="45.25116" lon="6.01719">
        <ele>1710.4530029297</ele>
        <time>2017-11-29T08:16:25Z</time>
      </trkpt>
      <trkpt lat="45.25118" lon="6.01725">
        <ele>1711.4530029297</ele>
        <time>2017-11-29T08:16:30Z</time>
      </trkpt>
      <trkpt lat="45.2512" lon="6.01731">
        <ele>1713.4530029297</ele>
        <time>2017-11-29T08:16:36Z</time>
      </trkpt>
      <trkpt lat="45.25122" lon="6.01737">
        <ele>1715.4530029297</ele>
        <time>2017-11-29T08:16:42Z</time>
      </trkpt>
      <trkpt lat="45.25124" lon="6.01744">
        <ele>1717.4530029297</ele>
        <time>2017-11-29T08:16:49Z</time>
      </trkpt>
      <trkpt lat="45.25125" lon="6.0175">
        <ele>1718.4530029297</ele>
        <time>2017-11-29T08:16:56Z</time>
      </trkpt>
      <trkpt lat="45.25125" lon="6.01757">
        <ele>1720.4530029297</ele>
        <time>2017-11-29T08:17:02Z</time>
      </trkpt>
      <trkpt lat="45.25127" lon="6.01764">
        <ele>1721.4530029297</ele>
        <time>2017-11-29T08:17:09Z</time>
      </trkpt>
      <trkpt lat="45.25127" lon="6.0177">
        <ele>1806.4530029297</ele>
        <time>2017-11-29T08:17:15Z</time>
      </trkpt>
      <trkpt lat="45.25129" lon="6.01778">
        <ele>1700.4530029297</ele>
        <time>2017-11-29T08:17:22Z</time>
      </trkpt>
      <trkpt lat="45.25128" lon="6.01784">
        <ele>1718.4530029297</ele>
        <time>2017-11-29T08:17:28Z</time>
      </trkpt>
      <trkpt lat="45.25128" lon="6.01791">
        <ele>1724.4530029297</ele>
        <time>2017-11-29T08:17:36Z</time>
      </trkpt>
      <trkpt lat="45.25128" lon="6.01799">
        <ele>1727.4530029297</ele>
        <time>2017-11-29T08:17:43Z</time>
      </trkpt>
      <trkpt lat="45.25126" lon="6.01805">
        <ele>1727.4530029297</ele>
        <time>2017-11-29T08:17:48Z</time>
      </trkpt>
      <trkpt lat="45.25123" lon="6.01812">
        <ele>1726.4530029297</ele>
        <time>2017-11-29T08:17:53Z</time>
      </trkpt>
      <trkpt lat="45.25121" lon="6.01818">
        <ele>1767.4530029297</ele>
        <time>2017-11-29T08:18:06Z</time>
      </trkpt>
      <trkpt lat="45.2512" lon="6.01825">
        <ele>1750.4530029297</ele>
        <time>2017-11-29T08:18:16Z</time>
      </trkpt>
      <trkpt lat="45.25117" lon="6.01831">
        <ele>1741.4530029297</ele>
        <time>2017-11-29T08:18:25Z</time>
      </trkpt>
      <trkpt lat="45.25116" lon="6.01837">
        <ele>1742.4530029297</ele>
        <time>2017-11-29T08:18:36Z</time>
      </trkpt>
      <trkpt lat="45.25115" lon="6.01845">
        <ele>1745.4530029297</ele>
        <time>2017-11-29T08:18:44Z</time>
      </trkpt>
      <trkpt lat="45.25113" lon="6.01851">
        <ele>1745.4530029297</ele>
        <time>2017-11-29T08:18:55Z</time>
      </trkpt>
      <trkpt lat="45.25109" lon="6.01854">
        <ele>1743.4530029297</ele>
        <time>2017-11-29T08:19:00Z</time>
      </trkpt>
      <trkpt lat="45.25104" lon="6.01857">
        <ele>1743.4530029297</ele>
        <time>2017-11-29T08:19:06Z</time>
      </trkpt>
      <trkpt lat="45.25099" lon="6.01858">
        <ele>1747.4530029297</ele>
        <time>2017-11-29T08:19:13Z</time>
      </trkpt>
      <trkpt lat="45.25094" lon="6.01859">
        <ele>1748.4530029297</ele>
        <time>2017-11-29T08:19:25Z</time>
      </trkpt>
      <trkpt lat="45.25091" lon="6.01862">
        <ele>1748.4530029297</ele>
        <time>2017-11-29T08:19:32Z</time>
      </trkpt>
      <trkpt lat="45.25087" lon="6.01866">
        <ele>1750.4530029297</ele>
        <time>2017-11-29T08:19:39Z</time>
      </trkpt>
      <trkpt lat="45.25083" lon="6.0187">
        <ele>1754.4530029297</ele>
        <time>2017-11-29T08:19:50Z</time>
      </trkpt>
      <trkpt lat="45.25079" lon="6.01874">
        <ele>1756.4530029297</ele>
        <time>2017-11-29T08:19:57Z</time>
      </trkpt>
      <trkpt lat="45.25075" lon="6.0188">
        <ele>1759.4530029297</ele>
        <time>2017-11-29T08:20:13Z</time>
      </trkpt>
      <trkpt lat="45.25071" lon="6.01884">
        <ele>1758.4530029297</ele>
        <time>2017-11-29T08:20:19Z</time>
      </trkpt>
      <trkpt lat="45.25068" lon="6.01889">
        <ele>1759.4530029297</ele>
        <time>2017-11-29T08:20:27Z</time>
      </trkpt>
      <trkpt lat="45.25065" lon="6.01896">
        <ele>1765.4530029297</ele>
        <time>2017-11-29T08:20:37Z</time>
      </trkpt>
      <trkpt lat="45.25064" lon="6.01903">
        <ele>1763.4530029297</ele>
        <time>2017-11-29T08:20:45Z</time>
      </trkpt>
      <trkpt lat="45.25063" lon="6.01909">
        <ele>1765.4530029297</ele>
        <time>2017-11-29T08:20:51Z</time>
      </trkpt>
      <trkpt lat="45.25063" lon="6.01916">
        <ele>1765.4530029297</ele>
        <time>2017-11-29T08:21:00Z</time>
      </trkpt>
      <trkpt lat="45.25063" lon="6.01923">
        <ele>1770.4530029297</ele>
        <time>2017-11-29T08:21:08Z</time>
      </trkpt>
      <trkpt lat="45.25063" lon="6.0193">
        <ele>1772.4530029297</ele>
        <time>2017-11-29T08:21:15Z</time>
      </trkpt>
      <trkpt lat="45.25066" lon="6.01936">
        <ele>1773.4530029297</ele>
        <time>2017-11-29T08:21:23Z</time>
      </trkpt>
      <trkpt lat="45.25069" lon="6.01942">
        <ele>1774.4530029297</ele>
        <time>2017-11-29T08:21:30Z</time>
      </trkpt>
      <trkpt lat="45.25073" lon="6.01947">
        <ele>1776.4530029297</ele>
        <time>2017-11-29T08:21:39Z</time>
      </trkpt>
      <trkpt lat="45.25076" lon="6.01953">
        <ele>1779.4530029297</ele>
        <time>2017-11-29T08:21:48Z</time>
      </trkpt>
      <trkpt lat="45.2508" lon="6.01957">
        <ele>1781.4530029297</ele>
        <time>2017-11-29T08:21:55Z</time>
      </trkpt>
      <trkpt lat="45.25083" lon="6.01962">
        <ele>1783.4530029297</ele>
        <time>2017-11-29T08:22:05Z</time>
      </trkpt>
      <trkpt lat="45.25087" lon="6.01967">
        <ele>1783.4530029297</ele>
        <time>2017-11-29T08:22:14Z</time>
      </trkpt>
      <trkpt lat="45.25089" lon="6.01972">
        <ele>1786.4530029297</ele>
        <time>2017-11-29T08:22:26Z</time>
      </trkpt>
      <trkpt lat="45.25086" lon="6.01977">
        <ele>1789.4530029297</ele>
        <time>2017-11-29T08:22:38Z</time>
      </trkpt>
      <trkpt lat="45.25088" lon="6.01983">
        <ele>1792.4530029297</ele>
        <time>2017-11-29T08:22:47Z</time>
      </trkpt>
      <trkpt lat="45.25089" lon="6.0199">
        <ele>1791.4530029297</ele>
        <time>2017-11-29T08:22:54Z</time>
      </trkpt>
      <trkpt lat="45.2509" lon="6.01996">
        <ele>1798.4530029297</ele>
        <time>2017-11-29T08:23:03Z</time>
      </trkpt>
      <trkpt lat="45.2509" lon="6.02003">
        <ele>1800.4530029297</ele>
        <time>2017-11-29T08:23:11Z</time>
      </trkpt>
      <trkpt lat="45.25089" lon="6.0201">
        <ele>1801.4530029297</ele>
        <time>2017-11-29T08:23:21Z</time>
      </trkpt>
      <trkpt lat="45.25088" lon="6.02017">
        <ele>1802.4530029297</ele>
        <time>2017-11-29T08:23:29Z</time>
      </trkpt>
      <trkpt lat="45.25087" lon="6.02024">
        <ele>1804.4530029297</ele>
        <time>2017-11-29T08:23:38Z</time>
      </trkpt>
      <trkpt lat="45.25088" lon="6.02031">
        <ele>1805.4530029297</ele>
        <time>2017-11-29T08:23:47Z</time>
      </trkpt>
      <trkpt lat="45.25091" lon="6.02037">
        <ele>1807.4530029297</ele>
        <time>2017-11-29T08:23:55Z</time>
      </trkpt>
      <trkpt lat="45.25094" lon="6.02042">
        <ele>1809.4530029297</ele>
        <time>2017-11-29T08:24:04Z</time>
      </trkpt>
      <trkpt lat="45.25097" lon="6.02047">
        <ele>1810.4530029297</ele>
        <time>2017-11-29T08:24:14Z</time>
      </trkpt>
      <trkpt lat="45.25101" lon="6.02051">
        <ele>1814.4530029297</ele>
        <time>2017-11-29T08:24:21Z</time>
      </trkpt>
      <trkpt lat="45.25104" lon="6.02057">
        <ele>1815.4530029297</ele>
        <time>2017-11-29T08:24:28Z</time>
      </trkpt>
      <trkpt lat="45.25106" lon="6.02062">
        <ele>1818.4530029297</ele>
        <time>2017-11-29T08:24:36Z</time>
      </trkpt>
      <trkpt lat="45.25108" lon="6.0207">
        <ele>1818.4530029297</ele>
        <time>2017-11-29T08:24:45Z</time>
      </trkpt>
      <trkpt lat="45.2511" lon="6.02076">
        <ele>1820.4530029297</ele>
        <time>2017-11-29T08:24:52Z</time>
      </trkpt>
      <trkpt lat="45.25113" lon="6.02082">
        <ele>1822.4530029297</ele>
        <time>2017-11-29T08:25:00Z</time>
      </trkpt>
      <trkpt lat="45.25116" lon="6.02088">
        <ele>1824.4530029297</ele>
        <time>2017-11-29T08:25:09Z</time>
      </trkpt>
      <trkpt lat="45.25119" lon="6.02095">
        <ele>1824.4530029297</ele>
        <time>2017-11-29T08:25:16Z</time>
      </trkpt>
      <trkpt lat="45.2512" lon="6.02101">
        <ele>1825.4530029297</ele>
        <time>2017-11-29T08:25:23Z</time>
      </trkpt>
      <trkpt lat="45.25122" lon="6.02108">
        <ele>1825.4530029297</ele>
        <time>2017-11-29T08:25:30Z</time>
      </trkpt>
      <trkpt lat="45.25124" lon="6.02115">
        <ele>1827.4530029297</ele>
        <time>2017-11-29T08:25:37Z</time>
      </trkpt>
      <trkpt lat="45.25127" lon="6.0212">
        <ele>1828.4530029297</ele>
        <time>2017-11-29T08:25:45Z</time>
      </trkpt>
      <trkpt lat="45.2513" lon="6.02126">
        <ele>1827.4530029297</ele>
        <time>2017-11-29T08:25:54Z</time>
      </trkpt>
      <trkpt lat="45.25133" lon="6.02131">
        <ele>1829.4530029297</ele>
        <time>2017-11-29T08:25:59Z</time>
      </trkpt>
      <trkpt lat="45.25136" lon="6.02136">
        <ele>1831.4530029297</ele>
        <time>2017-11-29T08:26:07Z</time>
      </trkpt>
      <trkpt lat="45.25139" lon="6.02142">
        <ele>1831.4530029297</ele>
        <time>2017-11-29T08:26:13Z</time>
      </trkpt>
      <trkpt lat="45.25142" lon="6.02146">
        <ele>1834.4530029297</ele>
        <time>2017-11-29T08:26:19Z</time>
      </trkpt>
      <trkpt lat="45.25146" lon="6.0215">
        <ele>1835.4530029297</ele>
        <time>2017-11-29T08:26:25Z</time>
      </trkpt>
      <trkpt lat="45.2515" lon="6.02153">
        <ele>1838.4530029297</ele>
        <time>2017-11-29T08:26:32Z</time>
      </trkpt>
      <trkpt lat="45.25155" lon="6.02157">
        <ele>1840.4530029297</ele>
        <time>2017-11-29T08:26:39Z</time>
      </trkpt>
      <trkpt lat="45.25159" lon="6.02161">
        <ele>1843.4530029297</ele>
        <time>2017-11-29T08:26:47Z</time>
      </trkpt>
      <trkpt lat="45.25163" lon="6.02165">
        <ele>1844.4530029297</ele>
        <time>2017-11-29T08:26:53Z</time>
      </trkpt>
      <trkpt lat="45.25166" lon="6.0217">
        <ele>1844.4530029297</ele>
        <time>2017-11-29T08:26:59Z</time>
      </trkpt>
      <trkpt lat="45.25169" lon="6.02176">
        <ele>1845.4530029297</ele>
        <time>2017-11-29T08:27:06Z</time>
      </trkpt>
      <trkpt lat="45.25172" lon="6.02181">
        <ele>1845.4530029297</ele>
        <time>2017-11-29T08:27:12Z</time>
      </trkpt>
      <trkpt lat="45.25175" lon="6.02187">
        <ele>1846.4530029297</ele>
        <time>2017-11-29T08:27:18Z</time>
      </trkpt>
      <trkpt lat="45.25178" lon="6.02193">
        <ele>1847.4530029297</ele>
        <time>2017-11-29T08:27:24Z</time>
      </trkpt>
      <trkpt lat="45.2518" lon="6.02199">
        <ele>1845.4530029297</ele>
        <time>2017-11-29T08:27:30Z</time>
      </trkpt>
      <trkpt lat="45.25183" lon="6.02206">
        <ele>1847.4530029297</ele>
        <time>2017-11-29T08:27:36Z</time>
      </trkpt>
      <trkpt lat="45.25186" lon="6.0221">
        <ele>1849.4530029297</ele>
        <time>2017-11-29T08:27:42Z</time>
      </trkpt>
      <trkpt lat="45.2519" lon="6.02216">
        <ele>1853.4530029297</ele>
        <time>2017-11-29T08:27:49Z</time>
      </trkpt>
      <trkpt lat="45.25192" lon="6.02222">
        <ele>1852.4530029297</ele>
        <time>2017-11-29T08:27:57Z</time>
      </trkpt>
      <trkpt lat="45.25195" lon="6.02227">
        <ele>1853.4530029297</ele>
        <time>2017-11-29T08:28:03Z</time>
      </trkpt>
      <trkpt lat="45.25199" lon="6.02232">
        <ele>1854.4530029297</ele>
        <time>2017-11-29T08:28:09Z</time>
      </trkpt>
      <trkpt lat="45.25203" lon="6.02235">
        <ele>1856.4530029297</ele>
        <time>2017-11-29T08:28:16Z</time>
      </trkpt>
      <trkpt lat="45.25207" lon="6.0224">
        <ele>1858.4530029297</ele>
        <time>2017-11-29T08:28:23Z</time>
      </trkpt>
      <trkpt lat="45.25211" lon="6.02244">
        <ele>1861.4539794922</ele>
        <time>2017-11-29T08:28:30Z</time>
      </trkpt>
      <trkpt lat="45.25214" lon="6.0225">
        <ele>1860.4539794922</ele>
        <time>2017-11-29T08:28:37Z</time>
      </trkpt>
      <trkpt lat="45.25217" lon="6.02255">
        <ele>1861.4539794922</ele>
        <time>2017-11-29T08:28:42Z</time>
      </trkpt>
      <trkpt lat="45.25221" lon="6.02259">
        <ele>1862.4539794922</ele>
        <time>2017-11-29T08:29:09Z</time>
      </trkpt>
      <trkpt lat="45.25225" lon="6.02263">
        <ele>1864.4539794922</ele>
        <time>2017-11-29T08:29:14Z</time>
      </trkpt>
      <trkpt lat="45.25228" lon="6.02269">
        <ele>1865.4539794922</ele>
        <time>2017-11-29T08:29:19Z</time>
      </trkpt>
      <trkpt lat="45.25232" lon="6.02273">
        <ele>1868.4539794922</ele>
        <time>2017-11-29T08:29:23Z</time>
      </trkpt>
      <trkpt lat="45.25235" lon="6.02277">
        <ele>1871.4539794922</ele>
        <time>2017-11-29T08:29:28Z</time>
      </trkpt>
      <trkpt lat="45.25238" lon="6.02282">
        <ele>1872.4539794922</ele>
        <time>2017-11-29T08:29:33Z</time>
      </trkpt>
      <trkpt lat="45.25242" lon="6.02287">
        <ele>1872.4539794922</ele>
        <time>2017-11-29T08:29:38Z</time>
      </trkpt>
      <trkpt lat="45.25246" lon="6.02291">
        <ele>1875.4539794922</ele>
        <time>2017-11-29T08:29:43Z</time>
      </trkpt>
      <trkpt lat="45.2525" lon="6.02295">
        <ele>1877.4539794922</ele>
        <time>2017-11-29T08:29:49Z</time>
      </trkpt>
      <trkpt lat="45.25253" lon="6.023">
        <ele>1878.4539794922</ele>
        <time>2017-11-29T08:29:55Z</time>
      </trkpt>
      <trkpt lat="45.25256" lon="6.02305">
        <ele>1878.4539794922</ele>
        <time>2017-11-29T08:30:01Z</time>
      </trkpt>
      <trkpt lat="45.2526" lon="6.02311">
        <ele>1879.4539794922</ele>
        <time>2017-11-29T08:30:07Z</time>
      </trkpt>
      <trkpt lat="45.25263" lon="6.02316">
        <ele>1879.4539794922</ele>
        <time>2017-11-29T08:30:14Z</time>
      </trkpt>
      <trkpt lat="45.25265" lon="6.02322">
        <ele>1880.4539794922</ele>
        <time>2017-11-29T08:30:20Z</time>
      </trkpt>
      <trkpt lat="45.25266" lon="6.02328">
        <ele>1879.4539794922</ele>
        <time>2017-11-29T08:30:26Z</time>
      </trkpt>
      <trkpt lat="45.25267" lon="6.02334">
        <ele>1882.4539794922</ele>
        <time>2017-11-29T08:30:32Z</time>
      </trkpt>
      <trkpt lat="45.25269" lon="6.02341">
        <ele>1881.4539794922</ele>
        <time>2017-11-29T08:30:37Z</time>
      </trkpt>
      <trkpt lat="45.2527" lon="6.02349">
        <ele>1882.4539794922</ele>
        <time>2017-11-29T08:30:41Z</time>
      </trkpt>
      <trkpt lat="45.25272" lon="6.02355">
        <ele>1883.4539794922</ele>
        <time>2017-11-29T08:30:45Z</time>
      </trkpt>
      <trkpt lat="45.25274" lon="6.02361">
        <ele>1882.4539794922</ele>
        <time>2017-11-29T08:30:48Z</time>
      </trkpt>
      <trkpt lat="45.25277" lon="6.02368">
        <ele>1882.4539794922</ele>
        <time>2017-11-29T08:30:52Z</time>
      </trkpt>
      <trkpt lat="45.2528" lon="6.02373">
        <ele>1883.4539794922</ele>
        <time>2017-11-29T08:30:55Z</time>
      </trkpt>
      <trkpt lat="45.25284" lon="6.02378">
        <ele>1883.4539794922</ele>
        <time>2017-11-29T08:30:59Z</time>
      </trkpt>
      <trkpt lat="45.25288" lon="6.02382">
        <ele>1883.4539794922</ele>
        <time>2017-11-29T08:31:03Z</time>
      </trkpt>
      <trkpt lat="45.25293" lon="6.02385">
        <ele>1884.4539794922</ele>
        <time>2017-11-29T08:31:06Z</time>
      </trkpt>
      <trkpt lat="45.25299" lon="6.02387">
        <ele>1884.4539794922</ele>
        <time>2017-11-29T08:31:09Z</time>
      </trkpt>
      <trkpt lat="45.25303" lon="6.0239">
        <ele>1883.4539794922</ele>
        <time>2017-11-29T08:31:12Z</time>
      </trkpt>
      <trkpt lat="45.25308" lon="6.02393">
        <ele>1883.4539794922</ele>
        <time>2017-11-29T08:31:16Z</time>
      </trkpt>
      <trkpt lat="45.25313" lon="6.02395">
        <ele>1884.4539794922</ele>
        <time>2017-11-29T08:31:19Z</time>
      </trkpt>
      <trkpt lat="45.25318" lon="6.02397">
        <ele>1885.4539794922</ele>
        <time>2017-11-29T08:31:23Z</time>
      </trkpt>
      <trkpt lat="45.25323" lon="6.02399">
        <ele>1884.4539794922</ele>
        <time>2017-11-29T08:31:27Z</time>
      </trkpt>
      <trkpt lat="45.25327" lon="6.02402">
        <ele>1885.4539794922</ele>
        <time>2017-11-29T08:31:30Z</time>
      </trkpt>
      <trkpt lat="45.25332" lon="6.02404">
        <ele>1884.4539794922</ele>
        <time>2017-11-29T08:31:34Z</time>
      </trkpt>
      <trkpt lat="45.25337" lon="6.02407">
        <ele>1887.4539794922</ele>
        <time>2017-11-29T08:31:39Z</time>
      </trkpt>
      <trkpt lat="45.25341" lon="6.02411">
        <ele>1887.4539794922</ele>
        <time>2017-11-29T08:31:43Z</time>
      </trkpt>
      <trkpt lat="45.25346" lon="6.02413">
        <ele>1887.4539794922</ele>
        <time>2017-11-29T08:31:47Z</time>
      </trkpt>
      <trkpt lat="45.2535" lon="6.02416">
        <ele>1886.4539794922</ele>
        <time>2017-11-29T08:31:51Z</time>
      </trkpt>
      <trkpt lat="45.25354" lon="6.02419">
        <ele>1885.4539794922</ele>
        <time>2017-11-29T08:31:56Z</time>
      </trkpt>
      <trkpt lat="45.25358" lon="6.02423">
        <ele>1883.4539794922</ele>
        <time>2017-11-29T08:32:00Z</time>
      </trkpt>
      <trkpt lat="45.25363" lon="6.02426">
        <ele>1884.4539794922</ele>
        <time>2017-11-29T08:32:05Z</time>
      </trkpt>
      <trkpt lat="45.25366" lon="6.02433">
        <ele>1884.4539794922</ele>
        <time>2017-11-29T08:32:12Z</time>
      </trkpt>
      <trkpt lat="45.2537" lon="6.02436">
        <ele>1887.4539794922</ele>
        <time>2017-11-29T08:32:19Z</time>
      </trkpt>
      <trkpt lat="45.25374" lon="6.0244">
        <ele>1887.4539794922</ele>
        <time>2017-11-29T08:32:24Z</time>
      </trkpt>
      <trkpt lat="45.25377" lon="6.02445">
        <ele>1887.4539794922</ele>
        <time>2017-11-29T08:32:28Z</time>
      </trkpt>
      <trkpt lat="45.2538" lon="6.02451">
        <ele>1888.4539794922</ele>
        <time>2017-11-29T08:32:33Z</time>
      </trkpt>
      <trkpt lat="45.25381" lon="6.02457">
        <ele>1890.4539794922</ele>
        <time>2017-11-29T08:32:37Z</time>
      </trkpt>
      <trkpt lat="45.25384" lon="6.02465">
        <ele>1892.4539794922</ele>
        <time>2017-11-29T08:32:43Z</time>
      </trkpt>
      <trkpt lat="45.25389" lon="6.0247">
        <ele>1892.4539794922</ele>
        <time>2017-11-29T08:32:47Z</time>
      </trkpt>
      <trkpt lat="45.25394" lon="6.0247">
        <ele>1894.4539794922</ele>
        <time>2017-11-29T08:32:52Z</time>
      </trkpt>
      <trkpt lat="45.25398" lon="6.02472">
        <ele>1895.4539794922</ele>
        <time>2017-11-29T08:32:57Z</time>
      </trkpt>
      <trkpt lat="45.25403" lon="6.02475">
        <ele>1899.4539794922</ele>
        <time>2017-11-29T08:33:03Z</time>
      </trkpt>
      <trkpt lat="45.25408" lon="6.02478">
        <ele>1901.4539794922</ele>
        <time>2017-11-29T08:33:09Z</time>
      </trkpt>
      <trkpt lat="45.2541" lon="6.02484">
        <ele>1903.4539794922</ele>
        <time>2017-11-29T08:33:16Z</time>
      </trkpt>
      <trkpt lat="45.25409" lon="6.0249">
        <ele>1905.4539794922</ele>
        <time>2017-11-29T08:33:21Z</time>
      </trkpt>
      <trkpt lat="45.25405" lon="6.02495">
        <ele>1907.4539794922</ele>
        <time>2017-11-29T08:33:27Z</time>
      </trkpt>
      <trkpt lat="45.25402" lon="6.02501">
        <ele>1909.4539794922</ele>
        <time>2017-11-29T08:33:33Z</time>
      </trkpt>
      <trkpt lat="45.25402" lon="6.0251">
        <ele>1911.4539794922</ele>
        <time>2017-11-29T08:33:39Z</time>
      </trkpt>
      <trkpt lat="45.25402" lon="6.02517">
        <ele>1913.4539794922</ele>
        <time>2017-11-29T08:33:45Z</time>
      </trkpt>
      <trkpt lat="45.25401" lon="6.02523">
        <ele>1913.4539794922</ele>
        <time>2017-11-29T08:33:49Z</time>
      </trkpt>
      <trkpt lat="45.25398" lon="6.02529">
        <ele>1912.4539794922</ele>
        <time>2017-11-29T08:33:56Z</time>
      </trkpt>
      <trkpt lat="45.25395" lon="6.02536">
        <ele>1914.4539794922</ele>
        <time>2017-11-29T08:34:02Z</time>
      </trkpt>
      <trkpt lat="45.25391" lon="6.02541">
        <ele>1914.4539794922</ele>
        <time>2017-11-29T08:34:07Z</time>
      </trkpt>
      <trkpt lat="45.25388" lon="6.02546">
        <ele>1917.4539794922</ele>
        <time>2017-11-29T08:34:12Z</time>
      </trkpt>
      <trkpt lat="45.25385" lon="6.02552">
        <ele>1918.4539794922</ele>
        <time>2017-11-29T08:34:18Z</time>
      </trkpt>
      <trkpt lat="45.25382" lon="6.02557">
        <ele>1923.4539794922</ele>
        <time>2017-11-29T08:34:26Z</time>
      </trkpt>
      <trkpt lat="45.2538" lon="6.02563">
        <ele>1926.4539794922</ele>
        <time>2017-11-29T08:34:31Z</time>
      </trkpt>
      <trkpt lat="45.25376" lon="6.02569">
        <ele>1927.4539794922</ele>
        <time>2017-11-29T08:34:37Z</time>
      </trkpt>
      <trkpt lat="45.25374" lon="6.02574">
        <ele>1930.4539794922</ele>
        <time>2017-11-29T08:34:45Z</time>
      </trkpt>
      <trkpt lat="45.25371" lon="6.02581">
        <ele>1930.4539794922</ele>
        <time>2017-11-29T08:34:50Z</time>
      </trkpt>
      <trkpt lat="45.25369" lon="6.02587">
        <ele>1932.4539794922</ele>
        <time>2017-11-29T08:34:55Z</time>
      </trkpt>
      <trkpt lat="45.25367" lon="6.02595">
        <ele>1932.4539794922</ele>
        <time>2017-11-29T08:35:01Z</time>
      </trkpt>
      <trkpt lat="45.25366" lon="6.02601">
        <ele>1931.4539794922</ele>
        <time>2017-11-29T08:35:06Z</time>
      </trkpt>
      <trkpt lat="45.25365" lon="6.02608">
        <ele>1888.4539794922</ele>
        <time>2017-11-29T08:35:11Z</time>
      </trkpt>
      <trkpt lat="45.25364" lon="6.02614">
        <ele>1921.4539794922</ele>
        <time>2017-11-29T08:35:17Z</time>
      </trkpt>
      <trkpt lat="45.25365" lon="6.02621">
        <ele>1930.4539794922</ele>
        <time>2017-11-29T08:35:23Z</time>
      </trkpt>
      <trkpt lat="45.25365" lon="6.02628">
        <ele>1932.4539794922</ele>
        <time>2017-11-29T08:35:29Z</time>
      </trkpt>
      <trkpt lat="45.25364" lon="6.02635">
        <ele>1935.4539794922</ele>
        <time>2017-11-29T08:35:36Z</time>
      </trkpt>
      <trkpt lat="45.25365" lon="6.02642">
        <ele>1936.4539794922</ele>
        <time>2017-11-29T08:35:42Z</time>
      </trkpt>
      <trkpt lat="45.25367" lon="6.02647">
        <ele>1941.4539794922</ele>
        <time>2017-11-29T08:35:48Z</time>
      </trkpt>
      <trkpt lat="45.2537" lon="6.02652">
        <ele>1941.4539794922</ele>
        <time>2017-11-29T08:35:54Z</time>
      </trkpt>
      <trkpt lat="45.25373" lon="6.02657">
        <ele>1943.4539794922</ele>
        <time>2017-11-29T08:36:00Z</time>
      </trkpt>
      <trkpt lat="45.25377" lon="6.02661">
        <ele>1946.4539794922</ele>
        <time>2017-11-29T08:36:07Z</time>
      </trkpt>
      <trkpt lat="45.25382" lon="6.02665">
        <ele>1948.4539794922</ele>
        <time>2017-11-29T08:36:15Z</time>
      </trkpt>
      <trkpt lat="45.25386" lon="6.02667">
        <ele>1950.4539794922</ele>
        <time>2017-11-29T08:36:22Z</time>
      </trkpt>
      <trkpt lat="45.25391" lon="6.02669">
        <ele>1952.4539794922</ele>
        <time>2017-11-29T08:36:28Z</time>
      </trkpt>
      <trkpt lat="45.25395" lon="6.02672">
        <ele>1952.4539794922</ele>
        <time>2017-11-29T08:36:36Z</time>
      </trkpt>
      <trkpt lat="45.254" lon="6.02674">
        <ele>1956.4539794922</ele>
        <time>2017-11-29T08:36:43Z</time>
      </trkpt>
      <trkpt lat="45.25405" lon="6.02677">
        <ele>1958.4539794922</ele>
        <time>2017-11-29T08:36:51Z</time>
      </trkpt>
      <trkpt lat="45.25408" lon="6.02682">
        <ele>1959.4549560547</ele>
        <time>2017-11-29T08:36:57Z</time>
      </trkpt>
      <trkpt lat="45.2541" lon="6.02688">
        <ele>1959.4549560547</ele>
        <time>2017-11-29T08:37:04Z</time>
      </trkpt>
      <trkpt lat="45.25413" lon="6.02694">
        <ele>1962.4549560547</ele>
        <time>2017-11-29T08:37:10Z</time>
      </trkpt>
      <trkpt lat="45.25415" lon="6.027">
        <ele>1966.4549560547</ele>
        <time>2017-11-29T08:37:19Z</time>
      </trkpt>
      <trkpt lat="45.25416" lon="6.02706">
        <ele>1967.4549560547</ele>
        <time>2017-11-29T08:37:26Z</time>
      </trkpt>
      <trkpt lat="45.25419" lon="6.02713">
        <ele>1933.4549560547</ele>
        <time>2017-11-29T08:39:11Z</time>
      </trkpt>
      <trkpt lat="45.25422" lon="6.02718">
        <ele>1958.4549560547</ele>
        <time>2017-11-29T08:39:16Z</time>
      </trkpt>
      <trkpt lat="45.25426" lon="6.02724">
        <ele>1964.4549560547</ele>
        <time>2017-11-29T08:39:21Z</time>
      </trkpt>
      <trkpt lat="45.25428" lon="6.0273">
        <ele>1965.4549560547</ele>
        <time>2017-11-29T08:39:25Z</time>
      </trkpt>
      <trkpt lat="45.25433" lon="6.02734">
        <ele>1967.4549560547</ele>
        <time>2017-11-29T08:39:36Z</time>
      </trkpt>
      <trkpt lat="45.25437" lon="6.02738">
        <ele>1972.4549560547</ele>
        <time>2017-11-29T08:39:42Z</time>
      </trkpt>
      <trkpt lat="45.25439" lon="6.02744">
        <ele>1974.4549560547</ele>
        <time>2017-11-29T08:39:48Z</time>
      </trkpt>
      <trkpt lat="45.25444" lon="6.02747">
        <ele>1975.4549560547</ele>
        <time>2017-11-29T08:39:51Z</time>
      </trkpt>
      <trkpt lat="45.25448" lon="6.02753">
        <ele>1976.4549560547</ele>
        <time>2017-11-29T08:39:56Z</time>
      </trkpt>
      <trkpt lat="45.2545" lon="6.02759">
        <ele>1978.4549560547</ele>
        <time>2017-11-29T08:40:05Z</time>
      </trkpt>
      <trkpt lat="45.25452" lon="6.02766">
        <ele>1975.4549560547</ele>
        <time>2017-11-29T08:40:14Z</time>
      </trkpt>
      <trkpt lat="45.25455" lon="6.02772">
        <ele>1977.4549560547</ele>
        <time>2017-11-29T08:40:21Z</time>
      </trkpt>
      <trkpt lat="45.25457" lon="6.02779">
        <ele>1979.4549560547</ele>
        <time>2017-11-29T08:40:30Z</time>
      </trkpt>
      <trkpt lat="45.2546" lon="6.02786">
        <ele>1983.4549560547</ele>
        <time>2017-11-29T08:40:37Z</time>
      </trkpt>
      <trkpt lat="45.25463" lon="6.02793">
        <ele>1986.4549560547</ele>
        <time>2017-11-29T08:40:49Z</time>
      </trkpt>
      <trkpt lat="45.25467" lon="6.02796">
        <ele>1988.4549560547</ele>
        <time>2017-11-29T08:40:54Z</time>
      </trkpt>
      <trkpt lat="45.2547" lon="6.02804">
        <ele>1987.4549560547</ele>
        <time>2017-11-29T08:41:04Z</time>
      </trkpt>
      <trkpt lat="45.25472" lon="6.02811">
        <ele>1987.4549560547</ele>
        <time>2017-11-29T08:41:10Z</time>
      </trkpt>
      <trkpt lat="45.25475" lon="6.02817">
        <ele>1986.4549560547</ele>
        <time>2017-11-29T08:41:15Z</time>
      </trkpt>
      <trkpt lat="45.25479" lon="6.02821">
        <ele>1990.4549560547</ele>
        <time>2017-11-29T08:41:21Z</time>
      </trkpt>
      <trkpt lat="45.25483" lon="6.02824">
        <ele>1992.4549560547</ele>
        <time>2017-11-29T08:41:27Z</time>
      </trkpt>
      <trkpt lat="45.25486" lon="6.02829">
        <ele>1990.4549560547</ele>
        <time>2017-11-29T08:41:32Z</time>
      </trkpt>
      <trkpt lat="45.25489" lon="6.02835">
        <ele>1992.4549560547</ele>
        <time>2017-11-29T08:41:37Z</time>
      </trkpt>
      <trkpt lat="45.2549" lon="6.02842">
        <ele>1991.4549560547</ele>
        <time>2017-11-29T08:41:47Z</time>
      </trkpt>
      <trkpt lat="45.25494" lon="6.02847">
        <ele>1993.4549560547</ele>
        <time>2017-11-29T08:41:52Z</time>
      </trkpt>
      <trkpt lat="45.25497" lon="6.02852">
        <ele>1996.4549560547</ele>
        <time>2017-11-29T08:42:00Z</time>
      </trkpt>
      <trkpt lat="45.25501" lon="6.02857">
        <ele>1996.4549560547</ele>
        <time>2017-11-29T08:42:09Z</time>
      </trkpt>
      <trkpt lat="45.25505" lon="6.02862">
        <ele>1999.4549560547</ele>
        <time>2017-11-29T08:42:16Z</time>
      </trkpt>
      <trkpt lat="45.25508" lon="6.02866">
        <ele>2004.4549560547</ele>
        <time>2017-11-29T08:42:23Z</time>
      </trkpt>
      <trkpt lat="45.25512" lon="6.02868">
        <ele>2010.4549560547</ele>
        <time>2017-11-29T08:42:31Z</time>
      </trkpt>
      <trkpt lat="45.25515" lon="6.02874">
        <ele>2012.4549560547</ele>
        <time>2017-11-29T08:42:39Z</time>
      </trkpt>
      <trkpt lat="45.25519" lon="6.02878">
        <ele>2014.4549560547</ele>
        <time>2017-11-29T08:42:45Z</time>
      </trkpt>
      <trkpt lat="45.25522" lon="6.02883">
        <ele>2015.4549560547</ele>
        <time>2017-11-29T08:42:57Z</time>
      </trkpt>
      <trkpt lat="45.25526" lon="6.02886">
        <ele>2017.4549560547</ele>
        <time>2017-11-29T08:43:05Z</time>
      </trkpt>
      <trkpt lat="45.25527" lon="6.02892">
        <ele>2020.4549560547</ele>
        <time>2017-11-29T08:43:11Z</time>
      </trkpt>
      <trkpt lat="45.25529" lon="6.02899">
        <ele>2025.4549560547</ele>
        <time>2017-11-29T08:43:19Z</time>
      </trkpt>
      <trkpt lat="45.25532" lon="6.02904">
        <ele>2026.4549560547</ele>
        <time>2017-11-29T08:43:24Z</time>
      </trkpt>
      <trkpt lat="45.25533" lon="6.02912">
        <ele>2027.4549560547</ele>
        <time>2017-11-29T08:43:30Z</time>
      </trkpt>
      <trkpt lat="45.25536" lon="6.02917">
        <ele>2027.4549560547</ele>
        <time>2017-11-29T08:43:33Z</time>
      </trkpt>
      <trkpt lat="45.2554" lon="6.02923">
        <ele>2025.4549560547</ele>
        <time>2017-11-29T08:43:38Z</time>
      </trkpt>
      <trkpt lat="45.2554" lon="6.02929">
        <ele>2027.4549560547</ele>
        <time>2017-11-29T08:43:57Z</time>
      </trkpt>
      <trkpt lat="45.25539" lon="6.02936">
        <ele>2026.4549560547</ele>
        <time>2017-11-29T08:44:01Z</time>
      </trkpt>
      <trkpt lat="45.25539" lon="6.02943">
        <ele>2028.4549560547</ele>
        <time>2017-11-29T08:44:06Z</time>
      </trkpt>
      <trkpt lat="45.25539" lon="6.02949">
        <ele>2027.4549560547</ele>
        <time>2017-11-29T08:44:15Z</time>
      </trkpt>
      <trkpt lat="45.25539" lon="6.02956">
        <ele>2026.4549560547</ele>
        <time>2017-11-29T08:44:23Z</time>
      </trkpt>
      <trkpt lat="45.25537" lon="6.02964">
        <ele>2028.4549560547</ele>
        <time>2017-11-29T08:44:28Z</time>
      </trkpt>
      <trkpt lat="45.25533" lon="6.02967">
        <ele>2030.4549560547</ele>
        <time>2017-11-29T08:44:33Z</time>
      </trkpt>
      <trkpt lat="45.25534" lon="6.02974">
        <ele>2028.4549560547</ele>
        <time>2017-11-29T08:44:41Z</time>
      </trkpt>
      <trkpt lat="45.25534" lon="6.02981">
        <ele>2032.4549560547</ele>
        <time>2017-11-29T08:44:50Z</time>
      </trkpt>
      <trkpt lat="45.25536" lon="6.02987">
        <ele>2036.4549560547</ele>
        <time>2017-11-29T08:45:06Z</time>
      </trkpt>
      <trkpt lat="45.2554" lon="6.02991">
        <ele>2042.4549560547</ele>
        <time>2017-11-29T08:45:14Z</time>
      </trkpt>
      <trkpt lat="45.25544" lon="6.02993">
        <ele>2045.4549560547</ele>
        <time>2017-11-29T08:45:20Z</time>
      </trkpt>
      <trkpt lat="45.25549" lon="6.02994">
        <ele>2051.455078125</ele>
        <time>2017-11-29T08:45:34Z</time>
      </trkpt>
      <trkpt lat="45.25553" lon="6.02996">
        <ele>2053.455078125</ele>
        <time>2017-11-29T08:45:51Z</time>
      </trkpt>
      <trkpt lat="45.25558" lon="6.02996">
        <ele>2055.455078125</ele>
        <time>2017-11-29T08:45:58Z</time>
      </trkpt>
      <trkpt lat="45.2556" lon="6.03002">
        <ele>2054.455078125</ele>
        <time>2017-11-29T08:46:10Z</time>
      </trkpt>
      <trkpt lat="45.25559" lon="6.03009">
        <ele>2052.455078125</ele>
        <time>2017-11-29T08:46:18Z</time>
      </trkpt>
      <trkpt lat="45.25559" lon="6.03017">
        <ele>2053.455078125</ele>
        <time>2017-11-29T08:46:31Z</time>
      </trkpt>
      <trkpt lat="45.25558" lon="6.03024">
        <ele>2053.455078125</ele>
        <time>2017-11-29T08:46:42Z</time>
      </trkpt>
      <trkpt lat="45.25557" lon="6.0303">
        <ele>2055.455078125</ele>
        <time>2017-11-29T08:46:50Z</time>
      </trkpt>
      <trkpt lat="45.25558" lon="6.03037">
        <ele>2056.455078125</ele>
        <time>2017-11-29T08:46:58Z</time>
      </trkpt>
      <trkpt lat="45.25563" lon="6.03036">
        <ele>2063.455078125</ele>
        <time>2017-11-29T08:47:17Z</time>
      </trkpt>
      <trkpt lat="45.25567" lon="6.03037">
        <ele>2067.455078125</ele>
        <time>2017-11-29T08:47:30Z</time>
      </trkpt>
      <trkpt lat="45.25573" lon="6.03037">
        <ele>2069.455078125</ele>
        <time>2017-11-29T08:47:41Z</time>
      </trkpt>
      <trkpt lat="45.25578" lon="6.03038">
        <ele>2071.455078125</ele>
        <time>2017-11-29T08:47:51Z</time>
      </trkpt>
      <trkpt lat="45.25578" lon="6.03044">
        <ele>2075.455078125</ele>
        <time>2017-11-29T08:48:00Z</time>
      </trkpt>
      <trkpt lat="45.25577" lon="6.03052">
        <ele>2074.455078125</ele>
        <time>2017-11-29T08:48:06Z</time>
      </trkpt>
      <trkpt lat="45.2558" lon="6.03058">
        <ele>2077.455078125</ele>
        <time>2017-11-29T08:48:17Z</time>
      </trkpt>
      <trkpt lat="45.25578" lon="6.03064">
        <ele>2081.455078125</ele>
        <time>2017-11-29T08:48:23Z</time>
      </trkpt>
      <trkpt lat="45.25582" lon="6.03068">
        <ele>2082.455078125</ele>
        <time>2017-11-29T08:49:00Z</time>
      </trkpt>
      <trkpt lat="45.25586" lon="6.03068">
        <ele>2081.455078125</ele>
        <time>2017-11-29T08:49:11Z</time>
      </trkpt>
      <trkpt lat="45.2559" lon="6.03072">
        <ele>2080.455078125</ele>
        <time>2017-11-29T08:49:24Z</time>
      </trkpt>
      <trkpt lat="45.25589" lon="6.03078">
        <ele>2080.455078125</ele>
        <time>2017-11-29T08:49:31Z</time>
      </trkpt>
      <trkpt lat="45.25591" lon="6.03085">
        <ele>2084.455078125</ele>
        <time>2017-11-29T08:49:43Z</time>
      </trkpt>
      <trkpt lat="45.25594" lon="6.0309">
        <ele>2088.455078125</ele>
        <time>2017-11-29T08:49:49Z</time>
      </trkpt>
      <trkpt lat="45.25597" lon="6.03095">
        <ele>2091.455078125</ele>
        <time>2017-11-29T08:49:55Z</time>
      </trkpt>
      <trkpt lat="45.256" lon="6.031">
        <ele>2094.455078125</ele>
        <time>2017-11-29T08:50:01Z</time>
      </trkpt>
      <trkpt lat="45.25602" lon="6.03106">
        <ele>2094.455078125</ele>
        <time>2017-11-29T08:50:07Z</time>
      </trkpt>
      <trkpt lat="45.25604" lon="6.03112">
        <ele>2094.455078125</ele>
        <time>2017-11-29T08:50:13Z</time>
      </trkpt>
      <trkpt lat="45.25605" lon="6.0312">
        <ele>2094.455078125</ele>
        <time>2017-11-29T08:50:20Z</time>
      </trkpt>
      <trkpt lat="45.25606" lon="6.03126">
        <ele>2093.4560546875</ele>
        <time>2017-11-29T08:50:31Z</time>
      </trkpt>
      <trkpt lat="45.25606" lon="6.03135">
        <ele>2094.4560546875</ele>
        <time>2017-11-29T08:50:42Z</time>
      </trkpt>
      <trkpt lat="45.25606" lon="6.03141">
        <ele>2095.4560546875</ele>
        <time>2017-11-29T08:50:47Z</time>
      </trkpt>
      <trkpt lat="45.25606" lon="6.03148">
        <ele>2095.4560546875</ele>
        <time>2017-11-29T08:50:51Z</time>
      </trkpt>
      <trkpt lat="45.25605" lon="6.03155">
        <ele>2095.4560546875</ele>
        <time>2017-11-29T08:50:54Z</time>
      </trkpt>
      <trkpt lat="45.25602" lon="6.03164">
        <ele>2093.4560546875</ele>
        <time>2017-11-29T08:50:59Z</time>
      </trkpt>
      <trkpt lat="45.25599" lon="6.03169">
        <ele>2095.4560546875</ele>
        <time>2017-11-29T08:51:05Z</time>
      </trkpt>
      <trkpt lat="45.25597" lon="6.03176">
        <ele>2096.4560546875</ele>
        <time>2017-11-29T08:51:10Z</time>
      </trkpt>
      <trkpt lat="45.25593" lon="6.03181">
        <ele>2096.4560546875</ele>
        <time>2017-11-29T08:51:13Z</time>
      </trkpt>
      <trkpt lat="45.25589" lon="6.03186">
        <ele>2095.4560546875</ele>
        <time>2017-11-29T08:51:17Z</time>
      </trkpt>
      <trkpt lat="45.25583" lon="6.03193">
        <ele>2093.4560546875</ele>
        <time>2017-11-29T08:51:23Z</time>
      </trkpt>
      <trkpt lat="45.2558" lon="6.03199">
        <ele>2099.4560546875</ele>
        <time>2017-11-29T08:51:32Z</time>
      </trkpt>
      <trkpt lat="45.25579" lon="6.03207">
        <ele>2105.4560546875</ele>
        <time>2017-11-29T08:51:40Z</time>
      </trkpt>
      <trkpt lat="45.25575" lon="6.03211">
        <ele>2103.4560546875</ele>
        <time>2017-11-29T08:51:44Z</time>
      </trkpt>
      <trkpt lat="45.25571" lon="6.03216">
        <ele>2105.4560546875</ele>
        <time>2017-11-29T08:51:48Z</time>
      </trkpt>
      <trkpt lat="45.25568" lon="6.03222">
        <ele>2105.4560546875</ele>
        <time>2017-11-29T08:51:55Z</time>
      </trkpt>
      <trkpt lat="45.25564" lon="6.03227">
        <ele>2105.4560546875</ele>
        <time>2017-11-29T08:51:59Z</time>
      </trkpt>
      <trkpt lat="45.25565" lon="6.03235">
        <ele>2111.4560546875</ele>
        <time>2017-11-29T08:52:07Z</time>
      </trkpt>
      <trkpt lat="45.25563" lon="6.03241">
        <ele>2110.4560546875</ele>
        <time>2017-11-29T08:52:13Z</time>
      </trkpt>
      <trkpt lat="45.25557" lon="6.03247">
        <ele>2109.4560546875</ele>
        <time>2017-11-29T08:52:17Z</time>
      </trkpt>
      <trkpt lat="45.25553" lon="6.03253">
        <ele>2110.4560546875</ele>
        <time>2017-11-29T08:52:22Z</time>
      </trkpt>
      <trkpt lat="45.2555" lon="6.03259">
        <ele>2110.4560546875</ele>
        <time>2017-11-29T08:52:27Z</time>
      </trkpt>
      <trkpt lat="45.25547" lon="6.03265">
        <ele>2110.4560546875</ele>
        <time>2017-11-29T08:52:33Z</time>
      </trkpt>
      <trkpt lat="45.25546" lon="6.03272">
        <ele>2107.4560546875</ele>
        <time>2017-11-29T08:52:39Z</time>
      </trkpt>
      <trkpt lat="45.25544" lon="6.03278">
        <ele>2108.4560546875</ele>
        <time>2017-11-29T08:52:44Z</time>
      </trkpt>
      <trkpt lat="45.25541" lon="6.03284">
        <ele>2110.4560546875</ele>
        <time>2017-11-29T08:52:49Z</time>
      </trkpt>
      <trkpt lat="45.25539" lon="6.0329">
        <ele>2110.4560546875</ele>
        <time>2017-11-29T08:52:54Z</time>
      </trkpt>
      <trkpt lat="45.25537" lon="6.03297">
        <ele>2111.4560546875</ele>
        <time>2017-11-29T08:53:00Z</time>
      </trkpt>
      <trkpt lat="45.25535" lon="6.03303">
        <ele>2115.4560546875</ele>
        <time>2017-11-29T08:53:06Z</time>
      </trkpt>
      <trkpt lat="45.25533" lon="6.03309">
        <ele>2117.4560546875</ele>
        <time>2017-11-29T08:53:13Z</time>
      </trkpt>
      <trkpt lat="45.2553" lon="6.03315">
        <ele>2118.4560546875</ele>
        <time>2017-11-29T08:53:19Z</time>
      </trkpt>
      <trkpt lat="45.25528" lon="6.03321">
        <ele>2118.4560546875</ele>
        <time>2017-11-29T08:53:26Z</time>
      </trkpt>
      <trkpt lat="45.25526" lon="6.03328">
        <ele>2120.4560546875</ele>
        <time>2017-11-29T08:53:34Z</time>
      </trkpt>
      <trkpt lat="45.25524" lon="6.03334">
        <ele>2120.4560546875</ele>
        <time>2017-11-29T08:53:40Z</time>
      </trkpt>
      <trkpt lat="45.25522" lon="6.03339">
        <ele>2120.4560546875</ele>
        <time>2017-11-29T08:53:47Z</time>
      </trkpt>
      <trkpt lat="45.2552" lon="6.03346">
        <ele>2119.4560546875</ele>
        <time>2017-11-29T08:53:55Z</time>
      </trkpt>
      <trkpt lat="45.25517" lon="6.03352">
        <ele>2119.4560546875</ele>
        <time>2017-11-29T08:54:00Z</time>
      </trkpt>
      <trkpt lat="45.25514" lon="6.03357">
        <ele>2123.4560546875</ele>
        <time>2017-11-29T08:54:06Z</time>
      </trkpt>
      <trkpt lat="45.25509" lon="6.03361">
        <ele>2125.4560546875</ele>
        <time>2017-11-29T08:54:13Z</time>
      </trkpt>
      <trkpt lat="45.25504" lon="6.03361">
        <ele>2129.4560546875</ele>
        <time>2017-11-29T08:54:20Z</time>
      </trkpt>
      <trkpt lat="45.25499" lon="6.03359">
        <ele>2129.4560546875</ele>
        <time>2017-11-29T08:54:27Z</time>
      </trkpt>
      <trkpt lat="45.25495" lon="6.03356">
        <ele>2131.4560546875</ele>
        <time>2017-11-29T08:54:33Z</time>
      </trkpt>
      <trkpt lat="45.25491" lon="6.03353">
        <ele>2133.4560546875</ele>
        <time>2017-11-29T08:54:40Z</time>
      </trkpt>
      <trkpt lat="45.25487" lon="6.03348">
        <ele>2136.4560546875</ele>
        <time>2017-11-29T08:54:51Z</time>
      </trkpt>
      <trkpt lat="45.25485" lon="6.03342">
        <ele>2137.4560546875</ele>
        <time>2017-11-29T08:54:57Z</time>
      </trkpt>
      <trkpt lat="45.25483" lon="6.03336">
        <ele>2139.4560546875</ele>
        <time>2017-11-29T08:55:03Z</time>
      </trkpt>
      <trkpt lat="45.25481" lon="6.03329">
        <ele>2140.4560546875</ele>
        <time>2017-11-29T08:55:10Z</time>
      </trkpt>
      <trkpt lat="45.2548" lon="6.03323">
        <ele>2141.4560546875</ele>
        <time>2017-11-29T08:55:16Z</time>
      </trkpt>
      <trkpt lat="45.25479" lon="6.03316">
        <ele>2139.4560546875</ele>
        <time>2017-11-29T08:55:23Z</time>
      </trkpt>
      <trkpt lat="45.25478" lon="6.03308">
        <ele>2143.455078125</ele>
        <time>2017-11-29T08:55:28Z</time>
      </trkpt>
      <trkpt lat="45.25478" lon="6.03301">
        <ele>2144.455078125</ele>
        <time>2017-11-29T08:55:35Z</time>
      </trkpt>
      <trkpt lat="45.25478" lon="6.03294">
        <ele>2145.455078125</ele>
        <time>2017-11-29T08:55:41Z</time>
      </trkpt>
      <trkpt lat="45.25476" lon="6.03288">
        <ele>2144.455078125</ele>
        <time>2017-11-29T08:55:48Z</time>
      </trkpt>
      <trkpt lat="45.25478" lon="6.0328">
        <ele>2145.455078125</ele>
        <time>2017-11-29T08:55:52Z</time>
      </trkpt>
      <trkpt lat="45.25478" lon="6.03273">
        <ele>2146.455078125</ele>
        <time>2017-11-29T08:55:57Z</time>
      </trkpt>
      <trkpt lat="45.25481" lon="6.03267">
        <ele>2143.455078125</ele>
        <time>2017-11-29T08:56:03Z</time>
      </trkpt>
      <trkpt lat="45.25482" lon="6.0326">
        <ele>2142.455078125</ele>
        <time>2017-11-29T08:56:11Z</time>
      </trkpt>
      <trkpt lat="45.25485" lon="6.03255">
        <ele>2144.455078125</ele>
        <time>2017-11-29T08:56:17Z</time>
      </trkpt>
      <trkpt lat="45.25488" lon="6.0325">
        <ele>2149.455078125</ele>
        <time>2017-11-29T08:56:23Z</time>
      </trkpt>
      <trkpt lat="45.2549" lon="6.03243">
        <ele>2151.455078125</ele>
        <time>2017-11-29T08:56:28Z</time>
      </trkpt>
      <trkpt lat="45.2549" lon="6.03236">
        <ele>2152.455078125</ele>
        <time>2017-11-29T08:56:41Z</time>
      </trkpt>
      <trkpt lat="45.25492" lon="6.0323">
        <ele>2154.455078125</ele>
        <time>2017-11-29T08:56:46Z</time>
      </trkpt>
      <trkpt lat="45.25494" lon="6.03223">
        <ele>2159.455078125</ele>
        <time>2017-11-29T08:56:54Z</time>
      </trkpt>
      <trkpt lat="45.25493" lon="6.03216">
        <ele>2161.455078125</ele>
        <time>2017-11-29T08:57:01Z</time>
      </trkpt>
      <trkpt lat="45.25493" lon="6.03209">
        <ele>2163.455078125</ele>
        <time>2017-11-29T08:57:07Z</time>
      </trkpt>
      <trkpt lat="45.25492" lon="6.03203">
        <ele>2171.455078125</ele>
        <time>2017-11-29T08:57:19Z</time>
      </trkpt>
      <trkpt lat="45.25488" lon="6.032">
        <ele>2170.455078125</ele>
        <time>2017-11-29T08:57:30Z</time>
      </trkpt>
      <trkpt lat="45.25483" lon="6.03198">
        <ele>2169.455078125</ele>
        <time>2017-11-29T08:57:36Z</time>
      </trkpt>
      <trkpt lat="45.25479" lon="6.03195">
        <ele>2171.455078125</ele>
        <time>2017-11-29T08:57:44Z</time>
      </trkpt>
      <trkpt lat="45.25475" lon="6.03192">
        <ele>2170.455078125</ele>
        <time>2017-11-29T08:57:49Z</time>
      </trkpt>
      <trkpt lat="45.2547" lon="6.03194">
        <ele>2173.455078125</ele>
        <time>2017-11-29T08:57:57Z</time>
      </trkpt>
      <trkpt lat="45.25466" lon="6.03199">
        <ele>2176.455078125</ele>
        <time>2017-11-29T08:58:06Z</time>
      </trkpt>
      <trkpt lat="45.25462" lon="6.03203">
        <ele>2178.455078125</ele>
        <time>2017-11-29T08:58:14Z</time>
      </trkpt>
      <trkpt lat="45.25459" lon="6.03208">
        <ele>2181.455078125</ele>
        <time>2017-11-29T08:58:22Z</time>
      </trkpt>
      <trkpt lat="45.25456" lon="6.03213">
        <ele>2183.455078125</ele>
        <time>2017-11-29T08:58:29Z</time>
      </trkpt>
      <trkpt lat="45.25452" lon="6.03218">
        <ele>2184.455078125</ele>
        <time>2017-11-29T08:58:40Z</time>
      </trkpt>
      <trkpt lat="45.25448" lon="6.03217">
        <ele>2185.455078125</ele>
        <time>2017-11-29T08:58:49Z</time>
      </trkpt>
      <trkpt lat="45.25442" lon="6.03217">
        <ele>2188.455078125</ele>
        <time>2017-11-29T08:58:57Z</time>
      </trkpt>
      <trkpt lat="45.25438" lon="6.0322">
        <ele>2193.455078125</ele>
        <time>2017-11-29T08:59:09Z</time>
      </trkpt>
      <trkpt lat="45.25436" lon="6.03226">
        <ele>2198.455078125</ele>
        <time>2017-11-29T08:59:16Z</time>
      </trkpt>
      <trkpt lat="45.25432" lon="6.03228">
        <ele>2201.455078125</ele>
        <time>2017-11-29T08:59:37Z</time>
      </trkpt>
      <trkpt lat="45.25427" lon="6.03226">
        <ele>2200.455078125</ele>
        <time>2017-11-29T08:59:41Z</time>
      </trkpt>
      <trkpt lat="45.25422" lon="6.03227">
        <ele>2201.455078125</ele>
        <time>2017-11-29T08:59:48Z</time>
      </trkpt>
      <trkpt lat="45.25418" lon="6.03229">
        <ele>2200.455078125</ele>
        <time>2017-11-29T08:59:56Z</time>
      </trkpt>
      <trkpt lat="45.25413" lon="6.03227">
        <ele>2204.455078125</ele>
        <time>2017-11-29T09:00:05Z</time>
      </trkpt>
      <trkpt lat="45.25408" lon="6.03229">
        <ele>2207.455078125</ele>
        <time>2017-11-29T09:00:16Z</time>
      </trkpt>
      <trkpt lat="45.25403" lon="6.03229">
        <ele>2207.455078125</ele>
        <time>2017-11-29T09:00:25Z</time>
      </trkpt>
      <trkpt lat="45.254" lon="6.03234">
        <ele>2212.455078125</ele>
        <time>2017-11-29T09:00:35Z</time>
      </trkpt>
      <trkpt lat="45.25397" lon="6.03239">
        <ele>2213.455078125</ele>
        <time>2017-11-29T09:00:42Z</time>
      </trkpt>
      <trkpt lat="45.25397" lon="6.03246">
        <ele>2216.455078125</ele>
        <time>2017-11-29T09:00:51Z</time>
      </trkpt>
      <trkpt lat="45.25394" lon="6.03252">
        <ele>2216.455078125</ele>
        <time>2017-11-29T09:00:58Z</time>
      </trkpt>
      <trkpt lat="45.25392" lon="6.03259">
        <ele>2217.455078125</ele>
        <time>2017-11-29T09:01:06Z</time>
      </trkpt>
      <trkpt lat="45.2539" lon="6.03264">
        <ele>2219.455078125</ele>
        <time>2017-11-29T09:01:14Z</time>
      </trkpt>
      <trkpt lat="45.25387" lon="6.0327">
        <ele>2219.455078125</ele>
        <time>2017-11-29T09:01:22Z</time>
      </trkpt>
      <trkpt lat="45.25383" lon="6.03275">
        <ele>2221.455078125</ele>
        <time>2017-11-29T09:01:30Z</time>
      </trkpt>
      <trkpt lat="45.25381" lon="6.03281">
        <ele>2221.455078125</ele>
        <time>2017-11-29T09:01:38Z</time>
      </trkpt>
      <trkpt lat="45.25376" lon="6.03281">
        <ele>2222.455078125</ele>
        <time>2017-11-29T09:01:49Z</time>
      </trkpt>
      <trkpt lat="45.25372" lon="6.03279">
        <ele>2226.455078125</ele>
        <time>2017-11-29T09:01:58Z</time>
      </trkpt>
      <trkpt lat="45.25366" lon="6.03278">
        <ele>2227.455078125</ele>
        <time>2017-11-29T09:02:05Z</time>
      </trkpt>
      <trkpt lat="45.25361" lon="6.03275">
        <ele>2228.455078125</ele>
        <time>2017-11-29T09:02:13Z</time>
      </trkpt>
      <trkpt lat="45.25357" lon="6.03271">
        <ele>2231.455078125</ele>
        <time>2017-11-29T09:02:22Z</time>
      </trkpt>
      <trkpt lat="45.25355" lon="6.03265">
        <ele>2235.455078125</ele>
        <time>2017-11-29T09:02:30Z</time>
      </trkpt>
      <trkpt lat="45.25351" lon="6.03261">
        <ele>2237.455078125</ele>
        <time>2017-11-29T09:02:34Z</time>
      </trkpt>
      <trkpt lat="45.25346" lon="6.03261">
        <ele>2238.455078125</ele>
        <time>2017-11-29T09:02:41Z</time>
      </trkpt>
      <trkpt lat="45.25343" lon="6.03268">
        <ele>2239.455078125</ele>
        <time>2017-11-29T09:02:46Z</time>
      </trkpt>
      <trkpt lat="45.25341" lon="6.03273">
        <ele>2239.455078125</ele>
        <time>2017-11-29T09:02:50Z</time>
      </trkpt>
      <trkpt lat="45.25341" lon="6.0328">
        <ele>2239.455078125</ele>
        <time>2017-11-29T09:08:32Z</time>
      </trkpt>
      <trkpt lat="45.2534" lon="6.03273">
        <ele>2238.455078125</ele>
        <time>2017-11-29T09:08:44Z</time>
      </trkpt>
      <trkpt lat="45.25344" lon="6.03268">
        <ele>2235.455078125</ele>
        <time>2017-11-29T09:11:53Z</time>
      </trkpt>
      <trkpt lat="45.25352" lon="6.03267">
        <ele>2233.455078125</ele>
        <time>2017-11-29T09:11:56Z</time>
      </trkpt>
      <trkpt lat="45.25361" lon="6.03272">
        <ele>2231.455078125</ele>
        <time>2017-11-29T09:11:58Z</time>
      </trkpt>
      <trkpt lat="45.25372" lon="6.03272">
        <ele>2227.455078125</ele>
        <time>2017-11-29T09:12:00Z</time>
      </trkpt>
      <trkpt lat="45.25382" lon="6.03275">
        <ele>2224.455078125</ele>
        <time>2017-11-29T09:12:02Z</time>
      </trkpt>
      <trkpt lat="45.25392" lon="6.03259">
        <ele>2220.455078125</ele>
        <time>2017-11-29T09:12:04Z</time>
      </trkpt>
      <trkpt lat="45.25404" lon="6.03245">
        <ele>2216.455078125</ele>
        <time>2017-11-29T09:12:06Z</time>
      </trkpt>
      <trkpt lat="45.25413" lon="6.0323">
        <ele>2210.455078125</ele>
        <time>2017-11-29T09:12:08Z</time>
      </trkpt>
      <trkpt lat="45.25424" lon="6.0322">
        <ele>2204.455078125</ele>
        <time>2017-11-29T09:12:10Z</time>
      </trkpt>
      <trkpt lat="45.25432" lon="6.0321">
        <ele>2198.455078125</ele>
        <time>2017-11-29T09:12:12Z</time>
      </trkpt>
      <trkpt lat="45.25443" lon="6.03204">
        <ele>2193.455078125</ele>
        <time>2017-11-29T09:12:14Z</time>
      </trkpt>
      <trkpt lat="45.25459" lon="6.03194">
        <ele>2188.455078125</ele>
        <time>2017-11-29T09:12:17Z</time>
      </trkpt>
      <trkpt lat="45.2547" lon="6.03192">
        <ele>2185.455078125</ele>
        <time>2017-11-29T09:12:19Z</time>
      </trkpt>
      <trkpt lat="45.25481" lon="6.0319">
        <ele>2182.455078125</ele>
        <time>2017-11-29T09:12:21Z</time>
      </trkpt>
      <trkpt lat="45.25495" lon="6.03189">
        <ele>2178.455078125</ele>
        <time>2017-11-29T09:12:24Z</time>
      </trkpt>
      <trkpt lat="45.255" lon="6.03197">
        <ele>2176.455078125</ele>
        <time>2017-11-29T09:12:26Z</time>
      </trkpt>
      <trkpt lat="45.25502" lon="6.0321">
        <ele>2167.455078125</ele>
        <time>2017-11-29T09:12:57Z</time>
      </trkpt>
      <trkpt lat="45.255" lon="6.03221">
        <ele>2166.455078125</ele>
        <time>2017-11-29T09:12:59Z</time>
      </trkpt>
      <trkpt lat="45.25499" lon="6.03236">
        <ele>2164.455078125</ele>
        <time>2017-11-29T09:13:01Z</time>
      </trkpt>
      <trkpt lat="45.25497" lon="6.03255">
        <ele>2162.455078125</ele>
        <time>2017-11-29T09:13:03Z</time>
      </trkpt>
      <trkpt lat="45.25492" lon="6.03273">
        <ele>2160.455078125</ele>
        <time>2017-11-29T09:13:05Z</time>
      </trkpt>
      <trkpt lat="45.25488" lon="6.03286">
        <ele>2156.455078125</ele>
        <time>2017-11-29T09:13:07Z</time>
      </trkpt>
      <trkpt lat="45.25484" lon="6.0331">
        <ele>2152.4560546875</ele>
        <time>2017-11-29T09:13:10Z</time>
      </trkpt>
      <trkpt lat="45.25493" lon="6.0332">
        <ele>2146.4560546875</ele>
        <time>2017-11-29T09:13:12Z</time>
      </trkpt>
      <trkpt lat="45.255" lon="6.03329">
        <ele>2144.4560546875</ele>
        <time>2017-11-29T09:13:14Z</time>
      </trkpt>
      <trkpt lat="45.25509" lon="6.0333">
        <ele>2138.4560546875</ele>
        <time>2017-11-29T09:13:16Z</time>
      </trkpt>
      <trkpt lat="45.25519" lon="6.03329">
        <ele>2133.4560546875</ele>
        <time>2017-11-29T09:13:18Z</time>
      </trkpt>
      <trkpt lat="45.25531" lon="6.03318">
        <ele>2131.4560546875</ele>
        <time>2017-11-29T09:13:22Z</time>
      </trkpt>
      <trkpt lat="45.25536" lon="6.03307">
        <ele>2128.4560546875</ele>
        <time>2017-11-29T09:13:24Z</time>
      </trkpt>
      <trkpt lat="45.25543" lon="6.03289">
        <ele>2123.4560546875</ele>
        <time>2017-11-29T09:13:27Z</time>
      </trkpt>
      <trkpt lat="45.25547" lon="6.03276">
        <ele>2120.4560546875</ele>
        <time>2017-11-29T09:13:29Z</time>
      </trkpt>
      <trkpt lat="45.25553" lon="6.03262">
        <ele>2117.4560546875</ele>
        <time>2017-11-29T09:13:31Z</time>
      </trkpt>
      <trkpt lat="45.25559" lon="6.03248">
        <ele>2117.4560546875</ele>
        <time>2017-11-29T09:13:33Z</time>
      </trkpt>
      <trkpt lat="45.25565" lon="6.03234">
        <ele>2116.4560546875</ele>
        <time>2017-11-29T09:13:35Z</time>
      </trkpt>
      <trkpt lat="45.25573" lon="6.03221">
        <ele>2114.4560546875</ele>
        <time>2017-11-29T09:13:37Z</time>
      </trkpt>
      <trkpt lat="45.25581" lon="6.03207">
        <ele>2113.4560546875</ele>
        <time>2017-11-29T09:13:39Z</time>
      </trkpt>
      <trkpt lat="45.25588" lon="6.03195">
        <ele>2112.4560546875</ele>
        <time>2017-11-29T09:13:41Z</time>
      </trkpt>
      <trkpt lat="45.25595" lon="6.03185">
        <ele>2111.4560546875</ele>
        <time>2017-11-29T09:13:43Z</time>
      </trkpt>
      <trkpt lat="45.25601" lon="6.03175">
        <ele>2110.4560546875</ele>
        <time>2017-11-29T09:13:45Z</time>
      </trkpt>
      <trkpt lat="45.25606" lon="6.03165">
        <ele>2110.4560546875</ele>
        <time>2017-11-29T09:13:47Z</time>
      </trkpt>
      <trkpt lat="45.25606" lon="6.03157">
        <ele>2106.4560546875</ele>
        <time>2017-11-29T09:13:49Z</time>
      </trkpt>
      <trkpt lat="45.25612" lon="6.03157">
        <ele>2104.4560546875</ele>
        <time>2017-11-29T09:13:55Z</time>
      </trkpt>
      <trkpt lat="45.25622" lon="6.03158">
        <ele>2101.4560546875</ele>
        <time>2017-11-29T09:13:57Z</time>
      </trkpt>
      <trkpt lat="45.25645" lon="6.0317">
        <ele>2095.4560546875</ele>
        <time>2017-11-29T09:14:00Z</time>
      </trkpt>
      <trkpt lat="45.25658" lon="6.03184">
        <ele>2086.4560546875</ele>
        <time>2017-11-29T09:14:02Z</time>
      </trkpt>
      <trkpt lat="45.25673" lon="6.03185">
        <ele>2082.4560546875</ele>
        <time>2017-11-29T09:14:04Z</time>
      </trkpt>
      <trkpt lat="45.25695" lon="6.0319">
        <ele>2080.4560546875</ele>
        <time>2017-11-29T09:14:06Z</time>
      </trkpt>
      <trkpt lat="45.25705" lon="6.0319">
        <ele>2079.4560546875</ele>
        <time>2017-11-29T09:14:07Z</time>
      </trkpt>
      <trkpt lat="45.25721" lon="6.03191">
        <ele>2073.4560546875</ele>
        <time>2017-11-29T09:14:09Z</time>
      </trkpt>
      <trkpt lat="45.25739" lon="6.03191">
        <ele>2071.4560546875</ele>
        <time>2017-11-29T09:14:11Z</time>
      </trkpt>
      <trkpt lat="45.25744" lon="6.03195">
        <ele>2067.4560546875</ele>
        <time>2017-11-29T09:14:12Z</time>
      </trkpt>
      <trkpt lat="45.25747" lon="6.03202">
        <ele>2060.4560546875</ele>
        <time>2017-11-29T09:14:16Z</time>
      </trkpt>
      <trkpt lat="45.25752" lon="6.03206">
        <ele>2059.4560546875</ele>
        <time>2017-11-29T09:14:25Z</time>
      </trkpt>
      <trkpt lat="45.25758" lon="6.03213">
        <ele>2058.4560546875</ele>
        <time>2017-11-29T09:14:27Z</time>
      </trkpt>
      <trkpt lat="45.25765" lon="6.03224">
        <ele>2055.4560546875</ele>
        <time>2017-11-29T09:14:30Z</time>
      </trkpt>
      <trkpt lat="45.25765" lon="6.03238">
        <ele>2053.4560546875</ele>
        <time>2017-11-29T09:14:32Z</time>
      </trkpt>
      <trkpt lat="45.25765" lon="6.03253">
        <ele>2049.4560546875</ele>
        <time>2017-11-29T09:14:34Z</time>
      </trkpt>
      <trkpt lat="45.25763" lon="6.03269">
        <ele>2044.4560546875</ele>
        <time>2017-11-29T09:14:36Z</time>
      </trkpt>
      <trkpt lat="45.25759" lon="6.03283">
        <ele>2039.4560546875</ele>
        <time>2017-11-29T09:14:38Z</time>
      </trkpt>
      <trkpt lat="45.25755" lon="6.03295">
        <ele>2037.4560546875</ele>
        <time>2017-11-29T09:14:40Z</time>
      </trkpt>
      <trkpt lat="45.25753" lon="6.03302">
        <ele>2036.4560546875</ele>
        <time>2017-11-29T09:14:41Z</time>
      </trkpt>
      <trkpt lat="45.2575" lon="6.03315">
        <ele>2034.4560546875</ele>
        <time>2017-11-29T09:14:43Z</time>
      </trkpt>
      <trkpt lat="45.25746" lon="6.03325">
        <ele>2031.4560546875</ele>
        <time>2017-11-29T09:14:45Z</time>
      </trkpt>
      <trkpt lat="45.25741" lon="6.03336">
        <ele>2027.4560546875</ele>
        <time>2017-11-29T09:14:47Z</time>
      </trkpt>
      <trkpt lat="45.25739" lon="6.03349">
        <ele>2023.4560546875</ele>
        <time>2017-11-29T09:14:49Z</time>
      </trkpt>
      <trkpt lat="45.25739" lon="6.03359">
        <ele>2022.4560546875</ele>
        <time>2017-11-29T09:14:51Z</time>
      </trkpt>
      <trkpt lat="45.25739" lon="6.03366">
        <ele>2020.4560546875</ele>
        <time>2017-11-29T09:14:53Z</time>
      </trkpt>
      <trkpt lat="45.25739" lon="6.03375">
        <ele>2017.4560546875</ele>
        <time>2017-11-29T09:14:55Z</time>
      </trkpt>
      <trkpt lat="45.25738" lon="6.03388">
        <ele>2016.4560546875</ele>
        <time>2017-11-29T09:14:57Z</time>
      </trkpt>
      <trkpt lat="45.25742" lon="6.03398">
        <ele>2015.4560546875</ele>
        <time>2017-11-29T09:14:59Z</time>
      </trkpt>
      <trkpt lat="45.25744" lon="6.03408">
        <ele>2012.4560546875</ele>
        <time>2017-11-29T09:15:01Z</time>
      </trkpt>
      <trkpt lat="45.2574" lon="6.03415">
        <ele>2011.4560546875</ele>
        <time>2017-11-29T09:15:04Z</time>
      </trkpt>
      <trkpt lat="45.25742" lon="6.03422">
        <ele>2011.4560546875</ele>
        <time>2017-11-29T09:15:06Z</time>
      </trkpt>
      <trkpt lat="45.25739" lon="6.0343">
        <ele>2010.4560546875</ele>
        <time>2017-11-29T09:15:10Z</time>
      </trkpt>
      <trkpt lat="45.25739" lon="6.0344">
        <ele>2007.4560546875</ele>
        <time>2017-11-29T09:15:13Z</time>
      </trkpt>
      <trkpt lat="45.2574" lon="6.03453">
        <ele>2005.4560546875</ele>
        <time>2017-11-29T09:15:15Z</time>
      </trkpt>
      <trkpt lat="45.25739" lon="6.03463">
        <ele>2006.4560546875</ele>
        <time>2017-11-29T09:15:17Z</time>
      </trkpt>
      <trkpt lat="45.25737" lon="6.0347">
        <ele>2004.4560546875</ele>
        <time>2017-11-29T09:15:19Z</time>
      </trkpt>
      <trkpt lat="45.25737" lon="6.03477">
        <ele>2004.4560546875</ele>
        <time>2017-11-29T09:15:21Z</time>
      </trkpt>
      <trkpt lat="45.25736" lon="6.03486">
        <ele>2003.4560546875</ele>
        <time>2017-11-29T09:15:23Z</time>
      </trkpt>
      <trkpt lat="45.25738" lon="6.03497">
        <ele>1999.4560546875</ele>
        <time>2017-11-29T09:15:25Z</time>
      </trkpt>
      <trkpt lat="45.25742" lon="6.03516">
        <ele>1996.4560546875</ele>
        <time>2017-11-29T09:15:28Z</time>
      </trkpt>
      <trkpt lat="45.25744" lon="6.03535">
        <ele>1994.4560546875</ele>
        <time>2017-11-29T09:15:31Z</time>
      </trkpt>
      <trkpt lat="45.25748" lon="6.03552">
        <ele>1993.4560546875</ele>
        <time>2017-11-29T09:15:34Z</time>
      </trkpt>
      <trkpt lat="45.2575" lon="6.03562">
        <ele>1992.4560546875</ele>
        <time>2017-11-29T09:15:36Z</time>
      </trkpt>
      <trkpt lat="45.25749" lon="6.03574">
        <ele>1990.4560546875</ele>
        <time>2017-11-29T09:15:38Z</time>
      </trkpt>
      <trkpt lat="45.25749" lon="6.03584">
        <ele>1985.4560546875</ele>
        <time>2017-11-29T09:15:40Z</time>
      </trkpt>
      <trkpt lat="45.2575" lon="6.03594">
        <ele>1984.4560546875</ele>
        <time>2017-11-29T09:15:42Z</time>
      </trkpt>
      <trkpt lat="45.25754" lon="6.03601">
        <ele>1980.4560546875</ele>
        <time>2017-11-29T09:15:45Z</time>
      </trkpt>
      <trkpt lat="45.25756" lon="6.03611">
        <ele>1976.4560546875</ele>
        <time>2017-11-29T09:15:47Z</time>
      </trkpt>
      <trkpt lat="45.2576" lon="6.03619">
        <ele>1972.4560546875</ele>
        <time>2017-11-29T09:15:49Z</time>
      </trkpt>
      <trkpt lat="45.25762" lon="6.03627">
        <ele>1970.4560546875</ele>
        <time>2017-11-29T09:15:51Z</time>
      </trkpt>
      <trkpt lat="45.25764" lon="6.03637">
        <ele>1968.45703125</ele>
        <time>2017-11-29T09:15:53Z</time>
      </trkpt>
      <trkpt lat="45.25767" lon="6.03648">
        <ele>1967.45703125</ele>
        <time>2017-11-29T09:15:55Z</time>
      </trkpt>
      <trkpt lat="45.2577" lon="6.03659">
        <ele>1967.45703125</ele>
        <time>2017-11-29T09:15:57Z</time>
      </trkpt>
      <trkpt lat="45.25772" lon="6.03669">
        <ele>1965.45703125</ele>
        <time>2017-11-29T09:15:59Z</time>
      </trkpt>
      <trkpt lat="45.25775" lon="6.03678">
        <ele>1962.45703125</ele>
        <time>2017-11-29T09:16:01Z</time>
      </trkpt>
      <trkpt lat="45.25777" lon="6.03685">
        <ele>1961.45703125</ele>
        <time>2017-11-29T09:16:02Z</time>
      </trkpt>
      <trkpt lat="45.25782" lon="6.03696">
        <ele>1958.45703125</ele>
        <time>2017-11-29T09:16:04Z</time>
      </trkpt>
      <trkpt lat="45.25786" lon="6.03707">
        <ele>1958.45703125</ele>
        <time>2017-11-29T09:16:06Z</time>
      </trkpt>
      <trkpt lat="45.25789" lon="6.03718">
        <ele>1954.45703125</ele>
        <time>2017-11-29T09:16:08Z</time>
      </trkpt>
      <trkpt lat="45.25794" lon="6.03735">
        <ele>1946.45703125</ele>
        <time>2017-11-29T09:16:11Z</time>
      </trkpt>
      <trkpt lat="45.25799" lon="6.03745">
        <ele>1942.45703125</ele>
        <time>2017-11-29T09:16:13Z</time>
      </trkpt>
      <trkpt lat="45.25802" lon="6.03754">
        <ele>1938.45703125</ele>
        <time>2017-11-29T09:16:15Z</time>
      </trkpt>
      <trkpt lat="45.25807" lon="6.03766">
        <ele>1933.45703125</ele>
        <time>2017-11-29T09:16:17Z</time>
      </trkpt>
      <trkpt lat="45.2581" lon="6.03784">
        <ele>1930.45703125</ele>
        <time>2017-11-29T09:16:20Z</time>
      </trkpt>
      <trkpt lat="45.25813" lon="6.03792">
        <ele>1928.45703125</ele>
        <time>2017-11-29T09:16:22Z</time>
      </trkpt>
      <trkpt lat="45.25816" lon="6.03809">
        <ele>1925.45703125</ele>
        <time>2017-11-29T09:16:25Z</time>
      </trkpt>
      <trkpt lat="45.25821" lon="6.03817">
        <ele>1920.45703125</ele>
        <time>2017-11-29T09:16:27Z</time>
      </trkpt>
      <trkpt lat="45.25823" lon="6.03832">
        <ele>1917.45703125</ele>
        <time>2017-11-29T09:16:29Z</time>
      </trkpt>
      <trkpt lat="45.25827" lon="6.03849">
        <ele>1915.45703125</ele>
        <time>2017-11-29T09:16:32Z</time>
      </trkpt>
      <trkpt lat="45.2583" lon="6.0386">
        <ele>1912.45703125</ele>
        <time>2017-11-29T09:16:34Z</time>
      </trkpt>
      <trkpt lat="45.25833" lon="6.0387">
        <ele>1908.45703125</ele>
        <time>2017-11-29T09:16:36Z</time>
      </trkpt>
      <trkpt lat="45.25835" lon="6.03877">
        <ele>1906.45703125</ele>
        <time>2017-11-29T09:16:37Z</time>
      </trkpt>
      <trkpt lat="45.25841" lon="6.03887">
        <ele>1904.45703125</ele>
        <time>2017-11-29T09:16:39Z</time>
      </trkpt>
      <trkpt lat="45.25846" lon="6.03898">
        <ele>1902.45703125</ele>
        <time>2017-11-29T09:16:41Z</time>
      </trkpt>
      <trkpt lat="45.25852" lon="6.03909">
        <ele>1902.45703125</ele>
        <time>2017-11-29T09:16:43Z</time>
      </trkpt>
      <trkpt lat="45.25858" lon="6.03915">
        <ele>1899.45703125</ele>
        <time>2017-11-29T09:16:45Z</time>
      </trkpt>
      <trkpt lat="45.25864" lon="6.03921">
        <ele>1897.45703125</ele>
        <time>2017-11-29T09:16:47Z</time>
      </trkpt>
      <trkpt lat="45.25874" lon="6.03937">
        <ele>1894.45703125</ele>
        <time>2017-11-29T09:16:50Z</time>
      </trkpt>
      <trkpt lat="45.25879" lon="6.03948">
        <ele>1893.45703125</ele>
        <time>2017-11-29T09:16:52Z</time>
      </trkpt>
      <trkpt lat="45.25883" lon="6.0396">
        <ele>1888.45703125</ele>
        <time>2017-11-29T09:16:54Z</time>
      </trkpt>
      <trkpt lat="45.25889" lon="6.03972">
        <ele>1883.45703125</ele>
        <time>2017-11-29T09:16:56Z</time>
      </trkpt>
      <trkpt lat="45.25897" lon="6.03984">
        <ele>1878.45703125</ele>
        <time>2017-11-29T09:16:58Z</time>
      </trkpt>
      <trkpt lat="45.25905" lon="6.03996">
        <ele>1872.45703125</ele>
        <time>2017-11-29T09:17:00Z</time>
      </trkpt>
      <trkpt lat="45.2591" lon="6.04012">
        <ele>1870.45703125</ele>
        <time>2017-11-29T09:17:02Z</time>
      </trkpt>
      <trkpt lat="45.25918" lon="6.04025">
        <ele>1870.45703125</ele>
        <time>2017-11-29T09:17:04Z</time>
      </trkpt>
      <trkpt lat="45.25926" lon="6.04029">
        <ele>1862.45703125</ele>
        <time>2017-11-29T09:17:06Z</time>
      </trkpt>
      <trkpt lat="45.25931" lon="6.04032">
        <ele>1860.45703125</ele>
        <time>2017-11-29T09:17:08Z</time>
      </trkpt>
      <trkpt lat="45.25934" lon="6.04036">
        <ele>1860.45703125</ele>
        <time>2017-11-29T09:17:10Z</time>
      </trkpt>
      <trkpt lat="45.2593" lon="6.04029">
        <ele>1854.45703125</ele>
        <time>2017-11-29T09:21:24Z</time>
      </trkpt>
      <trkpt lat="45.25927" lon="6.04023">
        <ele>1853.45703125</ele>
        <time>2017-11-29T09:21:29Z</time>
      </trkpt>
      <trkpt lat="45.25921" lon="6.0402">
        <ele>1855.45703125</ele>
        <time>2017-11-29T09:21:35Z</time>
      </trkpt>
      <trkpt lat="45.25918" lon="6.04015">
        <ele>1855.45703125</ele>
        <time>2017-11-29T09:21:40Z</time>
      </trkpt>
      <trkpt lat="45.25914" lon="6.04012">
        <ele>1856.45703125</ele>
        <time>2017-11-29T09:21:46Z</time>
      </trkpt>
      <trkpt lat="45.2591" lon="6.04006">
        <ele>1855.45703125</ele>
        <time>2017-11-29T09:21:51Z</time>
      </trkpt>
      <trkpt lat="45.2591" lon="6.03999">
        <ele>1858.45703125</ele>
        <time>2017-11-29T09:22:00Z</time>
      </trkpt>
      <trkpt lat="45.25906" lon="6.03994">
        <ele>1862.45703125</ele>
        <time>2017-11-29T09:22:12Z</time>
      </trkpt>
      <trkpt lat="45.25902" lon="6.03991">
        <ele>1865.45703125</ele>
        <time>2017-11-29T09:22:20Z</time>
      </trkpt>
      <trkpt lat="45.25903" lon="6.03985">
        <ele>1868.45703125</ele>
        <time>2017-11-29T09:22:28Z</time>
      </trkpt>
      <trkpt lat="45.25901" lon="6.03979">
        <ele>1867.45703125</ele>
        <time>2017-11-29T09:22:37Z</time>
      </trkpt>
      <trkpt lat="45.25897" lon="6.0398">
        <ele>1869.45703125</ele>
        <time>2017-11-29T09:22:43Z</time>
      </trkpt>
      <trkpt lat="45.25893" lon="6.03974">
        <ele>1872.45703125</ele>
        <time>2017-11-29T09:22:53Z</time>
      </trkpt>
      <trkpt lat="45.25888" lon="6.03972">
        <ele>1877.45703125</ele>
        <time>2017-11-29T09:23:02Z</time>
      </trkpt>
      <trkpt lat="45.25884" lon="6.03969">
        <ele>1881.45703125</ele>
        <time>2017-11-29T09:23:08Z</time>
      </trkpt>
      <trkpt lat="45.25879" lon="6.03964">
        <ele>1880.45703125</ele>
        <time>2017-11-29T09:23:19Z</time>
      </trkpt>
      <trkpt lat="45.25874" lon="6.03959">
        <ele>1880.45703125</ele>
        <time>2017-11-29T09:23:25Z</time>
      </trkpt>
      <trkpt lat="45.2587" lon="6.03956">
        <ele>1883.45703125</ele>
        <time>2017-11-29T09:23:40Z</time>
      </trkpt>
      <trkpt lat="45.25866" lon="6.03953">
        <ele>1885.45703125</ele>
        <time>2017-11-29T09:23:48Z</time>
      </trkpt>
      <trkpt lat="45.25862" lon="6.03949">
        <ele>1884.45703125</ele>
        <time>2017-11-29T09:23:54Z</time>
      </trkpt>
      <trkpt lat="45.25861" lon="6.03942">
        <ele>1886.45703125</ele>
        <time>2017-11-29T09:24:04Z</time>
      </trkpt>
      <trkpt lat="45.25859" lon="6.03936">
        <ele>1887.45703125</ele>
        <time>2017-11-29T09:24:11Z</time>
      </trkpt>
      <trkpt lat="45.25858" lon="6.03929">
        <ele>1886.45703125</ele>
        <time>2017-11-29T09:24:18Z</time>
      </trkpt>
      <trkpt lat="45.25856" lon="6.03923">
        <ele>1889.45703125</ele>
        <time>2017-11-29T09:24:30Z</time>
      </trkpt>
      <trkpt lat="45.25851" lon="6.03918">
        <ele>1889.45703125</ele>
        <time>2017-11-29T09:24:36Z</time>
      </trkpt>
      <trkpt lat="45.25847" lon="6.03915">
        <ele>1885.45703125</ele>
        <time>2017-11-29T09:24:43Z</time>
      </trkpt>
      <trkpt lat="45.25842" lon="6.03913">
        <ele>1890.45703125</ele>
        <time>2017-11-29T09:24:54Z</time>
      </trkpt>
      <trkpt lat="45.25843" lon="6.03906">
        <ele>1898.45703125</ele>
        <time>2017-11-29T09:25:12Z</time>
      </trkpt>
      <trkpt lat="45.2584" lon="6.039">
        <ele>1895.45703125</ele>
        <time>2017-11-29T09:25:20Z</time>
      </trkpt>
      <trkpt lat="45.25836" lon="6.03895">
        <ele>1891.45703125</ele>
        <time>2017-11-29T09:25:23Z</time>
      </trkpt>
      <trkpt lat="45.25832" lon="6.0389">
        <ele>1892.45703125</ele>
        <time>2017-11-29T09:25:28Z</time>
      </trkpt>
      <trkpt lat="45.25829" lon="6.03886">
        <ele>1892.45703125</ele>
        <time>2017-11-29T09:25:33Z</time>
      </trkpt>
      <trkpt lat="45.25831" lon="6.03879">
        <ele>1899.45703125</ele>
        <time>2017-11-29T09:25:43Z</time>
      </trkpt>
      <trkpt lat="45.25827" lon="6.03875">
        <ele>1898.45703125</ele>
        <time>2017-11-29T09:25:49Z</time>
      </trkpt>
      <trkpt lat="45.25824" lon="6.03869">
        <ele>1899.45703125</ele>
        <time>2017-11-29T09:25:53Z</time>
      </trkpt>
      <trkpt lat="45.25821" lon="6.03864">
        <ele>1896.45703125</ele>
        <time>2017-11-29T09:25:59Z</time>
      </trkpt>
      <trkpt lat="45.2582" lon="6.03858">
        <ele>1900.45703125</ele>
        <time>2017-11-29T09:26:07Z</time>
      </trkpt>
      <trkpt lat="45.2582" lon="6.03851">
        <ele>1900.45703125</ele>
        <time>2017-11-29T09:26:13Z</time>
      </trkpt>
      <trkpt lat="45.2582" lon="6.03844">
        <ele>1899.45703125</ele>
        <time>2017-11-29T09:26:18Z</time>
      </trkpt>
      <trkpt lat="45.2582" lon="6.03837">
        <ele>1901.45703125</ele>
        <time>2017-11-29T09:26:28Z</time>
      </trkpt>
      <trkpt lat="45.25817" lon="6.03831">
        <ele>1901.45703125</ele>
        <time>2017-11-29T09:26:35Z</time>
      </trkpt>
      <trkpt lat="45.2582" lon="6.03826">
        <ele>1905.45703125</ele>
        <time>2017-11-29T09:26:44Z</time>
      </trkpt>
      <trkpt lat="45.25818" lon="6.03819">
        <ele>1907.45703125</ele>
        <time>2017-11-29T09:26:54Z</time>
      </trkpt>
      <trkpt lat="45.25814" lon="6.03814">
        <ele>1907.45703125</ele>
        <time>2017-11-29T09:27:00Z</time>
      </trkpt>
      <trkpt lat="45.25811" lon="6.03809">
        <ele>1913.45703125</ele>
        <time>2017-11-29T09:27:08Z</time>
      </trkpt>
      <trkpt lat="45.25806" lon="6.03804">
        <ele>1916.45703125</ele>
        <time>2017-11-29T09:27:19Z</time>
      </trkpt>
      <trkpt lat="45.25803" lon="6.03798">
        <ele>1916.45703125</ele>
        <time>2017-11-29T09:27:27Z</time>
      </trkpt>
      <trkpt lat="45.25801" lon="6.03791">
        <ele>1917.45703125</ele>
        <time>2017-11-29T09:27:34Z</time>
      </trkpt>
      <trkpt lat="45.25802" lon="6.03784">
        <ele>1917.45703125</ele>
        <time>2017-11-29T09:27:41Z</time>
      </trkpt>
      <trkpt lat="45.25805" lon="6.03779">
        <ele>1922.45703125</ele>
        <time>2017-11-29T09:27:50Z</time>
      </trkpt>
      <trkpt lat="45.25803" lon="6.03772">
        <ele>1921.45703125</ele>
        <time>2017-11-29T09:27:59Z</time>
      </trkpt>
      <trkpt lat="45.25804" lon="6.03766">
        <ele>1921.45703125</ele>
        <time>2017-11-29T09:28:04Z</time>
      </trkpt>
      <trkpt lat="45.25802" lon="6.0376">
        <ele>1920.45703125</ele>
        <time>2017-11-29T09:28:15Z</time>
      </trkpt>
      <trkpt lat="45.25799" lon="6.03754">
        <ele>1923.45703125</ele>
        <time>2017-11-29T09:28:20Z</time>
      </trkpt>
      <trkpt lat="45.25795" lon="6.03752">
        <ele>1930.45703125</ele>
        <time>2017-11-29T09:28:29Z</time>
      </trkpt>
      <trkpt lat="45.2579" lon="6.0375">
        <ele>1931.45703125</ele>
        <time>2017-11-29T09:28:39Z</time>
      </trkpt>
      <trkpt lat="45.25789" lon="6.03743">
        <ele>1934.45703125</ele>
        <time>2017-11-29T09:28:47Z</time>
      </trkpt>
      <trkpt lat="45.25786" lon="6.03737">
        <ele>1940.45703125</ele>
        <time>2017-11-29T09:28:53Z</time>
      </trkpt>
      <trkpt lat="45.25783" lon="6.03731">
        <ele>1938.45703125</ele>
        <time>2017-11-29T09:28:57Z</time>
      </trkpt>
      <trkpt lat="45.25782" lon="6.03724">
        <ele>1936.45703125</ele>
        <time>2017-11-29T09:29:14Z</time>
      </trkpt>
      <trkpt lat="45.25784" lon="6.03718">
        <ele>1939.45703125</ele>
        <time>2017-11-29T09:29:50Z</time>
      </trkpt>
      <trkpt lat="45.25785" lon="6.03712">
        <ele>1941.45703125</ele>
        <time>2017-11-29T09:29:56Z</time>
      </trkpt>
      <trkpt lat="45.25786" lon="6.03705">
        <ele>1943.45703125</ele>
        <time>2017-11-29T09:30:04Z</time>
      </trkpt>
      <trkpt lat="45.25785" lon="6.03699">
        <ele>1944.45703125</ele>
        <time>2017-11-29T09:30:14Z</time>
      </trkpt>
      <trkpt lat="45.2578" lon="6.03696">
        <ele>1945.45703125</ele>
        <time>2017-11-29T09:30:20Z</time>
      </trkpt>
      <trkpt lat="45.25776" lon="6.03693">
        <ele>1947.45703125</ele>
        <time>2017-11-29T09:30:26Z</time>
      </trkpt>
      <trkpt lat="45.25772" lon="6.03689">
        <ele>1945.45703125</ele>
        <time>2017-11-29T09:30:49Z</time>
      </trkpt>
      <trkpt lat="45.25769" lon="6.03683">
        <ele>1945.45703125</ele>
        <time>2017-11-29T09:30:52Z</time>
      </trkpt>
      <trkpt lat="45.25766" lon="6.03675">
        <ele>1951.45703125</ele>
        <time>2017-11-29T09:31:04Z</time>
      </trkpt>
      <trkpt lat="45.25764" lon="6.03669">
        <ele>1947.45703125</ele>
        <time>2017-11-29T09:31:06Z</time>
      </trkpt>
      <trkpt lat="45.25762" lon="6.03663">
        <ele>1951.45703125</ele>
        <time>2017-11-29T09:31:20Z</time>
      </trkpt>
      <trkpt lat="45.25759" lon="6.03657">
        <ele>1955.45703125</ele>
        <time>2017-11-29T09:31:27Z</time>
      </trkpt>
      <trkpt lat="45.25756" lon="6.0365">
        <ele>1956.45703125</ele>
        <time>2017-11-29T09:31:33Z</time>
      </trkpt>
      <trkpt lat="45.25751" lon="6.03641">
        <ele>1958.4560546875</ele>
        <time>2017-11-29T09:31:53Z</time>
      </trkpt>
      <trkpt lat="45.25748" lon="6.03636">
        <ele>1957.4560546875</ele>
        <time>2017-11-29T09:31:57Z</time>
      </trkpt>
      <trkpt lat="45.25745" lon="6.0363">
        <ele>1955.4560546875</ele>
        <time>2017-11-29T09:32:00Z</time>
      </trkpt>
      <trkpt lat="45.25743" lon="6.03623">
        <ele>1958.4560546875</ele>
        <time>2017-11-29T09:32:08Z</time>
      </trkpt>
      <trkpt lat="45.25739" lon="6.03618">
        <ele>1956.4560546875</ele>
        <time>2017-11-29T09:32:14Z</time>
      </trkpt>
      <trkpt lat="45.25735" lon="6.03615">
        <ele>1955.4560546875</ele>
        <time>2017-11-29T09:32:18Z</time>
      </trkpt>
      <trkpt lat="45.25733" lon="6.03607">
        <ele>1956.4560546875</ele>
        <time>2017-11-29T09:32:26Z</time>
      </trkpt>
      <trkpt lat="45.25735" lon="6.03602">
        <ele>1963.4560546875</ele>
        <time>2017-11-29T09:32:35Z</time>
      </trkpt>
      <trkpt lat="45.25732" lon="6.03595">
        <ele>1965.4560546875</ele>
        <time>2017-11-29T09:32:56Z</time>
      </trkpt>
      <trkpt lat="45.25734" lon="6.03589">
        <ele>1968.4560546875</ele>
        <time>2017-11-29T09:33:03Z</time>
      </trkpt>
      <trkpt lat="45.25732" lon="6.03583">
        <ele>1971.4560546875</ele>
        <time>2017-11-29T09:33:10Z</time>
      </trkpt>
      <trkpt lat="45.25731" lon="6.03575">
        <ele>1970.4560546875</ele>
        <time>2017-11-29T09:33:20Z</time>
      </trkpt>
      <trkpt lat="45.25729" lon="6.03567">
        <ele>1976.4560546875</ele>
        <time>2017-11-29T09:33:35Z</time>
      </trkpt>
      <trkpt lat="45.25729" lon="6.0356">
        <ele>1974.4560546875</ele>
        <time>2017-11-29T09:33:46Z</time>
      </trkpt>
      <trkpt lat="45.2573" lon="6.03554">
        <ele>1977.4560546875</ele>
        <time>2017-11-29T09:33:53Z</time>
      </trkpt>
      <trkpt lat="45.25727" lon="6.03547">
        <ele>1974.4560546875</ele>
        <time>2017-11-29T09:34:01Z</time>
      </trkpt>
      <trkpt lat="45.25726" lon="6.0354">
        <ele>1976.4560546875</ele>
        <time>2017-11-29T09:34:06Z</time>
      </trkpt>
      <trkpt lat="45.25723" lon="6.03532">
        <ele>1973.4560546875</ele>
        <time>2017-11-29T09:34:19Z</time>
      </trkpt>
      <trkpt lat="45.25719" lon="6.03528">
        <ele>1971.4560546875</ele>
        <time>2017-11-29T09:34:24Z</time>
      </trkpt>
      <trkpt lat="45.25722" lon="6.03521">
        <ele>1981.4560546875</ele>
        <time>2017-11-29T09:34:34Z</time>
      </trkpt>
      <trkpt lat="45.25719" lon="6.03515">
        <ele>1982.4560546875</ele>
        <time>2017-11-29T09:34:37Z</time>
      </trkpt>
      <trkpt lat="45.25719" lon="6.03508">
        <ele>1984.4560546875</ele>
        <time>2017-11-29T09:34:45Z</time>
      </trkpt>
      <trkpt lat="45.2572" lon="6.03502">
        <ele>1985.4560546875</ele>
        <time>2017-11-29T09:34:51Z</time>
      </trkpt>
      <trkpt lat="45.25717" lon="6.03496">
        <ele>1987.4560546875</ele>
        <time>2017-11-29T09:35:07Z</time>
      </trkpt>
      <trkpt lat="45.2572" lon="6.03491">
        <ele>1991.4560546875</ele>
        <time>2017-11-29T09:35:15Z</time>
      </trkpt>
      <trkpt lat="45.25722" lon="6.03485">
        <ele>1993.4560546875</ele>
        <time>2017-11-29T09:35:21Z</time>
      </trkpt>
      <trkpt lat="45.25724" lon="6.03479">
        <ele>1995.4560546875</ele>
        <time>2017-11-29T09:35:29Z</time>
      </trkpt>
      <trkpt lat="45.25722" lon="6.03472">
        <ele>1995.4560546875</ele>
        <time>2017-11-29T09:35:36Z</time>
      </trkpt>
      <trkpt lat="45.25724" lon="6.03464">
        <ele>1997.4560546875</ele>
        <time>2017-11-29T09:35:42Z</time>
      </trkpt>
      <trkpt lat="45.25725" lon="6.03458">
        <ele>1997.4560546875</ele>
        <time>2017-11-29T09:35:47Z</time>
      </trkpt>
      <trkpt lat="45.25727" lon="6.0345">
        <ele>1996.4560546875</ele>
        <time>2017-11-29T09:35:52Z</time>
      </trkpt>
      <trkpt lat="45.25726" lon="6.03443">
        <ele>1997.4560546875</ele>
        <time>2017-11-29T09:35:58Z</time>
      </trkpt>
      <trkpt lat="45.25727" lon="6.03436">
        <ele>2003.4560546875</ele>
        <time>2017-11-29T09:36:05Z</time>
      </trkpt>
      <trkpt lat="45.25726" lon="6.0343">
        <ele>2004.4560546875</ele>
        <time>2017-11-29T09:36:10Z</time>
      </trkpt>
      <trkpt lat="45.25727" lon="6.03422">
        <ele>2006.4560546875</ele>
        <time>2017-11-29T09:36:18Z</time>
      </trkpt>
      <trkpt lat="45.25723" lon="6.03418">
        <ele>2005.4560546875</ele>
        <time>2017-11-29T09:36:22Z</time>
      </trkpt>
      <trkpt lat="45.25718" lon="6.03414">
        <ele>2001.4560546875</ele>
        <time>2017-11-29T09:36:25Z</time>
      </trkpt>
      <trkpt lat="45.25715" lon="6.03407">
        <ele>1998.4560546875</ele>
        <time>2017-11-29T09:36:39Z</time>
      </trkpt>
      <trkpt lat="45.25719" lon="6.03403">
        <ele>2006.4560546875</ele>
        <time>2017-11-29T09:36:49Z</time>
      </trkpt>
      <trkpt lat="45.2572" lon="6.03395">
        <ele>2009.4560546875</ele>
        <time>2017-11-29T09:37:14Z</time>
      </trkpt>
      <trkpt lat="45.25724" lon="6.03391">
        <ele>2009.4560546875</ele>
        <time>2017-11-29T09:37:20Z</time>
      </trkpt>
      <trkpt lat="45.25727" lon="6.03384">
        <ele>2008.4560546875</ele>
        <time>2017-11-29T09:37:29Z</time>
      </trkpt>
      <trkpt lat="45.25731" lon="6.03381">
        <ele>2013.4560546875</ele>
        <time>2017-11-29T09:37:33Z</time>
      </trkpt>
      <trkpt lat="45.25731" lon="6.03373">
        <ele>2014.4560546875</ele>
        <time>2017-11-29T09:37:43Z</time>
      </trkpt>
      <trkpt lat="45.25733" lon="6.03366">
        <ele>2016.4560546875</ele>
        <time>2017-11-29T09:37:48Z</time>
      </trkpt>
      <trkpt lat="45.25731" lon="6.03358">
        <ele>2014.4560546875</ele>
        <time>2017-11-29T09:37:54Z</time>
      </trkpt>
      <trkpt lat="45.25733" lon="6.03352">
        <ele>2016.4560546875</ele>
        <time>2017-11-29T09:38:00Z</time>
      </trkpt>
      <trkpt lat="45.25737" lon="6.03346">
        <ele>2022.4560546875</ele>
        <time>2017-11-29T09:38:05Z</time>
      </trkpt>
      <trkpt lat="45.2574" lon="6.03339">
        <ele>2022.4560546875</ele>
        <time>2017-11-29T09:38:14Z</time>
      </trkpt>
      <trkpt lat="45.25741" lon="6.03333">
        <ele>2022.4560546875</ele>
        <time>2017-11-29T09:38:20Z</time>
      </trkpt>
      <trkpt lat="45.25743" lon="6.03326">
        <ele>2022.4560546875</ele>
        <time>2017-11-29T09:38:38Z</time>
      </trkpt>
      <trkpt lat="45.25745" lon="6.0332">
        <ele>2022.4560546875</ele>
        <time>2017-11-29T09:38:44Z</time>
      </trkpt>
      <trkpt lat="45.25747" lon="6.03314">
        <ele>2022.4560546875</ele>
        <time>2017-11-29T09:38:49Z</time>
      </trkpt>
      <trkpt lat="45.25749" lon="6.03308">
        <ele>2021.4560546875</ele>
        <time>2017-11-29T09:38:56Z</time>
      </trkpt>
      <trkpt lat="45.25751" lon="6.03301">
        <ele>2021.4560546875</ele>
        <time>2017-11-29T09:39:00Z</time>
      </trkpt>
      <trkpt lat="45.25751" lon="6.03294">
        <ele>2019.4560546875</ele>
        <time>2017-11-29T09:39:07Z</time>
      </trkpt>
      <trkpt lat="45.25754" lon="6.03289">
        <ele>2023.4560546875</ele>
        <time>2017-11-29T09:39:13Z</time>
      </trkpt>
      <trkpt lat="45.25757" lon="6.03284">
        <ele>2028.4560546875</ele>
        <time>2017-11-29T09:39:22Z</time>
      </trkpt>
      <trkpt lat="45.2576" lon="6.03277">
        <ele>2031.4560546875</ele>
        <time>2017-11-29T09:39:32Z</time>
      </trkpt>
      <trkpt lat="45.25762" lon="6.03271">
        <ele>2035.4560546875</ele>
        <time>2017-11-29T09:39:38Z</time>
      </trkpt>
      <trkpt lat="45.25766" lon="6.03266">
        <ele>2035.4560546875</ele>
        <time>2017-11-29T09:39:46Z</time>
      </trkpt>
      <trkpt lat="45.25767" lon="6.0326">
        <ele>2036.4560546875</ele>
        <time>2017-11-29T09:39:53Z</time>
      </trkpt>
      <trkpt lat="45.25765" lon="6.03254">
        <ele>2037.4560546875</ele>
        <time>2017-11-29T09:40:01Z</time>
      </trkpt>
      <trkpt lat="45.25763" lon="6.03247">
        <ele>2038.4560546875</ele>
        <time>2017-11-29T09:40:08Z</time>
      </trkpt>
      <trkpt lat="45.25762" lon="6.03241">
        <ele>2040.4560546875</ele>
        <time>2017-11-29T09:40:23Z</time>
      </trkpt>
      <trkpt lat="45.25765" lon="6.03236">
        <ele>2043.4560546875</ele>
        <time>2017-11-29T09:40:34Z</time>
      </trkpt>
      <trkpt lat="45.25766" lon="6.03229">
        <ele>2045.4560546875</ele>
        <time>2017-11-29T09:40:45Z</time>
      </trkpt>
      <trkpt lat="45.25765" lon="6.03222">
        <ele>2048.4560546875</ele>
        <time>2017-11-29T09:40:58Z</time>
      </trkpt>
      <trkpt lat="45.25764" lon="6.03215">
        <ele>2054.4560546875</ele>
        <time>2017-11-29T09:41:06Z</time>
      </trkpt>
      <trkpt lat="45.2576" lon="6.03211">
        <ele>2060.4560546875</ele>
        <time>2017-11-29T09:41:18Z</time>
      </trkpt>
      <trkpt lat="45.25766" lon="6.0321">
        <ele>2049.4560546875</ele>
        <time>2017-11-29T09:45:43Z</time>
      </trkpt>
      <trkpt lat="45.25771" lon="6.03211">
        <ele>2047.4560546875</ele>
        <time>2017-11-29T09:45:46Z</time>
      </trkpt>
      <trkpt lat="45.25778" lon="6.03211">
        <ele>2046.4560546875</ele>
        <time>2017-11-29T09:45:49Z</time>
      </trkpt>
      <trkpt lat="45.25784" lon="6.0321">
        <ele>2046.4560546875</ele>
        <time>2017-11-29T09:45:51Z</time>
      </trkpt>
      <trkpt lat="45.25793" lon="6.03209">
        <ele>2045.4560546875</ele>
        <time>2017-11-29T09:45:53Z</time>
      </trkpt>
      <trkpt lat="45.25801" lon="6.03202">
        <ele>2044.4560546875</ele>
        <time>2017-11-29T09:45:55Z</time>
      </trkpt>
      <trkpt lat="45.25812" lon="6.03193">
        <ele>2044.4560546875</ele>
        <time>2017-11-29T09:45:57Z</time>
      </trkpt>
      <trkpt lat="45.2582" lon="6.0318">
        <ele>2041.4560546875</ele>
        <time>2017-11-29T09:45:59Z</time>
      </trkpt>
      <trkpt lat="45.25828" lon="6.03162">
        <ele>2040.4560546875</ele>
        <time>2017-11-29T09:46:01Z</time>
      </trkpt>
      <trkpt lat="45.25839" lon="6.03143">
        <ele>2039.4560546875</ele>
        <time>2017-11-29T09:46:03Z</time>
      </trkpt>
      <trkpt lat="45.25848" lon="6.03129">
        <ele>2040.4560546875</ele>
        <time>2017-11-29T09:46:05Z</time>
      </trkpt>
      <trkpt lat="45.25857" lon="6.03111">
        <ele>2040.4560546875</ele>
        <time>2017-11-29T09:46:07Z</time>
      </trkpt>
      <trkpt lat="45.25877" lon="6.03104">
        <ele>2040.4560546875</ele>
        <time>2017-11-29T09:46:09Z</time>
      </trkpt>
      <trkpt lat="45.25884" lon="6.03096">
        <ele>2040.4560546875</ele>
        <time>2017-11-29T09:46:10Z</time>
      </trkpt>
      <trkpt lat="45.25898" lon="6.031">
        <ele>2035.4560546875</ele>
        <time>2017-11-29T09:46:12Z</time>
      </trkpt>
      <trkpt lat="45.25905" lon="6.03122">
        <ele>2027.4560546875</ele>
        <time>2017-11-29T09:46:14Z</time>
      </trkpt>
      <trkpt lat="45.25925" lon="6.03139">
        <ele>2023.4560546875</ele>
        <time>2017-11-29T09:46:16Z</time>
      </trkpt>
      <trkpt lat="45.25936" lon="6.03156">
        <ele>2009.4560546875</ele>
        <time>2017-11-29T09:46:18Z</time>
      </trkpt>
      <trkpt lat="45.25952" lon="6.03174">
        <ele>1997.4560546875</ele>
        <time>2017-11-29T09:46:20Z</time>
      </trkpt>
      <trkpt lat="45.25972" lon="6.03189">
        <ele>1992.4560546875</ele>
        <time>2017-11-29T09:46:22Z</time>
      </trkpt>
      <trkpt lat="45.25998" lon="6.03191">
        <ele>1991.4560546875</ele>
        <time>2017-11-29T09:46:24Z</time>
      </trkpt>
      <trkpt lat="45.26" lon="6.03178">
        <ele>1980.4560546875</ele>
        <time>2017-11-29T09:46:26Z</time>
      </trkpt>
      <trkpt lat="45.26011" lon="6.03163">
        <ele>2096.4560546875</ele>
        <time>2017-11-29T09:46:28Z</time>
      </trkpt>
      <trkpt lat="45.26013" lon="6.03151">
        <ele>2089.4560546875</ele>
        <time>2017-11-29T09:46:29Z</time>
      </trkpt>
      <trkpt lat="45.26016" lon="6.03119">
        <ele>2038.4560546875</ele>
        <time>2017-11-29T09:46:31Z</time>
      </trkpt>
      <trkpt lat="45.26025" lon="6.03085">
        <ele>2013.4560546875</ele>
        <time>2017-11-29T09:46:33Z</time>
      </trkpt>
      <trkpt lat="45.26038" lon="6.03066">
        <ele>2001.4560546875</ele>
        <time>2017-11-29T09:46:34Z</time>
      </trkpt>
      <trkpt lat="45.26044" lon="6.03027">
        <ele>1981.4560546875</ele>
        <time>2017-11-29T09:46:36Z</time>
      </trkpt>
      <trkpt lat="45.26048" lon="6.02996">
        <ele>1966.4560546875</ele>
        <time>2017-11-29T09:46:38Z</time>
      </trkpt>
      <trkpt lat="45.26052" lon="6.02977">
        <ele>1947.4560546875</ele>
        <time>2017-11-29T09:46:40Z</time>
      </trkpt>
      <trkpt lat="45.2605" lon="6.02962">
        <ele>1936.4560546875</ele>
        <time>2017-11-29T09:46:44Z</time>
      </trkpt>
      <trkpt lat="45.26051" lon="6.02954">
        <ele>1920.4560546875</ele>
        <time>2017-11-29T09:47:01Z</time>
      </trkpt>
      <trkpt lat="45.26054" lon="6.02944">
        <ele>1920.4560546875</ele>
        <time>2017-11-29T09:47:03Z</time>
      </trkpt>
      <trkpt lat="45.26057" lon="6.02932">
        <ele>1919.4560546875</ele>
        <time>2017-11-29T09:47:05Z</time>
      </trkpt>
      <trkpt lat="45.26061" lon="6.02916">
        <ele>1917.4560546875</ele>
        <time>2017-11-29T09:47:07Z</time>
      </trkpt>
      <trkpt lat="45.26066" lon="6.02901">
        <ele>1916.4560546875</ele>
        <time>2017-11-29T09:47:09Z</time>
      </trkpt>
      <trkpt lat="45.26068" lon="6.02882">
        <ele>1913.4560546875</ele>
        <time>2017-11-29T09:47:11Z</time>
      </trkpt>
      <trkpt lat="45.26073" lon="6.02864">
        <ele>1909.4560546875</ele>
        <time>2017-11-29T09:47:13Z</time>
      </trkpt>
      <trkpt lat="45.26079" lon="6.0285">
        <ele>1902.4560546875</ele>
        <time>2017-11-29T09:47:15Z</time>
      </trkpt>
      <trkpt lat="45.26079" lon="6.02831">
        <ele>1894.4560546875</ele>
        <time>2017-11-29T09:47:17Z</time>
      </trkpt>
      <trkpt lat="45.26081" lon="6.02805">
        <ele>1890.4560546875</ele>
        <time>2017-11-29T09:47:19Z</time>
      </trkpt>
      <trkpt lat="45.26087" lon="6.02778">
        <ele>1888.4560546875</ele>
        <time>2017-11-29T09:47:21Z</time>
      </trkpt>
      <trkpt lat="45.26091" lon="6.02755">
        <ele>1885.4560546875</ele>
        <time>2017-11-29T09:47:23Z</time>
      </trkpt>
      <trkpt lat="45.26093" lon="6.02742">
        <ele>1884.4560546875</ele>
        <time>2017-11-29T09:47:24Z</time>
      </trkpt>
      <trkpt lat="45.26096" lon="6.02717">
        <ele>1880.4560546875</ele>
        <time>2017-11-29T09:47:26Z</time>
      </trkpt>
      <trkpt lat="45.26106" lon="6.02693">
        <ele>1878.4560546875</ele>
        <time>2017-11-29T09:47:28Z</time>
      </trkpt>
      <trkpt lat="45.2612" lon="6.02685">
        <ele>1877.4560546875</ele>
        <time>2017-11-29T09:47:30Z</time>
      </trkpt>
      <trkpt lat="45.26125" lon="6.0268">
        <ele>1875.4560546875</ele>
        <time>2017-11-29T09:47:32Z</time>
      </trkpt>
      <trkpt lat="45.26126" lon="6.02687">
        <ele>1861.4560546875</ele>
        <time>2017-11-29T09:47:44Z</time>
      </trkpt>
      <trkpt lat="45.26132" lon="6.02692">
        <ele>1857.4560546875</ele>
        <time>2017-11-29T09:47:46Z</time>
      </trkpt>
      <trkpt lat="45.26139" lon="6.02703">
        <ele>1854.4560546875</ele>
        <time>2017-11-29T09:47:48Z</time>
      </trkpt>
      <trkpt lat="45.26146" lon="6.02715">
        <ele>1845.4560546875</ele>
        <time>2017-11-29T09:47:51Z</time>
      </trkpt>
      <trkpt lat="45.26152" lon="6.0272">
        <ele>1844.4560546875</ele>
        <time>2017-11-29T09:47:52Z</time>
      </trkpt>
      <trkpt lat="45.26165" lon="6.02728">
        <ele>1841.4560546875</ele>
        <time>2017-11-29T09:47:54Z</time>
      </trkpt>
      <trkpt lat="45.26178" lon="6.02734">
        <ele>1839.4560546875</ele>
        <time>2017-11-29T09:47:56Z</time>
      </trkpt>
      <trkpt lat="45.26184" lon="6.02738">
        <ele>1838.4560546875</ele>
        <time>2017-11-29T09:47:57Z</time>
      </trkpt>
      <trkpt lat="45.26197" lon="6.02749">
        <ele>1835.4560546875</ele>
        <time>2017-11-29T09:47:59Z</time>
      </trkpt>
      <trkpt lat="45.26206" lon="6.02746">
        <ele>1834.4560546875</ele>
        <time>2017-11-29T09:48:00Z</time>
      </trkpt>
      <trkpt lat="45.26207" lon="6.02756">
        <ele>1825.4560546875</ele>
        <time>2017-11-29T09:48:02Z</time>
      </trkpt>
      <trkpt lat="45.26214" lon="6.02762">
        <ele>1822.4560546875</ele>
        <time>2017-11-29T09:48:04Z</time>
      </trkpt>
      <trkpt lat="45.26227" lon="6.02777">
        <ele>1814.4560546875</ele>
        <time>2017-11-29T09:48:07Z</time>
      </trkpt>
      <trkpt lat="45.26233" lon="6.0278">
        <ele>1813.4560546875</ele>
        <time>2017-11-29T09:48:08Z</time>
      </trkpt>
      <trkpt lat="45.26248" lon="6.02785">
        <ele>1809.4560546875</ele>
        <time>2017-11-29T09:48:11Z</time>
      </trkpt>
      <trkpt lat="45.26258" lon="6.02792">
        <ele>1802.4560546875</ele>
        <time>2017-11-29T09:48:13Z</time>
      </trkpt>
      <trkpt lat="45.2627" lon="6.02799">
        <ele>1798.4560546875</ele>
        <time>2017-11-29T09:48:15Z</time>
      </trkpt>
      <trkpt lat="45.26284" lon="6.02801">
        <ele>1791.4560546875</ele>
        <time>2017-11-29T09:48:17Z</time>
      </trkpt>
      <trkpt lat="45.26301" lon="6.02801">
        <ele>1787.4560546875</ele>
        <time>2017-11-29T09:48:19Z</time>
      </trkpt>
      <trkpt lat="45.26321" lon="6.02797">
        <ele>1779.4560546875</ele>
        <time>2017-11-29T09:48:21Z</time>
      </trkpt>
      <trkpt lat="45.26339" lon="6.02786">
        <ele>1769.4560546875</ele>
        <time>2017-11-29T09:48:23Z</time>
      </trkpt>
      <trkpt lat="45.26348" lon="6.02777">
        <ele>1768.4560546875</ele>
        <time>2017-11-29T09:48:24Z</time>
      </trkpt>
      <trkpt lat="45.26366" lon="6.02764">
        <ele>1764.45703125</ele>
        <time>2017-11-29T09:48:26Z</time>
      </trkpt>
      <trkpt lat="45.2638" lon="6.02748">
        <ele>1763.45703125</ele>
        <time>2017-11-29T09:48:28Z</time>
      </trkpt>
      <trkpt lat="45.26381" lon="6.0273">
        <ele>1802.4560546875</ele>
        <time>2017-11-29T09:48:30Z</time>
      </trkpt>
      <trkpt lat="45.2638" lon="6.02714">
        <ele>1789.4560546875</ele>
        <time>2017-11-29T09:48:32Z</time>
      </trkpt>
      <trkpt lat="45.26379" lon="6.02695">
        <ele>1781.4560546875</ele>
        <time>2017-11-29T09:48:34Z</time>
      </trkpt>
      <trkpt lat="45.26377" lon="6.02686">
        <ele>1768.4560546875</ele>
        <time>2017-11-29T09:48:35Z</time>
      </trkpt>
      <trkpt lat="45.26374" lon="6.02666">
        <ele>1761.4560546875</ele>
        <time>2017-11-29T09:48:37Z</time>
      </trkpt>
      <trkpt lat="45.26368" lon="6.02647">
        <ele>1758.4560546875</ele>
        <time>2017-11-29T09:48:39Z</time>
      </trkpt>
      <trkpt lat="45.26362" lon="6.02629">
        <ele>1756.4560546875</ele>
        <time>2017-11-29T09:48:41Z</time>
      </trkpt>
      <trkpt lat="45.26355" lon="6.02613">
        <ele>1753.4560546875</ele>
        <time>2017-11-29T09:48:43Z</time>
      </trkpt>
      <trkpt lat="45.26347" lon="6.02597">
        <ele>1751.4560546875</ele>
        <time>2017-11-29T09:48:46Z</time>
      </trkpt>
      <trkpt lat="45.26337" lon="6.02586">
        <ele>1749.4560546875</ele>
        <time>2017-11-29T09:48:49Z</time>
      </trkpt>
      <trkpt lat="45.2633" lon="6.02585">
        <ele>1748.4560546875</ele>
        <time>2017-11-29T09:48:51Z</time>
      </trkpt>
      <trkpt lat="45.26322" lon="6.02576">
        <ele>1748.4560546875</ele>
        <time>2017-11-29T09:48:53Z</time>
      </trkpt>
      <trkpt lat="45.26316" lon="6.02572">
        <ele>1746.4560546875</ele>
        <time>2017-11-29T09:48:55Z</time>
      </trkpt>
      <trkpt lat="45.26308" lon="6.02566">
        <ele>1745.4560546875</ele>
        <time>2017-11-29T09:48:57Z</time>
      </trkpt>
      <trkpt lat="45.26302" lon="6.02561">
        <ele>1744.4560546875</ele>
        <time>2017-11-29T09:48:59Z</time>
      </trkpt>
      <trkpt lat="45.26296" lon="6.02552">
        <ele>1743.4560546875</ele>
        <time>2017-11-29T09:49:01Z</time>
      </trkpt>
      <trkpt lat="45.26292" lon="6.02545">
        <ele>1740.4560546875</ele>
        <time>2017-11-29T09:49:03Z</time>
      </trkpt>
      <trkpt lat="45.26287" lon="6.02533">
        <ele>1741.4560546875</ele>
        <time>2017-11-29T09:49:05Z</time>
      </trkpt>
      <trkpt lat="45.26281" lon="6.02527">
        <ele>1739.4560546875</ele>
        <time>2017-11-29T09:49:07Z</time>
      </trkpt>
      <trkpt lat="45.26274" lon="6.02517">
        <ele>1739.4560546875</ele>
        <time>2017-11-29T09:49:09Z</time>
      </trkpt>
      <trkpt lat="45.26261" lon="6.02498">
        <ele>1737.4560546875</ele>
        <time>2017-11-29T09:49:13Z</time>
      </trkpt>
      <trkpt lat="45.26254" lon="6.02485">
        <ele>1735.4560546875</ele>
        <time>2017-11-29T09:49:15Z</time>
      </trkpt>
      <trkpt lat="45.26248" lon="6.02472">
        <ele>1936.4560546875</ele>
        <time>2017-11-29T09:49:17Z</time>
      </trkpt>
      <trkpt lat="45.26242" lon="6.02456">
        <ele>1818.4560546875</ele>
        <time>2017-11-29T09:49:19Z</time>
      </trkpt>
      <trkpt lat="45.26238" lon="6.02438">
        <ele>1780.4560546875</ele>
        <time>2017-11-29T09:49:21Z</time>
      </trkpt>
      <trkpt lat="45.26231" lon="6.02421">
        <ele>1767.4560546875</ele>
        <time>2017-11-29T09:49:23Z</time>
      </trkpt>
      <trkpt lat="45.26228" lon="6.02404">
        <ele>1753.4560546875</ele>
        <time>2017-11-29T09:49:25Z</time>
      </trkpt>
      <trkpt lat="45.26225" lon="6.02394">
        <ele>1743.4560546875</ele>
        <time>2017-11-29T09:49:26Z</time>
      </trkpt>
      <trkpt lat="45.26219" lon="6.02376">
        <ele>1734.4560546875</ele>
        <time>2017-11-29T09:49:28Z</time>
      </trkpt>
      <trkpt lat="45.26212" lon="6.02357">
        <ele>1731.4560546875</ele>
        <time>2017-11-29T09:49:30Z</time>
      </trkpt>
      <trkpt lat="45.26206" lon="6.02343">
        <ele>1726.4560546875</ele>
        <time>2017-11-29T09:49:32Z</time>
      </trkpt>
      <trkpt lat="45.26204" lon="6.02326">
        <ele>1723.4560546875</ele>
        <time>2017-11-29T09:49:34Z</time>
      </trkpt>
      <trkpt lat="45.26199" lon="6.02308">
        <ele>1721.4560546875</ele>
        <time>2017-11-29T09:49:36Z</time>
      </trkpt>
      <trkpt lat="45.26194" lon="6.02295">
        <ele>1720.4560546875</ele>
        <time>2017-11-29T09:49:38Z</time>
      </trkpt>
      <trkpt lat="45.26188" lon="6.0228">
        <ele>1717.4549560547</ele>
        <time>2017-11-29T09:49:41Z</time>
      </trkpt>
      <trkpt lat="45.26184" lon="6.02268">
        <ele>1716.4549560547</ele>
        <time>2017-11-29T09:49:43Z</time>
      </trkpt>
      <trkpt lat="45.26179" lon="6.02252">
        <ele>1714.4549560547</ele>
        <time>2017-11-29T09:49:45Z</time>
      </trkpt>
      <trkpt lat="45.26173" lon="6.02234">
        <ele>1711.4549560547</ele>
        <time>2017-11-29T09:49:47Z</time>
      </trkpt>
      <trkpt lat="45.26167" lon="6.02216">
        <ele>1711.4549560547</ele>
        <time>2017-11-29T09:49:49Z</time>
      </trkpt>
      <trkpt lat="45.26161" lon="6.02198">
        <ele>1711.4549560547</ele>
        <time>2017-11-29T09:49:51Z</time>
      </trkpt>
      <trkpt lat="45.26158" lon="6.02183">
        <ele>1709.4549560547</ele>
        <time>2017-11-29T09:49:53Z</time>
      </trkpt>
      <trkpt lat="45.26154" lon="6.02169">
        <ele>1707.4549560547</ele>
        <time>2017-11-29T09:49:55Z</time>
      </trkpt>
      <trkpt lat="45.26151" lon="6.02154">
        <ele>1705.4549560547</ele>
        <time>2017-11-29T09:49:57Z</time>
      </trkpt>
      <trkpt lat="45.26149" lon="6.0214">
        <ele>1704.4549560547</ele>
        <time>2017-11-29T09:49:59Z</time>
      </trkpt>
      <trkpt lat="45.26145" lon="6.02127">
        <ele>1703.4549560547</ele>
        <time>2017-11-29T09:50:01Z</time>
      </trkpt>
      <trkpt lat="45.26139" lon="6.02113">
        <ele>1703.4549560547</ele>
        <time>2017-11-29T09:50:04Z</time>
      </trkpt>
      <trkpt lat="45.26138" lon="6.02107">
        <ele>1703.4549560547</ele>
        <time>2017-11-29T09:50:06Z</time>
      </trkpt>
      <trkpt lat="45.26138" lon="6.02099">
        <ele>1704.4549560547</ele>
        <time>2017-11-29T09:50:17Z</time>
      </trkpt>
      <trkpt lat="45.26136" lon="6.0209">
        <ele>1703.4549560547</ele>
        <time>2017-11-29T09:50:19Z</time>
      </trkpt>
      <trkpt lat="45.26134" lon="6.02079">
        <ele>1701.4549560547</ele>
        <time>2017-11-29T09:50:21Z</time>
      </trkpt>
      <trkpt lat="45.26132" lon="6.02066">
        <ele>1701.4549560547</ele>
        <time>2017-11-29T09:50:23Z</time>
      </trkpt>
      <trkpt lat="45.26126" lon="6.02053">
        <ele>1699.4549560547</ele>
        <time>2017-11-29T09:50:25Z</time>
      </trkpt>
      <trkpt lat="45.26117" lon="6.02043">
        <ele>1698.4549560547</ele>
        <time>2017-11-29T09:50:27Z</time>
      </trkpt>
      <trkpt lat="45.26112" lon="6.02031">
        <ele>1697.4549560547</ele>
        <time>2017-11-29T09:50:29Z</time>
      </trkpt>
      <trkpt lat="45.26107" lon="6.02019">
        <ele>1696.4549560547</ele>
        <time>2017-11-29T09:50:31Z</time>
      </trkpt>
      <trkpt lat="45.26102" lon="6.02008">
        <ele>1694.4549560547</ele>
        <time>2017-11-29T09:50:33Z</time>
      </trkpt>
      <trkpt lat="45.26094" lon="6.01998">
        <ele>1693.4549560547</ele>
        <time>2017-11-29T09:50:35Z</time>
      </trkpt>
      <trkpt lat="45.26086" lon="6.01989">
        <ele>1693.4549560547</ele>
        <time>2017-11-29T09:50:37Z</time>
      </trkpt>
      <trkpt lat="45.26078" lon="6.01982">
        <ele>1691.4549560547</ele>
        <time>2017-11-29T09:50:39Z</time>
      </trkpt>
      <trkpt lat="45.2607" lon="6.01976">
        <ele>1689.4549560547</ele>
        <time>2017-11-29T09:50:41Z</time>
      </trkpt>
      <trkpt lat="45.26062" lon="6.01967">
        <ele>1689.4549560547</ele>
        <time>2017-11-29T09:50:43Z</time>
      </trkpt>
      <trkpt lat="45.26056" lon="6.01956">
        <ele>1688.4549560547</ele>
        <time>2017-11-29T09:50:45Z</time>
      </trkpt>
      <trkpt lat="45.26053" lon="6.01947">
        <ele>1688.4549560547</ele>
        <time>2017-11-29T09:50:47Z</time>
      </trkpt>
      <trkpt lat="45.2605" lon="6.01939">
        <ele>1688.4549560547</ele>
        <time>2017-11-29T09:50:49Z</time>
      </trkpt>
      <trkpt lat="45.26048" lon="6.01932">
        <ele>1689.4549560547</ele>
        <time>2017-11-29T09:50:51Z</time>
      </trkpt>
      <trkpt lat="45.26048" lon="6.01925">
        <ele>1687.4549560547</ele>
        <time>2017-11-29T09:50:54Z</time>
      </trkpt>
      <trkpt lat="45.26051" lon="6.01918">
        <ele>1686.4549560547</ele>
        <time>2017-11-29T09:50:56Z</time>
      </trkpt>
      <trkpt lat="45.26053" lon="6.01904">
        <ele>1683.4549560547</ele>
        <time>2017-11-29T09:50:58Z</time>
      </trkpt>
      <trkpt lat="45.26052" lon="6.0189">
        <ele>1681.4549560547</ele>
        <time>2017-11-29T09:51:00Z</time>
      </trkpt>
      <trkpt lat="45.26048" lon="6.01877">
        <ele>1681.4549560547</ele>
        <time>2017-11-29T09:51:02Z</time>
      </trkpt>
      <trkpt lat="45.26041" lon="6.01863">
        <ele>1680.4549560547</ele>
        <time>2017-11-29T09:51:04Z</time>
      </trkpt>
      <trkpt lat="45.26034" lon="6.0185">
        <ele>1679.4549560547</ele>
        <time>2017-11-29T09:51:06Z</time>
      </trkpt>
      <trkpt lat="45.26027" lon="6.01838">
        <ele>1677.4549560547</ele>
        <time>2017-11-29T09:51:08Z</time>
      </trkpt>
      <trkpt lat="45.26022" lon="6.01823">
        <ele>1676.4549560547</ele>
        <time>2017-11-29T09:51:10Z</time>
      </trkpt>
      <trkpt lat="45.26017" lon="6.01807">
        <ele>1674.4549560547</ele>
        <time>2017-11-29T09:51:12Z</time>
      </trkpt>
      <trkpt lat="45.26015" lon="6.01794">
        <ele>1674.4539794922</ele>
        <time>2017-11-29T09:51:14Z</time>
      </trkpt>
      <trkpt lat="45.26014" lon="6.01781">
        <ele>1674.4539794922</ele>
        <time>2017-11-29T09:51:16Z</time>
      </trkpt>
      <trkpt lat="45.26013" lon="6.01767">
        <ele>1674.4539794922</ele>
        <time>2017-11-29T09:51:18Z</time>
      </trkpt>
      <trkpt lat="45.26011" lon="6.01754">
        <ele>1674.4539794922</ele>
        <time>2017-11-29T09:51:20Z</time>
      </trkpt>
      <trkpt lat="45.26009" lon="6.01742">
        <ele>1673.4539794922</ele>
        <time>2017-11-29T09:51:22Z</time>
      </trkpt>
      <trkpt lat="45.26006" lon="6.01732">
        <ele>1673.4539794922</ele>
        <time>2017-11-29T09:51:24Z</time>
      </trkpt>
      <trkpt lat="45.26004" lon="6.01723">
        <ele>1672.4539794922</ele>
        <time>2017-11-29T09:51:26Z</time>
      </trkpt>
      <trkpt lat="45.25999" lon="6.01714">
        <ele>1671.4539794922</ele>
        <time>2017-11-29T09:51:28Z</time>
      </trkpt>
      <trkpt lat="45.25994" lon="6.01703">
        <ele>1670.4539794922</ele>
        <time>2017-11-29T09:51:30Z</time>
      </trkpt>
      <trkpt lat="45.25989" lon="6.01694">
        <ele>1669.4539794922</ele>
        <time>2017-11-29T09:51:32Z</time>
      </trkpt>
      <trkpt lat="45.25983" lon="6.01688">
        <ele>1668.4539794922</ele>
        <time>2017-11-29T09:51:34Z</time>
      </trkpt>
      <trkpt lat="45.25977" lon="6.01679">
        <ele>1667.4539794922</ele>
        <time>2017-11-29T09:51:36Z</time>
      </trkpt>
      <trkpt lat="45.25965" lon="6.01668">
        <ele>1666.4539794922</ele>
        <time>2017-11-29T09:51:39Z</time>
      </trkpt>
      <trkpt lat="45.25957" lon="6.01662">
        <ele>1664.4539794922</ele>
        <time>2017-11-29T09:51:41Z</time>
      </trkpt>
      <trkpt lat="45.25948" lon="6.01657">
        <ele>1663.4539794922</ele>
        <time>2017-11-29T09:51:43Z</time>
      </trkpt>
      <trkpt lat="45.25938" lon="6.01651">
        <ele>1662.4539794922</ele>
        <time>2017-11-29T09:51:45Z</time>
      </trkpt>
      <trkpt lat="45.25928" lon="6.01647">
        <ele>1660.4539794922</ele>
        <time>2017-11-29T09:51:47Z</time>
      </trkpt>
      <trkpt lat="45.25918" lon="6.01642">
        <ele>1658.4539794922</ele>
        <time>2017-11-29T09:51:49Z</time>
      </trkpt>
      <trkpt lat="45.25907" lon="6.01637">
        <ele>1657.4539794922</ele>
        <time>2017-11-29T09:51:51Z</time>
      </trkpt>
      <trkpt lat="45.25901" lon="6.01635">
        <ele>1656.4539794922</ele>
        <time>2017-11-29T09:51:52Z</time>
      </trkpt>
      <trkpt lat="45.25889" lon="6.0163">
        <ele>1656.4539794922</ele>
        <time>2017-11-29T09:51:54Z</time>
      </trkpt>
      <trkpt lat="45.25885" lon="6.01626">
        <ele>1654.4539794922</ele>
        <time>2017-11-29T09:51:55Z</time>
      </trkpt>
      <trkpt lat="45.25873" lon="6.0162">
        <ele>1654.4539794922</ele>
        <time>2017-11-29T09:51:57Z</time>
      </trkpt>
      <trkpt lat="45.25867" lon="6.01615">
        <ele>1654.4539794922</ele>
        <time>2017-11-29T09:51:58Z</time>
      </trkpt>
      <trkpt lat="45.25856" lon="6.01609">
        <ele>1654.4539794922</ele>
        <time>2017-11-29T09:52:00Z</time>
      </trkpt>
      <trkpt lat="45.25845" lon="6.01604">
        <ele>1653.4539794922</ele>
        <time>2017-11-29T09:52:02Z</time>
      </trkpt>
      <trkpt lat="45.25835" lon="6.01598">
        <ele>1652.4539794922</ele>
        <time>2017-11-29T09:52:04Z</time>
      </trkpt>
      <trkpt lat="45.25828" lon="6.01595">
        <ele>1650.4539794922</ele>
        <time>2017-11-29T09:52:06Z</time>
      </trkpt>
      <trkpt lat="45.25823" lon="6.0159">
        <ele>1651.4539794922</ele>
        <time>2017-11-29T09:52:08Z</time>
      </trkpt>
      <trkpt lat="45.25818" lon="6.01588">
        <ele>1649.4539794922</ele>
        <time>2017-11-29T09:52:10Z</time>
      </trkpt>
      <trkpt lat="45.25814" lon="6.01585">
        <ele>1649.4539794922</ele>
        <time>2017-11-29T09:52:13Z</time>
      </trkpt>
      <trkpt lat="45.2581" lon="6.01577">
        <ele>1646.4539794922</ele>
        <time>2017-11-29T09:52:37Z</time>
      </trkpt>
      <trkpt lat="45.25802" lon="6.01566">
        <ele>1644.4539794922</ele>
        <time>2017-11-29T09:52:39Z</time>
      </trkpt>
      <trkpt lat="45.25798" lon="6.0156">
        <ele>1643.4539794922</ele>
        <time>2017-11-29T09:52:40Z</time>
      </trkpt>
      <trkpt lat="45.25789" lon="6.0155">
        <ele>1643.4539794922</ele>
        <time>2017-11-29T09:52:42Z</time>
      </trkpt>
      <trkpt lat="45.25779" lon="6.01542">
        <ele>1639.4539794922</ele>
        <time>2017-11-29T09:52:44Z</time>
      </trkpt>
      <trkpt lat="45.25767" lon="6.01538">
        <ele>1638.4539794922</ele>
        <time>2017-11-29T09:52:46Z</time>
      </trkpt>
      <trkpt lat="45.25762" lon="6.01533">
        <ele>1638.4539794922</ele>
        <time>2017-11-29T09:52:47Z</time>
      </trkpt>
      <trkpt lat="45.2575" lon="6.01528">
        <ele>1635.4539794922</ele>
        <time>2017-11-29T09:52:49Z</time>
      </trkpt>
      <trkpt lat="45.25739" lon="6.01529">
        <ele>1635.4539794922</ele>
        <time>2017-11-29T09:52:51Z</time>
      </trkpt>
      <trkpt lat="45.25725" lon="6.01529">
        <ele>1634.4539794922</ele>
        <time>2017-11-29T09:52:53Z</time>
      </trkpt>
      <trkpt lat="45.25714" lon="6.01532">
        <ele>1632.4539794922</ele>
        <time>2017-11-29T09:52:55Z</time>
      </trkpt>
      <trkpt lat="45.25707" lon="6.01536">
        <ele>1627.4539794922</ele>
        <time>2017-11-29T09:53:01Z</time>
      </trkpt>
      <trkpt lat="45.25698" lon="6.01533">
        <ele>1628.4539794922</ele>
        <time>2017-11-29T09:53:09Z</time>
      </trkpt>
      <trkpt lat="45.25696" lon="6.01539">
        <ele>1620.4539794922</ele>
        <time>2017-11-29T09:54:27Z</time>
      </trkpt>
      <trkpt lat="45.25687" lon="6.01545">
        <ele>1620.4530029297</ele>
        <time>2017-11-29T09:54:30Z</time>
      </trkpt>
      <trkpt lat="45.25682" lon="6.01548">
        <ele>1619.4530029297</ele>
        <time>2017-11-29T09:54:36Z</time>
      </trkpt>
      <trkpt lat="45.25677" lon="6.01548">
        <ele>1618.4530029297</ele>
        <time>2017-11-29T09:54:42Z</time>
      </trkpt>
      <trkpt lat="45.25674" lon="6.01554">
        <ele>1617.4530029297</ele>
        <time>2017-11-29T09:54:47Z</time>
      </trkpt>
      <trkpt lat="45.25669" lon="6.01555">
        <ele>1612.4530029297</ele>
        <time>2017-11-29T09:54:54Z</time>
      </trkpt>
      <trkpt lat="45.25666" lon="6.0155">
        <ele>1607.4530029297</ele>
        <time>2017-11-29T09:55:03Z</time>
      </trkpt>
      <trkpt lat="45.25661" lon="6.0155">
        <ele>1603.4530029297</ele>
        <time>2017-11-29T09:55:57Z</time>
      </trkpt>
      <trkpt lat="45.25655" lon="6.01551">
        <ele>1603.4530029297</ele>
        <time>2017-11-29T09:55:59Z</time>
      </trkpt>
      <trkpt lat="45.25649" lon="6.01553">
        <ele>1604.4530029297</ele>
        <time>2017-11-29T09:56:01Z</time>
      </trkpt>
      <trkpt lat="45.25639" lon="6.01555">
        <ele>1604.4530029297</ele>
        <time>2017-11-29T09:56:03Z</time>
      </trkpt>
      <trkpt lat="45.25633" lon="6.01556">
        <ele>1603.4530029297</ele>
        <time>2017-11-29T09:56:04Z</time>
      </trkpt>
      <trkpt lat="45.25619" lon="6.0156">
        <ele>1602.4530029297</ele>
        <time>2017-11-29T09:56:06Z</time>
      </trkpt>
      <trkpt lat="45.25604" lon="6.01563">
        <ele>1600.4530029297</ele>
        <time>2017-11-29T09:56:08Z</time>
      </trkpt>
      <trkpt lat="45.25598" lon="6.01565">
        <ele>1598.4530029297</ele>
        <time>2017-11-29T09:56:09Z</time>
      </trkpt>
      <trkpt lat="45.25586" lon="6.01569">
        <ele>1597.4530029297</ele>
        <time>2017-11-29T09:56:11Z</time>
      </trkpt>
      <trkpt lat="45.25578" lon="6.01571">
        <ele>1596.4530029297</ele>
        <time>2017-11-29T09:56:13Z</time>
      </trkpt>
      <trkpt lat="45.25571" lon="6.01571">
        <ele>1596.4530029297</ele>
        <time>2017-11-29T09:56:15Z</time>
      </trkpt>
      <trkpt lat="45.25562" lon="6.0157">
        <ele>1598.4530029297</ele>
        <time>2017-11-29T09:56:17Z</time>
      </trkpt>
      <trkpt lat="45.25557" lon="6.01569">
        <ele>1599.4530029297</ele>
        <time>2017-11-29T09:56:18Z</time>
      </trkpt>
      <trkpt lat="45.25543" lon="6.01574">
        <ele>1598.4530029297</ele>
        <time>2017-11-29T09:56:21Z</time>
      </trkpt>
      <trkpt lat="45.25542" lon="6.01581">
        <ele>1594.4530029297</ele>
        <time>2017-11-29T09:56:24Z</time>
      </trkpt>
      <trkpt lat="45.25536" lon="6.0158">
        <ele>1586.4530029297</ele>
        <time>2017-11-29T09:57:13Z</time>
      </trkpt>
      <trkpt lat="45.25531" lon="6.0158">
        <ele>1584.4530029297</ele>
        <time>2017-11-29T09:57:16Z</time>
      </trkpt>
      <trkpt lat="45.25525" lon="6.01577">
        <ele>1584.4530029297</ele>
        <time>2017-11-29T09:57:19Z</time>
      </trkpt>
      <trkpt lat="45.2552" lon="6.01575">
        <ele>1584.4530029297</ele>
        <time>2017-11-29T09:57:21Z</time>
      </trkpt>
      <trkpt lat="45.25513" lon="6.01571">
        <ele>1583.4530029297</ele>
        <time>2017-11-29T09:57:23Z</time>
      </trkpt>
      <trkpt lat="45.25504" lon="6.01567">
        <ele>1582.4530029297</ele>
        <time>2017-11-29T09:57:25Z</time>
      </trkpt>
      <trkpt lat="45.25491" lon="6.01561">
        <ele>1581.4530029297</ele>
        <time>2017-11-29T09:57:28Z</time>
      </trkpt>
      <trkpt lat="45.25484" lon="6.01559">
        <ele>1581.4530029297</ele>
        <time>2017-11-29T09:57:30Z</time>
      </trkpt>
      <trkpt lat="45.2548" lon="6.01555">
        <ele>1581.4530029297</ele>
        <time>2017-11-29T09:57:32Z</time>
      </trkpt>
      <trkpt lat="45.25475" lon="6.01552">
        <ele>1583.4530029297</ele>
        <time>2017-11-29T09:57:34Z</time>
      </trkpt>
      <trkpt lat="45.25469" lon="6.01547">
        <ele>1582.4530029297</ele>
        <time>2017-11-29T09:57:36Z</time>
      </trkpt>
      <trkpt lat="45.25463" lon="6.0154">
        <ele>1584.4530029297</ele>
        <time>2017-11-29T09:57:39Z</time>
      </trkpt>
      <trkpt lat="45.25459" lon="6.01536">
        <ele>1584.4530029297</ele>
        <time>2017-11-29T09:57:41Z</time>
      </trkpt>
      <trkpt lat="45.25454" lon="6.01535">
        <ele>1578.4530029297</ele>
        <time>2017-11-29T09:57:45Z</time>
      </trkpt>
      <trkpt lat="45.2545" lon="6.01532">
        <ele>1576.4530029297</ele>
        <time>2017-11-29T09:57:49Z</time>
      </trkpt>
      <trkpt lat="45.25447" lon="6.01527">
        <ele>1573.4530029297</ele>
        <time>2017-11-29T09:57:59Z</time>
      </trkpt>
      <trkpt lat="45.25441" lon="6.01528">
        <ele>1573.4530029297</ele>
        <time>2017-11-29T09:58:04Z</time>
      </trkpt>
      <trkpt lat="45.25437" lon="6.01529">
        <ele>1572.4530029297</ele>
        <time>2017-11-29T09:58:06Z</time>
      </trkpt>
      <trkpt lat="45.25432" lon="6.0153">
        <ele>1570.4530029297</ele>
        <time>2017-11-29T09:58:09Z</time>
      </trkpt>
      <trkpt lat="45.25426" lon="6.01527">
        <ele>1569.4530029297</ele>
        <time>2017-11-29T09:58:13Z</time>
      </trkpt>
      <trkpt lat="45.25421" lon="6.01523">
        <ele>1569.4530029297</ele>
        <time>2017-11-29T09:58:15Z</time>
      </trkpt>
      <trkpt lat="45.25415" lon="6.01518">
        <ele>1566.4530029297</ele>
        <time>2017-11-29T09:58:18Z</time>
      </trkpt>
      <trkpt lat="45.25411" lon="6.01514">
        <ele>1565.4530029297</ele>
        <time>2017-11-29T09:58:20Z</time>
      </trkpt>
      <trkpt lat="45.25399" lon="6.01505">
        <ele>1564.4530029297</ele>
        <time>2017-11-29T09:58:23Z</time>
      </trkpt>
      <trkpt lat="45.25393" lon="6.015">
        <ele>1560.4530029297</ele>
        <time>2017-11-29T09:58:25Z</time>
      </trkpt>
      <trkpt lat="45.25386" lon="6.01495">
        <ele>1560.4530029297</ele>
        <time>2017-11-29T09:58:27Z</time>
      </trkpt>
      <trkpt lat="45.25387" lon="6.01489">
        <ele>1558.4530029297</ele>
        <time>2017-11-29T09:58:28Z</time>
      </trkpt>
      <trkpt lat="45.25384" lon="6.01481">
        <ele>1558.4530029297</ele>
        <time>2017-11-29T09:58:30Z</time>
      </trkpt>
      <trkpt lat="45.2538" lon="6.01471">
        <ele>1556.4530029297</ele>
        <time>2017-11-29T09:58:32Z</time>
      </trkpt>
      <trkpt lat="45.25376" lon="6.01458">
        <ele>1556.4530029297</ele>
        <time>2017-11-29T09:58:34Z</time>
      </trkpt>
      <trkpt lat="45.2537" lon="6.01445">
        <ele>1557.4530029297</ele>
        <time>2017-11-29T09:58:36Z</time>
      </trkpt>
      <trkpt lat="45.25367" lon="6.01434">
        <ele>1557.4530029297</ele>
        <time>2017-11-29T09:58:38Z</time>
      </trkpt>
      <trkpt lat="45.25362" lon="6.01421">
        <ele>1556.4530029297</ele>
        <time>2017-11-29T09:58:40Z</time>
      </trkpt>
      <trkpt lat="45.25358" lon="6.01409">
        <ele>1556.4530029297</ele>
        <time>2017-11-29T09:58:42Z</time>
      </trkpt>
      <trkpt lat="45.25353" lon="6.01396">
        <ele>1556.4530029297</ele>
        <time>2017-11-29T09:58:44Z</time>
      </trkpt>
      <trkpt lat="45.2535" lon="6.0139">
        <ele>1555.4530029297</ele>
        <time>2017-11-29T09:58:45Z</time>
      </trkpt>
      <trkpt lat="45.25346" lon="6.01384">
        <ele>1553.4530029297</ele>
        <time>2017-11-29T09:58:46Z</time>
      </trkpt>
      <trkpt lat="45.2534" lon="6.01373">
        <ele>1554.4530029297</ele>
        <time>2017-11-29T09:58:48Z</time>
      </trkpt>
      <trkpt lat="45.25335" lon="6.01367">
        <ele>1555.4530029297</ele>
        <time>2017-11-29T09:58:50Z</time>
      </trkpt>
      <trkpt lat="45.25328" lon="6.01361">
        <ele>1555.4530029297</ele>
        <time>2017-11-29T09:58:52Z</time>
      </trkpt>
      <trkpt lat="45.25324" lon="6.01356">
        <ele>1556.4530029297</ele>
        <time>2017-11-29T09:58:54Z</time>
      </trkpt>
      <trkpt lat="45.2532" lon="6.01352">
        <ele>1555.4520263672</ele>
        <time>2017-11-29T09:58:57Z</time>
      </trkpt>
      <trkpt lat="45.25314" lon="6.01344">
        <ele>1555.4520263672</ele>
        <time>2017-11-29T09:59:00Z</time>
      </trkpt>
      <trkpt lat="45.25308" lon="6.01336">
        <ele>1553.4520263672</ele>
        <time>2017-11-29T09:59:02Z</time>
      </trkpt>
      <trkpt lat="45.25302" lon="6.01327">
        <ele>1551.4520263672</ele>
        <time>2017-11-29T09:59:04Z</time>
      </trkpt>
      <trkpt lat="45.25295" lon="6.01317">
        <ele>1549.4520263672</ele>
        <time>2017-11-29T09:59:06Z</time>
      </trkpt>
      <trkpt lat="45.25285" lon="6.01305">
        <ele>1545.4520263672</ele>
        <time>2017-11-29T09:59:09Z</time>
      </trkpt>
      <trkpt lat="45.25278" lon="6.01297">
        <ele>1545.4520263672</ele>
        <time>2017-11-29T09:59:11Z</time>
      </trkpt>
      <trkpt lat="45.25271" lon="6.01289">
        <ele>1544.4520263672</ele>
        <time>2017-11-29T09:59:13Z</time>
      </trkpt>
      <trkpt lat="45.25263" lon="6.0128">
        <ele>1545.4520263672</ele>
        <time>2017-11-29T09:59:15Z</time>
      </trkpt>
      <trkpt lat="45.25254" lon="6.0127">
        <ele>1542.4520263672</ele>
        <time>2017-11-29T09:59:18Z</time>
      </trkpt>
      <trkpt lat="45.25248" lon="6.01261">
        <ele>1543.4520263672</ele>
        <time>2017-11-29T09:59:20Z</time>
      </trkpt>
      <trkpt lat="45.25241" lon="6.01252">
        <ele>1542.4520263672</ele>
        <time>2017-11-29T09:59:22Z</time>
      </trkpt>
      <trkpt lat="45.25233" lon="6.01242">
        <ele>1540.4520263672</ele>
        <time>2017-11-29T09:59:24Z</time>
      </trkpt>
      <trkpt lat="45.25228" lon="6.01239">
        <ele>1534.4520263672</ele>
        <time>2017-11-29T09:59:26Z</time>
      </trkpt>
      <trkpt lat="45.25223" lon="6.0123">
        <ele>1533.4520263672</ele>
        <time>2017-11-29T09:59:28Z</time>
      </trkpt>
      <trkpt lat="45.25216" lon="6.01219">
        <ele>1532.4520263672</ele>
        <time>2017-11-29T09:59:30Z</time>
      </trkpt>
      <trkpt lat="45.25212" lon="6.01205">
        <ele>1531.4520263672</ele>
        <time>2017-11-29T09:59:33Z</time>
      </trkpt>
      <trkpt lat="45.25208" lon="6.01196">
        <ele>1529.4520263672</ele>
        <time>2017-11-29T09:59:35Z</time>
      </trkpt>
      <trkpt lat="45.25204" lon="6.01191">
        <ele>1530.4520263672</ele>
        <time>2017-11-29T09:59:37Z</time>
      </trkpt>
      <trkpt lat="45.25202" lon="6.01185">
        <ele>1530.4520263672</ele>
        <time>2017-11-29T09:59:39Z</time>
      </trkpt>
      <trkpt lat="45.25198" lon="6.01179">
        <ele>1530.4520263672</ele>
        <time>2017-11-29T09:59:41Z</time>
      </trkpt>
      <trkpt lat="45.25193" lon="6.01168">
        <ele>1528.4520263672</ele>
        <time>2017-11-29T09:59:43Z</time>
      </trkpt>
      <trkpt lat="45.2519" lon="6.0116">
        <ele>1527.4520263672</ele>
        <time>2017-11-29T09:59:45Z</time>
      </trkpt>
      <trkpt lat="45.25186" lon="6.01148">
        <ele>1526.4520263672</ele>
        <time>2017-11-29T09:59:47Z</time>
      </trkpt>
      <trkpt lat="45.2518" lon="6.01139">
        <ele>1525.4520263672</ele>
        <time>2017-11-29T09:59:49Z</time>
      </trkpt>
      <trkpt lat="45.25174" lon="6.01129">
        <ele>1523.4520263672</ele>
        <time>2017-11-29T09:59:51Z</time>
      </trkpt>
      <trkpt lat="45.25171" lon="6.01123">
        <ele>1523.4520263672</ele>
        <time>2017-11-29T09:59:52Z</time>
      </trkpt>
      <trkpt lat="45.25167" lon="6.01111">
        <ele>1522.4520263672</ele>
        <time>2017-11-29T09:59:54Z</time>
      </trkpt>
      <trkpt lat="45.25165" lon="6.01097">
        <ele>1521.4520263672</ele>
        <time>2017-11-29T09:59:56Z</time>
      </trkpt>
      <trkpt lat="45.25163" lon="6.01085">
        <ele>1519.4520263672</ele>
        <time>2017-11-29T09:59:58Z</time>
      </trkpt>
      <trkpt lat="45.25161" lon="6.01078">
        <ele>1515.4520263672</ele>
        <time>2017-11-29T10:00:01Z</time>
      </trkpt>
      <trkpt lat="45.25161" lon="6.0107">
        <ele>1514.4520263672</ele>
        <time>2017-11-29T10:00:03Z</time>
      </trkpt>
      <trkpt lat="45.2516" lon="6.01057">
        <ele>1513.4520263672</ele>
        <time>2017-11-29T10:00:05Z</time>
      </trkpt>
      <trkpt lat="45.2516" lon="6.01051">
        <ele>1512.4520263672</ele>
        <time>2017-11-29T10:00:06Z</time>
      </trkpt>
      <trkpt lat="45.25161" lon="6.01035">
        <ele>1511.4520263672</ele>
        <time>2017-11-29T10:00:08Z</time>
      </trkpt>
      <trkpt lat="45.25161" lon="6.01018">
        <ele>1510.4520263672</ele>
        <time>2017-11-29T10:00:10Z</time>
      </trkpt>
      <trkpt lat="45.2516" lon="6.01001">
        <ele>1510.4520263672</ele>
        <time>2017-11-29T10:00:12Z</time>
      </trkpt>
      <trkpt lat="45.25157" lon="6.00993">
        <ele>1510.4520263672</ele>
        <time>2017-11-29T10:00:13Z</time>
      </trkpt>
      <trkpt lat="45.25155" lon="6.00986">
        <ele>1509.4520263672</ele>
        <time>2017-11-29T10:00:14Z</time>
      </trkpt>
      <trkpt lat="45.25149" lon="6.00975">
        <ele>1507.4520263672</ele>
        <time>2017-11-29T10:00:16Z</time>
      </trkpt>
      <trkpt lat="45.25147" lon="6.0096">
        <ele>1506.4520263672</ele>
        <time>2017-11-29T10:00:19Z</time>
      </trkpt>
      <trkpt lat="45.2515" lon="6.00942">
        <ele>1503.4520263672</ele>
        <time>2017-11-29T10:00:22Z</time>
      </trkpt>
      <trkpt lat="45.25156" lon="6.00923">
        <ele>1500.4520263672</ele>
        <time>2017-11-29T10:00:25Z</time>
      </trkpt>
      <trkpt lat="45.25162" lon="6.00914">
        <ele>1499.4520263672</ele>
        <time>2017-11-29T10:00:27Z</time>
      </trkpt>
      <trkpt lat="45.25166" lon="6.00902">
        <ele>1498.4520263672</ele>
        <time>2017-11-29T10:00:29Z</time>
      </trkpt>
      <trkpt lat="45.25171" lon="6.0089">
        <ele>1496.4520263672</ele>
        <time>2017-11-29T10:00:31Z</time>
      </trkpt>
      <trkpt lat="45.25175" lon="6.00879">
        <ele>1492.4520263672</ele>
        <time>2017-11-29T10:00:33Z</time>
      </trkpt>
      <trkpt lat="45.25183" lon="6.00869">
        <ele>1490.4520263672</ele>
        <time>2017-11-29T10:00:35Z</time>
      </trkpt>
      <trkpt lat="45.25189" lon="6.00857">
        <ele>1487.4520263672</ele>
        <time>2017-11-29T10:00:37Z</time>
      </trkpt>
      <trkpt lat="45.25193" lon="6.00845">
        <ele>1486.4520263672</ele>
        <time>2017-11-29T10:00:39Z</time>
      </trkpt>
      <trkpt lat="45.252" lon="6.00833">
        <ele>1485.4520263672</ele>
        <time>2017-11-29T10:00:41Z</time>
      </trkpt>
      <trkpt lat="45.25205" lon="6.00831">
        <ele>1484.4520263672</ele>
        <time>2017-11-29T10:00:42Z</time>
      </trkpt>
      <trkpt lat="45.25213" lon="6.00819">
        <ele>1482.4520263672</ele>
        <time>2017-11-29T10:00:44Z</time>
      </trkpt>
      <trkpt lat="45.25216" lon="6.0081">
        <ele>1480.4520263672</ele>
        <time>2017-11-29T10:00:45Z</time>
      </trkpt>
      <trkpt lat="45.25224" lon="6.00792">
        <ele>1478.4520263672</ele>
        <time>2017-11-29T10:00:47Z</time>
      </trkpt>
      <trkpt lat="45.25229" lon="6.00783">
        <ele>1478.4520263672</ele>
        <time>2017-11-29T10:00:48Z</time>
      </trkpt>
      <trkpt lat="45.25235" lon="6.00768">
        <ele>1476.4520263672</ele>
        <time>2017-11-29T10:00:50Z</time>
      </trkpt>
      <trkpt lat="45.25241" lon="6.00754">
        <ele>1477.4520263672</ele>
        <time>2017-11-29T10:00:52Z</time>
      </trkpt>
      <trkpt lat="45.25245" lon="6.00748">
        <ele>1476.4520263672</ele>
        <time>2017-11-29T10:00:53Z</time>
      </trkpt>
      <trkpt lat="45.25252" lon="6.00734">
        <ele>1476.4520263672</ele>
        <time>2017-11-29T10:00:56Z</time>
      </trkpt>
      <trkpt lat="45.25257" lon="6.00727">
        <ele>1474.4520263672</ele>
        <time>2017-11-29T10:00:58Z</time>
      </trkpt>
      <trkpt lat="45.2526" lon="6.00722">
        <ele>1473.4520263672</ele>
        <time>2017-11-29T10:01:00Z</time>
      </trkpt>
      <trkpt lat="45.25264" lon="6.00715">
        <ele>1472.4520263672</ele>
        <time>2017-11-29T10:01:02Z</time>
      </trkpt>
      <trkpt lat="45.25268" lon="6.00711">
        <ele>1471.4520263672</ele>
        <time>2017-11-29T10:01:04Z</time>
      </trkpt>
      <trkpt lat="45.25272" lon="6.00705">
        <ele>1470.4520263672</ele>
        <time>2017-11-29T10:01:06Z</time>
      </trkpt>
      <trkpt lat="45.25276" lon="6.007">
        <ele>1468.4520263672</ele>
        <time>2017-11-29T10:01:08Z</time>
      </trkpt>
      <trkpt lat="45.25282" lon="6.00693">
        <ele>1468.4520263672</ele>
        <time>2017-11-29T10:01:10Z</time>
      </trkpt>
      <trkpt lat="45.25288" lon="6.00686">
        <ele>1468.4520263672</ele>
        <time>2017-11-29T10:01:12Z</time>
      </trkpt>
      <trkpt lat="45.25295" lon="6.00681">
        <ele>1469.4520263672</ele>
        <time>2017-11-29T10:01:14Z</time>
      </trkpt>
      <trkpt lat="45.253" lon="6.00676">
        <ele>1469.4520263672</ele>
        <time>2017-11-29T10:01:16Z</time>
      </trkpt>
      <trkpt lat="45.25305" lon="6.00672">
        <ele>1468.4520263672</ele>
        <time>2017-11-29T10:01:18Z</time>
      </trkpt>
      <trkpt lat="45.25311" lon="6.00667">
        <ele>1469.4520263672</ele>
        <time>2017-11-29T10:01:20Z</time>
      </trkpt>
      <trkpt lat="45.25316" lon="6.00664">
        <ele>1469.4520263672</ele>
        <time>2017-11-29T10:01:22Z</time>
      </trkpt>
      <trkpt lat="45.25323" lon="6.00659">
        <ele>1470.4520263672</ele>
        <time>2017-11-29T10:01:24Z</time>
      </trkpt>
      <trkpt lat="45.25327" lon="6.00655">
        <ele>1469.4520263672</ele>
        <time>2017-11-29T10:01:26Z</time>
      </trkpt>
      <trkpt lat="45.25332" lon="6.0065">
        <ele>1468.4520263672</ele>
        <time>2017-11-29T10:01:28Z</time>
      </trkpt>
      <trkpt lat="45.25336" lon="6.00646">
        <ele>1468.4520263672</ele>
        <time>2017-11-29T10:01:30Z</time>
      </trkpt>
      <trkpt lat="45.2534" lon="6.00642">
        <ele>1467.4520263672</ele>
        <time>2017-11-29T10:01:32Z</time>
      </trkpt>
      <trkpt lat="45.25345" lon="6.00637">
        <ele>1467.4520263672</ele>
        <time>2017-11-29T10:01:34Z</time>
      </trkpt>
      <trkpt lat="45.25351" lon="6.00632">
        <ele>1466.4520263672</ele>
        <time>2017-11-29T10:01:36Z</time>
      </trkpt>
      <trkpt lat="45.25356" lon="6.00626">
        <ele>1467.4520263672</ele>
        <time>2017-11-29T10:01:38Z</time>
      </trkpt>
      <trkpt lat="45.25362" lon="6.0062">
        <ele>1469.4520263672</ele>
        <time>2017-11-29T10:01:40Z</time>
      </trkpt>
      <trkpt lat="45.25363" lon="6.00612">
        <ele>1469.4520263672</ele>
        <time>2017-11-29T10:01:42Z</time>
      </trkpt>
      <trkpt lat="45.25366" lon="6.00605">
        <ele>1467.4520263672</ele>
        <time>2017-11-29T10:01:44Z</time>
      </trkpt>
      <trkpt lat="45.25372" lon="6.00601">
        <ele>1466.4520263672</ele>
        <time>2017-11-29T10:01:47Z</time>
      </trkpt>
      <trkpt lat="45.25376" lon="6.00595">
        <ele>1467.4520263672</ele>
        <time>2017-11-29T10:01:50Z</time>
      </trkpt>
      <trkpt lat="45.2538" lon="6.00592">
        <ele>1464.4520263672</ele>
        <time>2017-11-29T10:02:06Z</time>
      </trkpt>
      <trkpt lat="45.25383" lon="6.00586">
        <ele>1462.4520263672</ele>
        <time>2017-11-29T10:02:11Z</time>
      </trkpt>
      <trkpt lat="45.25388" lon="6.00581">
        <ele>1461.4520263672</ele>
        <time>2017-11-29T10:02:14Z</time>
      </trkpt>
      <trkpt lat="45.25392" lon="6.00574">
        <ele>1460.4520263672</ele>
        <time>2017-11-29T10:02:16Z</time>
      </trkpt>
      <trkpt lat="45.25398" lon="6.0057">
        <ele>1459.4520263672</ele>
        <time>2017-11-29T10:02:18Z</time>
      </trkpt>
      <trkpt lat="45.25403" lon="6.00563">
        <ele>1460.4520263672</ele>
        <time>2017-11-29T10:02:20Z</time>
      </trkpt>
      <trkpt lat="45.25406" lon="6.00558">
        <ele>1460.4520263672</ele>
        <time>2017-11-29T10:02:22Z</time>
      </trkpt>
      <trkpt lat="45.2541" lon="6.00553">
        <ele>1458.4520263672</ele>
        <time>2017-11-29T10:02:24Z</time>
      </trkpt>
      <trkpt lat="45.25413" lon="6.00548">
        <ele>1457.4520263672</ele>
        <time>2017-11-29T10:02:26Z</time>
      </trkpt>
      <trkpt lat="45.25419" lon="6.0054">
        <ele>1457.4520263672</ele>
        <time>2017-11-29T10:02:29Z</time>
      </trkpt>
      <trkpt lat="45.25424" lon="6.00534">
        <ele>1458.4520263672</ele>
        <time>2017-11-29T10:02:31Z</time>
      </trkpt>
      <trkpt lat="45.25427" lon="6.00528">
        <ele>1456.4520263672</ele>
        <time>2017-11-29T10:02:33Z</time>
      </trkpt>
      <trkpt lat="45.25432" lon="6.00522">
        <ele>1457.4520263672</ele>
        <time>2017-11-29T10:02:36Z</time>
      </trkpt>
      <trkpt lat="45.25438" lon="6.00517">
        <ele>1457.4520263672</ele>
        <time>2017-11-29T10:02:38Z</time>
      </trkpt>
      <trkpt lat="45.2544" lon="6.0051">
        <ele>1458.4520263672</ele>
        <time>2017-11-29T10:02:40Z</time>
      </trkpt>
      <trkpt lat="45.25444" lon="6.00505">
        <ele>1456.4520263672</ele>
        <time>2017-11-29T10:02:42Z</time>
      </trkpt>
      <trkpt lat="45.25446" lon="6.00498">
        <ele>1453.4520263672</ele>
        <time>2017-11-29T10:02:44Z</time>
      </trkpt>
      <trkpt lat="45.25451" lon="6.0049">
        <ele>1453.4520263672</ele>
        <time>2017-11-29T10:02:46Z</time>
      </trkpt>
      <trkpt lat="45.25454" lon="6.00484">
        <ele>1452.4520263672</ele>
        <time>2017-11-29T10:02:48Z</time>
      </trkpt>
      <trkpt lat="45.25459" lon="6.00478">
        <ele>1453.4520263672</ele>
        <time>2017-11-29T10:02:50Z</time>
      </trkpt>
      <trkpt lat="45.25463" lon="6.00473">
        <ele>1450.4520263672</ele>
        <time>2017-11-29T10:02:52Z</time>
      </trkpt>
      <trkpt lat="45.25466" lon="6.00465">
        <ele>1452.4520263672</ele>
        <time>2017-11-29T10:02:54Z</time>
      </trkpt>
      <trkpt lat="45.25468" lon="6.00459">
        <ele>1451.4520263672</ele>
        <time>2017-11-29T10:02:56Z</time>
      </trkpt>
      <trkpt lat="45.25472" lon="6.00452">
        <ele>1450.4520263672</ele>
        <time>2017-11-29T10:02:58Z</time>
      </trkpt>
      <trkpt lat="45.25479" lon="6.00439">
        <ele>1449.4520263672</ele>
        <time>2017-11-29T10:03:02Z</time>
      </trkpt>
      <trkpt lat="45.25485" lon="6.00431">
        <ele>1450.4520263672</ele>
        <time>2017-11-29T10:03:04Z</time>
      </trkpt>
      <trkpt lat="45.25486" lon="6.00424">
        <ele>1449.4520263672</ele>
        <time>2017-11-29T10:03:06Z</time>
      </trkpt>
      <trkpt lat="45.25492" lon="6.0042">
        <ele>1448.4520263672</ele>
        <time>2017-11-29T10:03:08Z</time>
      </trkpt>
      <trkpt lat="45.25495" lon="6.00411">
        <ele>1446.4520263672</ele>
        <time>2017-11-29T10:03:11Z</time>
      </trkpt>
      <trkpt lat="45.25501" lon="6.00409">
        <ele>1443.4520263672</ele>
        <time>2017-11-29T10:03:15Z</time>
      </trkpt>
      <trkpt lat="45.25505" lon="6.00404">
        <ele>1445.4520263672</ele>
        <time>2017-11-29T10:03:18Z</time>
      </trkpt>
      <trkpt lat="45.25506" lon="6.00396">
        <ele>1443.4520263672</ele>
        <time>2017-11-29T10:03:21Z</time>
      </trkpt>
      <trkpt lat="45.25508" lon="6.00387">
        <ele>1441.4520263672</ele>
        <time>2017-11-29T10:03:24Z</time>
      </trkpt>
      <trkpt lat="45.25509" lon="6.00379">
        <ele>1439.4520263672</ele>
        <time>2017-11-29T10:03:27Z</time>
      </trkpt>
      <trkpt lat="45.25513" lon="6.00372">
        <ele>1438.4520263672</ele>
        <time>2017-11-29T10:03:30Z</time>
      </trkpt>
      <trkpt lat="45.25515" lon="6.00364">
        <ele>1438.4520263672</ele>
        <time>2017-11-29T10:03:33Z</time>
      </trkpt>
      <trkpt lat="45.25517" lon="6.00358">
        <ele>1439.4520263672</ele>
        <time>2017-11-29T10:03:35Z</time>
      </trkpt>
      <trkpt lat="45.2552" lon="6.00353">
        <ele>1438.4520263672</ele>
        <time>2017-11-29T10:03:37Z</time>
      </trkpt>
      <trkpt lat="45.25521" lon="6.00347">
        <ele>1436.4520263672</ele>
        <time>2017-11-29T10:03:39Z</time>
      </trkpt>
      <trkpt lat="45.25524" lon="6.00339">
        <ele>1434.4520263672</ele>
        <time>2017-11-29T10:03:41Z</time>
      </trkpt>
      <trkpt lat="45.25526" lon="6.0033">
        <ele>1432.4520263672</ele>
        <time>2017-11-29T10:03:44Z</time>
      </trkpt>
      <trkpt lat="45.25528" lon="6.00323">
        <ele>1432.4520263672</ele>
        <time>2017-11-29T10:03:47Z</time>
      </trkpt>
      <trkpt lat="45.25529" lon="6.00315">
        <ele>1431.4510498047</ele>
        <time>2017-11-29T10:03:50Z</time>
      </trkpt>
      <trkpt lat="45.2553" lon="6.00307">
        <ele>1429.4510498047</ele>
        <time>2017-11-29T10:03:53Z</time>
      </trkpt>
      <trkpt lat="45.25528" lon="6.00299">
        <ele>1428.4510498047</ele>
        <time>2017-11-29T10:03:56Z</time>
      </trkpt>
      <trkpt lat="45.25528" lon="6.0029">
        <ele>1425.4510498047</ele>
        <time>2017-11-29T10:03:59Z</time>
      </trkpt>
      <trkpt lat="45.25532" lon="6.00286">
        <ele>1425.4510498047</ele>
        <time>2017-11-29T10:04:01Z</time>
      </trkpt>
      <trkpt lat="45.25533" lon="6.00279">
        <ele>1424.4510498047</ele>
        <time>2017-11-29T10:04:03Z</time>
      </trkpt>
      <trkpt lat="45.25536" lon="6.00273">
        <ele>1424.4510498047</ele>
        <time>2017-11-29T10:04:05Z</time>
      </trkpt>
      <trkpt lat="45.25538" lon="6.00266">
        <ele>1424.4510498047</ele>
        <time>2017-11-29T10:04:07Z</time>
      </trkpt>
      <trkpt lat="45.25541" lon="6.00258">
        <ele>1423.4510498047</ele>
        <time>2017-11-29T10:04:10Z</time>
      </trkpt>
      <trkpt lat="45.25543" lon="6.00252">
        <ele>1422.4510498047</ele>
        <time>2017-11-29T10:04:12Z</time>
      </trkpt>
      <trkpt lat="45.25546" lon="6.00246">
        <ele>1420.4510498047</ele>
        <time>2017-11-29T10:04:14Z</time>
      </trkpt>
      <trkpt lat="45.2555" lon="6.00238">
        <ele>1418.4510498047</ele>
        <time>2017-11-29T10:04:17Z</time>
      </trkpt>
      <trkpt lat="45.25555" lon="6.00234">
        <ele>1418.4510498047</ele>
        <time>2017-11-29T10:04:19Z</time>
      </trkpt>
      <trkpt lat="45.25558" lon="6.00228">
        <ele>1416.4510498047</ele>
        <time>2017-11-29T10:04:21Z</time>
      </trkpt>
      <trkpt lat="45.25563" lon="6.00222">
        <ele>1415.4510498047</ele>
        <time>2017-11-29T10:04:24Z</time>
      </trkpt>
      <trkpt lat="45.25569" lon="6.00214">
        <ele>1414.4510498047</ele>
        <time>2017-11-29T10:04:27Z</time>
      </trkpt>
      <trkpt lat="45.25573" lon="6.00208">
        <ele>1412.4510498047</ele>
        <time>2017-11-29T10:04:30Z</time>
      </trkpt>
      <trkpt lat="45.25576" lon="6.002">
        <ele>1412.4510498047</ele>
        <time>2017-11-29T10:04:33Z</time>
      </trkpt>
      <trkpt lat="45.2558" lon="6.00192">
        <ele>1412.4510498047</ele>
        <time>2017-11-29T10:04:35Z</time>
      </trkpt>
      <trkpt lat="45.25581" lon="6.00185">
        <ele>1411.4510498047</ele>
        <time>2017-11-29T10:04:38Z</time>
      </trkpt>
      <trkpt lat="45.25584" lon="6.00176">
        <ele>1408.4510498047</ele>
        <time>2017-11-29T10:04:41Z</time>
      </trkpt>
      <trkpt lat="45.25585" lon="6.0017">
        <ele>1409.4510498047</ele>
        <time>2017-11-29T10:04:43Z</time>
      </trkpt>
      <trkpt lat="45.25585" lon="6.00162">
        <ele>1409.4510498047</ele>
        <time>2017-11-29T10:06:29Z</time>
      </trkpt>
      <trkpt lat="45.25583" lon="6.00155">
        <ele>1409.4510498047</ele>
        <time>2017-11-29T10:06:33Z</time>
      </trkpt>
      <trkpt lat="45.25581" lon="6.00149">
        <ele>1411.4510498047</ele>
        <time>2017-11-29T10:07:07Z</time>
      </trkpt>
      <trkpt lat="45.25582" lon="6.0014">
        <ele>1408.4510498047</ele>
        <time>2017-11-29T10:07:12Z</time>
      </trkpt>
      <trkpt lat="45.25581" lon="6.00133">
        <ele>1408.4510498047</ele>
        <time>2017-11-29T10:07:16Z</time>
      </trkpt>
      <trkpt lat="45.25582" lon="6.00126">
        <ele>1404.4510498047</ele>
        <time>2017-11-29T10:07:20Z</time>
      </trkpt>
      <trkpt lat="45.25583" lon="6.00119">
        <ele>1402.4510498047</ele>
        <time>2017-11-29T10:07:24Z</time>
      </trkpt>
      <trkpt lat="45.25582" lon="6.00112">
        <ele>1402.4510498047</ele>
        <time>2017-11-29T10:07:28Z</time>
      </trkpt>
      <trkpt lat="45.25583" lon="6.00105">
        <ele>1400.4510498047</ele>
        <time>2017-11-29T10:07:34Z</time>
      </trkpt>
      <trkpt lat="45.25584" lon="6.00098">
        <ele>1400.4510498047</ele>
        <time>2017-11-29T10:07:38Z</time>
      </trkpt>
      <trkpt lat="45.25583" lon="6.0009">
        <ele>1400.4510498047</ele>
        <time>2017-11-29T10:07:41Z</time>
      </trkpt>
      <trkpt lat="45.25584" lon="6.00081">
        <ele>1402.4510498047</ele>
        <time>2017-11-29T10:07:44Z</time>
      </trkpt>
      <trkpt lat="45.25584" lon="6.00073">
        <ele>1398.4510498047</ele>
        <time>2017-11-29T10:07:47Z</time>
      </trkpt>
      <trkpt lat="45.25585" lon="6.00066">
        <ele>1395.4510498047</ele>
        <time>2017-11-29T10:07:52Z</time>
      </trkpt>
      <trkpt lat="45.25586" lon="6.0006">
        <ele>1393.4510498047</ele>
        <time>2017-11-29T10:07:55Z</time>
      </trkpt>
      <trkpt lat="45.25587" lon="6.00052">
        <ele>1393.4510498047</ele>
        <time>2017-11-29T10:07:58Z</time>
      </trkpt>
      <trkpt lat="45.25587" lon="6.00045">
        <ele>1395.4510498047</ele>
        <time>2017-11-29T10:08:01Z</time>
      </trkpt>
      <trkpt lat="45.25586" lon="6.00039">
        <ele>1394.4510498047</ele>
        <time>2017-11-29T10:08:03Z</time>
      </trkpt>
      <trkpt lat="45.25586" lon="6.00031">
        <ele>1394.4510498047</ele>
        <time>2017-11-29T10:08:06Z</time>
      </trkpt>
      <trkpt lat="45.25586" lon="6.00023">
        <ele>1391.4510498047</ele>
        <time>2017-11-29T10:08:10Z</time>
      </trkpt>
      <trkpt lat="45.25586" lon="6.00016">
        <ele>1390.4510498047</ele>
        <time>2017-11-29T10:08:20Z</time>
      </trkpt>
      <trkpt lat="45.25586" lon="6.00009">
        <ele>1389.4510498047</ele>
        <time>2017-11-29T10:08:23Z</time>
      </trkpt>
      <trkpt lat="45.25586" lon="6.00001">
        <ele>1385.4510498047</ele>
        <time>2017-11-29T10:08:26Z</time>
      </trkpt>
      <trkpt lat="45.25584" lon="5.99994">
        <ele>1380.4510498047</ele>
        <time>2017-11-29T10:08:29Z</time>
      </trkpt>
      <trkpt lat="45.25584" lon="5.99985">
        <ele>1378.4510498047</ele>
        <time>2017-11-29T10:08:33Z</time>
      </trkpt>
      <trkpt lat="45.25584" lon="5.99977">
        <ele>1380.4510498047</ele>
        <time>2017-11-29T10:08:38Z</time>
      </trkpt>
      <trkpt lat="45.25586" lon="5.99969">
        <ele>1379.4510498047</ele>
        <time>2017-11-29T10:08:43Z</time>
      </trkpt>
      <trkpt lat="45.25584" lon="5.99961">
        <ele>1376.4510498047</ele>
        <time>2017-11-29T10:08:46Z</time>
      </trkpt>
      <trkpt lat="45.25582" lon="5.99955">
        <ele>1376.4510498047</ele>
        <time>2017-11-29T10:08:49Z</time>
      </trkpt>
      <trkpt lat="45.25582" lon="5.99948">
        <ele>1376.4510498047</ele>
        <time>2017-11-29T10:08:54Z</time>
      </trkpt>
      <trkpt lat="45.25582" lon="5.99941">
        <ele>1376.4510498047</ele>
        <time>2017-11-29T10:08:59Z</time>
      </trkpt>
      <trkpt lat="45.25583" lon="5.99933">
        <ele>1373.4510498047</ele>
        <time>2017-11-29T10:09:06Z</time>
      </trkpt>
      <trkpt lat="45.25583" lon="5.99926">
        <ele>1373.4510498047</ele>
        <time>2017-11-29T10:09:09Z</time>
      </trkpt>
      <trkpt lat="45.25582" lon="5.99918">
        <ele>1372.4510498047</ele>
        <time>2017-11-29T10:09:12Z</time>
      </trkpt>
      <trkpt lat="45.25582" lon="5.99911">
        <ele>1372.4510498047</ele>
        <time>2017-11-29T10:09:15Z</time>
      </trkpt>
      <trkpt lat="45.25582" lon="5.99904">
        <ele>1373.4510498047</ele>
        <time>2017-11-29T10:09:18Z</time>
      </trkpt>
      <trkpt lat="45.25582" lon="5.99897">
        <ele>1370.4510498047</ele>
        <time>2017-11-29T10:09:23Z</time>
      </trkpt>
      <trkpt lat="45.25583" lon="5.9989">
        <ele>1371.4510498047</ele>
        <time>2017-11-29T10:09:27Z</time>
      </trkpt>
      <trkpt lat="45.25585" lon="5.99882">
        <ele>1369.4510498047</ele>
        <time>2017-11-29T10:09:31Z</time>
      </trkpt>
      <trkpt lat="45.25587" lon="5.99876">
        <ele>1368.4510498047</ele>
        <time>2017-11-29T10:09:34Z</time>
      </trkpt>
      <trkpt lat="45.25587" lon="5.9987">
        <ele>1366.4510498047</ele>
        <time>2017-11-29T10:09:41Z</time>
      </trkpt>
      <trkpt lat="45.25587" lon="5.99863">
        <ele>1364.4510498047</ele>
        <time>2017-11-29T10:09:47Z</time>
      </trkpt>
      <trkpt lat="45.2559" lon="5.99855">
        <ele>1362.4510498047</ele>
        <time>2017-11-29T10:09:51Z</time>
      </trkpt>
      <trkpt lat="45.25593" lon="5.99847">
        <ele>1359.4510498047</ele>
        <time>2017-11-29T10:09:54Z</time>
      </trkpt>
      <trkpt lat="45.25596" lon="5.99839">
        <ele>1358.4510498047</ele>
        <time>2017-11-29T10:09:59Z</time>
      </trkpt>
      <trkpt lat="45.25597" lon="5.99832">
        <ele>1356.4510498047</ele>
        <time>2017-11-29T10:10:02Z</time>
      </trkpt>
      <trkpt lat="45.25598" lon="5.99825">
        <ele>1355.4510498047</ele>
        <time>2017-11-29T10:10:06Z</time>
      </trkpt>
      <trkpt lat="45.25601" lon="5.99817">
        <ele>1355.4510498047</ele>
        <time>2017-11-29T10:10:09Z</time>
      </trkpt>
      <trkpt lat="45.25605" lon="5.9981">
        <ele>1358.4510498047</ele>
        <time>2017-11-29T10:10:12Z</time>
      </trkpt>
      <trkpt lat="45.25608" lon="5.99803">
        <ele>1354.4510498047</ele>
        <time>2017-11-29T10:10:21Z</time>
      </trkpt>
      <trkpt lat="45.25609" lon="5.99796">
        <ele>1352.4510498047</ele>
        <time>2017-11-29T10:10:26Z</time>
      </trkpt>
      <trkpt lat="45.25611" lon="5.99789">
        <ele>1351.4510498047</ele>
        <time>2017-11-29T10:10:30Z</time>
      </trkpt>
      <trkpt lat="45.25612" lon="5.99782">
        <ele>1348.4510498047</ele>
        <time>2017-11-29T10:10:33Z</time>
      </trkpt>
      <trkpt lat="45.25613" lon="5.99774">
        <ele>1346.4510498047</ele>
        <time>2017-11-29T10:10:36Z</time>
      </trkpt>
      <trkpt lat="45.25616" lon="5.99767">
        <ele>1346.4510498047</ele>
        <time>2017-11-29T10:10:43Z</time>
      </trkpt>
      <trkpt lat="45.25617" lon="5.99759">
        <ele>1342.4510498047</ele>
        <time>2017-11-29T10:10:46Z</time>
      </trkpt>
      <trkpt lat="45.25618" lon="5.99752">
        <ele>1343.4510498047</ele>
        <time>2017-11-29T10:10:49Z</time>
      </trkpt>
      <trkpt lat="45.25617" lon="5.99745">
        <ele>1343.4510498047</ele>
        <time>2017-11-29T10:10:51Z</time>
      </trkpt>
      <trkpt lat="45.25619" lon="5.99738">
        <ele>1344.4510498047</ele>
        <time>2017-11-29T10:10:55Z</time>
      </trkpt>
      <trkpt lat="45.25621" lon="5.99732">
        <ele>1343.4510498047</ele>
        <time>2017-11-29T10:10:59Z</time>
      </trkpt>
      <trkpt lat="45.25621" lon="5.99726">
        <ele>1341.4510498047</ele>
        <time>2017-11-29T10:11:02Z</time>
      </trkpt>
      <trkpt lat="45.25623" lon="5.99719">
        <ele>1343.4510498047</ele>
        <time>2017-11-29T10:11:06Z</time>
      </trkpt>
      <trkpt lat="45.25624" lon="5.99713">
        <ele>1345.4510498047</ele>
        <time>2017-11-29T10:11:08Z</time>
      </trkpt>
      <trkpt lat="45.25624" lon="5.99705">
        <ele>1344.4510498047</ele>
        <time>2017-11-29T10:11:11Z</time>
      </trkpt>
      <trkpt lat="45.25627" lon="5.99699">
        <ele>1341.4510498047</ele>
        <time>2017-11-29T10:11:18Z</time>
      </trkpt>
      <trkpt lat="45.25628" lon="5.99691">
        <ele>1341.4510498047</ele>
        <time>2017-11-29T10:11:22Z</time>
      </trkpt>
      <trkpt lat="45.2563" lon="5.99683">
        <ele>1345.4510498047</ele>
        <time>2017-11-29T10:11:25Z</time>
      </trkpt>
      <trkpt lat="45.25629" lon="5.99675">
        <ele>1343.4510498047</ele>
        <time>2017-11-29T10:11:30Z</time>
      </trkpt>
      <trkpt lat="45.2563" lon="5.99668">
        <ele>1342.4510498047</ele>
        <time>2017-11-29T10:11:33Z</time>
      </trkpt>
      <trkpt lat="45.25629" lon="5.99659">
        <ele>1344.4510498047</ele>
        <time>2017-11-29T10:11:36Z</time>
      </trkpt>
      <trkpt lat="45.2563" lon="5.99652">
        <ele>1345.4510498047</ele>
        <time>2017-11-29T10:11:39Z</time>
      </trkpt>
      <trkpt lat="45.25629" lon="5.99643">
        <ele>1342.4510498047</ele>
        <time>2017-11-29T10:11:46Z</time>
      </trkpt>
      <trkpt lat="45.25628" lon="5.99637">
        <ele>1340.4510498047</ele>
        <time>2017-11-29T10:11:49Z</time>
      </trkpt>
      <trkpt lat="45.25628" lon="5.99629">
        <ele>1342.4510498047</ele>
        <time>2017-11-29T10:11:53Z</time>
      </trkpt>
      <trkpt lat="45.25628" lon="5.99621">
        <ele>1343.4510498047</ele>
        <time>2017-11-29T10:11:56Z</time>
      </trkpt>
      <trkpt lat="45.25628" lon="5.99614">
        <ele>1334.4510498047</ele>
        <time>2017-11-29T10:12:01Z</time>
      </trkpt>
      <trkpt lat="45.25629" lon="5.99607">
        <ele>1331.4510498047</ele>
        <time>2017-11-29T10:12:06Z</time>
      </trkpt>
      <trkpt lat="45.25631" lon="5.996">
        <ele>1330.4510498047</ele>
        <time>2017-11-29T10:12:09Z</time>
      </trkpt>
      <trkpt lat="45.25633" lon="5.99592">
        <ele>1330.4510498047</ele>
        <time>2017-11-29T10:12:12Z</time>
      </trkpt>
      <trkpt lat="45.25636" lon="5.99587">
        <ele>1330.4510498047</ele>
        <time>2017-11-29T10:12:14Z</time>
      </trkpt>
      <trkpt lat="45.2564" lon="5.99584">
        <ele>1331.4510498047</ele>
        <time>2017-11-29T10:12:20Z</time>
      </trkpt>
      <trkpt lat="45.25646" lon="5.99583">
        <ele>1332.4510498047</ele>
        <time>2017-11-29T10:12:24Z</time>
      </trkpt>
      <trkpt lat="45.25651" lon="5.99584">
        <ele>1333.4510498047</ele>
        <time>2017-11-29T10:12:26Z</time>
      </trkpt>
      <trkpt lat="45.25656" lon="5.99586">
        <ele>1333.4510498047</ele>
        <time>2017-11-29T10:12:29Z</time>
      </trkpt>
      <trkpt lat="45.25657" lon="5.99578">
        <ele>1330.4510498047</ele>
        <time>2017-11-29T10:12:33Z</time>
      </trkpt>
      <trkpt lat="45.25657" lon="5.99571">
        <ele>1331.4510498047</ele>
        <time>2017-11-29T10:12:38Z</time>
      </trkpt>
      <trkpt lat="45.25658" lon="5.99564">
        <ele>1331.4510498047</ele>
        <time>2017-11-29T10:12:41Z</time>
      </trkpt>
      <trkpt lat="45.25657" lon="5.99558">
        <ele>1330.4510498047</ele>
        <time>2017-11-29T10:12:45Z</time>
      </trkpt>
      <trkpt lat="45.2566" lon="5.9955">
        <ele>1328.4510498047</ele>
        <time>2017-11-29T10:12:50Z</time>
      </trkpt>
      <trkpt lat="45.25661" lon="5.99543">
        <ele>1333.4510498047</ele>
        <time>2017-11-29T10:12:59Z</time>
      </trkpt>
      <trkpt lat="45.25665" lon="5.99539">
        <ele>1334.4510498047</ele>
        <time>2017-11-29T10:13:03Z</time>
      </trkpt>
      <trkpt lat="45.25664" lon="5.99532">
        <ele>1336.4510498047</ele>
        <time>2017-11-29T10:13:06Z</time>
      </trkpt>
      <trkpt lat="45.25668" lon="5.99537">
        <ele>1335.4510498047</ele>
        <time>2017-11-29T10:13:11Z</time>
      </trkpt>
      <trkpt lat="45.25672" lon="5.99544">
        <ele>1332.4510498047</ele>
        <time>2017-11-29T10:13:14Z</time>
      </trkpt>
      <trkpt lat="45.25673" lon="5.99552">
        <ele>1328.4510498047</ele>
        <time>2017-11-29T10:13:19Z</time>
      </trkpt>
      <trkpt lat="45.25672" lon="5.9956">
        <ele>1326.4510498047</ele>
        <time>2017-11-29T10:13:24Z</time>
      </trkpt>
      <trkpt lat="45.25673" lon="5.99567">
        <ele>1325.4510498047</ele>
        <time>2017-11-29T10:13:28Z</time>
      </trkpt>
      <trkpt lat="45.25676" lon="5.99573">
        <ele>1324.4510498047</ele>
        <time>2017-11-29T10:13:32Z</time>
      </trkpt>
      <trkpt lat="45.2568" lon="5.99576">
        <ele>1324.4510498047</ele>
        <time>2017-11-29T10:13:36Z</time>
      </trkpt>
      <trkpt lat="45.25683" lon="5.99581">
        <ele>1328.4510498047</ele>
        <time>2017-11-29T10:13:42Z</time>
      </trkpt>
      <trkpt lat="45.25685" lon="5.99587">
        <ele>1329.4510498047</ele>
        <time>2017-11-29T10:13:46Z</time>
      </trkpt>
      <trkpt lat="45.25688" lon="5.99593">
        <ele>1332.4510498047</ele>
        <time>2017-11-29T10:13:51Z</time>
      </trkpt>
      <trkpt lat="45.25691" lon="5.99598">
        <ele>1330.4510498047</ele>
        <time>2017-11-29T10:13:56Z</time>
      </trkpt>
      <trkpt lat="45.25694" lon="5.99604">
        <ele>1329.4510498047</ele>
        <time>2017-11-29T10:14:01Z</time>
      </trkpt>
      <trkpt lat="45.25695" lon="5.99612">
        <ele>1327.4510498047</ele>
        <time>2017-11-29T10:14:06Z</time>
      </trkpt>
      <trkpt lat="45.25695" lon="5.99618">
        <ele>1327.4510498047</ele>
        <time>2017-11-29T10:14:10Z</time>
      </trkpt>
      <trkpt lat="45.25695" lon="5.99626">
        <ele>1328.4510498047</ele>
        <time>2017-11-29T10:14:15Z</time>
      </trkpt>
      <trkpt lat="45.25694" lon="5.99633">
        <ele>1330.4510498047</ele>
        <time>2017-11-29T10:14:20Z</time>
      </trkpt>
    </trkseg>
  </trk>
</gpx>